Date StartTime U_cm/s V_cm/s W_cm/s Ustd_cm/s Vstd_cm/s Wstd_cm/s Uvar_(cm/s)^2 Vvar_(cm/s)^2 Wvar_(cm/s)^2 KE_(m/s)^2 TurbulentKE_(m/s)^2 HorizWindSpeed_cm/s FrictionSpeec_cm/s DragCoef SpeedOfSound_m/s SonicTemperature_C Pressure_mb 
08/07/2014  00:00:00      -69.016      -51.503        0.401       33.446       25.408       19.240     1118.639      645.547      370.184        0.477        0.107       86.115       12.303        0.020      343.963       20.445      864.448
08/07/2014  00:01:00      -39.371      -33.831        8.259       25.179       23.607       16.982      633.981      557.291      288.398        0.212        0.074       51.910       13.792        0.071      343.985       20.483      864.466
08/07/2014  00:02:00      -74.625      -82.866       -2.264       77.447       48.007       25.122     5998.091     2304.672      631.113        1.069        0.447      111.515       28.584        0.066      344.076       20.638      864.461
08/07/2014  00:03:00     -118.956      -81.702       -5.023       49.608       43.823       24.281     2460.982     1920.419      589.583        1.291        0.249      144.311       19.533        0.018      344.061       20.610      864.443
08/07/2014  00:04:00      -79.191      -52.668        8.348       57.859       62.398       28.011     3347.672     3893.496      784.594        0.857        0.401       95.106       32.545        0.117      344.014       20.533      864.438
08/07/2014  00:05:00      -13.541      -43.166        6.673       29.740       29.629       21.266      884.490      877.854      452.251        0.215        0.111       45.240       14.800        0.107      344.035       20.568      864.438
08/07/2014  00:06:00      -36.076      -11.955        5.475       33.899       28.411       16.182     1149.142      807.203      261.841        0.185        0.111       38.005       17.339        0.208      343.963       20.444      864.436
08/07/2014  00:07:00      -93.831       -8.848       -3.544       26.835       23.507       15.782      720.109      552.569      249.059        0.521        0.076       94.248       12.470        0.018      343.935       20.396      864.425
08/07/2014  00:08:00      -81.290        9.813       -2.916       38.631       39.812       23.548     1492.319     1585.006      554.500        0.517        0.182       81.880       22.054        0.073      343.824       20.209      864.410
08/07/2014  00:09:00      -94.021        8.155       -9.835       37.097       27.890       21.881     1376.183      777.827      478.759        0.582        0.132       94.374       20.313        0.046      343.793       20.154      864.404
08/07/2014  00:10:00      -74.160       -8.043       -3.028       32.102       20.971       15.550     1030.513      439.796      241.791        0.364        0.086       74.595       12.409        0.028      343.773       20.120      864.406
08/07/2014  00:11:00      -95.083        0.567       -3.638       49.971       30.180       21.509     2497.100      910.831      462.654        0.646        0.194       95.085       23.006        0.059      343.651       19.912      864.387
08/07/2014  00:12:00      -95.633      -25.416       -7.860       35.102       32.870       21.532     1232.177     1080.448      463.622        0.631        0.139       98.953       17.203        0.030      343.615       19.853      864.373
08/07/2014  00:13:00     -114.690      -16.522       -4.259       49.951       41.251       21.358     2495.130     1701.627      456.157        0.905        0.233      115.874       24.735        0.046      343.603       19.832      864.361
08/07/2014  00:14:00      -76.940       -9.890       -7.774       33.551       32.204       16.620     1125.646     1037.099      276.237        0.426        0.122       77.573        7.968        0.011      343.606       19.835      864.354
08/07/2014  00:15:00      -91.920       -4.115       -4.435       35.943       22.003       19.129     1291.913      484.134      365.918        0.531        0.107       92.013       18.048        0.038      343.512       19.676      864.339
08/07/2014  00:16:00      -93.665        0.149        3.964       38.745       29.439       18.956     1501.172      866.654      359.322        0.576        0.136       93.665       18.510        0.039      343.537       19.719      864.322
08/07/2014  00:17:00     -111.727       -5.647       -6.336       19.543       22.224       13.078      381.916      493.926      171.028        0.680        0.052      111.869       10.720        0.009      343.581       19.793      864.314
08/07/2014  00:18:00     -110.903      -38.697      -10.716       20.354       29.689       13.598      414.282      881.457      184.903        0.770        0.074      117.460        8.184        0.005      343.609       19.842      864.310
08/07/2014  00:19:00      -92.341      -31.097       -1.637       24.124       26.992       20.902      581.967      728.546      436.906        0.562        0.087       97.437       14.574        0.022      343.566       19.770      864.311
08/07/2014  00:20:00      -93.308       15.931       -7.082       23.777       27.671       15.516      565.362      765.678      240.748        0.529        0.079       94.658        9.774        0.011      343.564       19.764      864.319
08/07/2014  00:21:00      -85.155       12.896      -14.508       23.474       20.280       16.490      551.032      411.259      271.921        0.443        0.062       86.126       11.801        0.019      343.578       19.787      864.316
08/07/2014  00:22:00     -125.731       10.195      -12.124       32.905       26.398       14.234     1082.762      696.876      202.600        0.902        0.099      126.143       13.660        0.012      343.592       19.812      864.308
08/07/2014  00:23:00     -109.864       -6.717       -8.548       34.508       29.057       17.823     1190.792      844.289      317.672        0.727        0.118      110.069       14.000        0.016      343.562       19.760      864.299
08/07/2014  00:24:00      -74.010      -25.456       -2.019       34.253       38.269       23.193     1173.236     1464.486      537.897        0.465        0.159       78.266       15.254        0.038      343.555       19.749      864.295
08/07/2014  00:25:00     -120.852        3.177       -8.422       64.842       35.602       24.442     4204.520     1267.480      597.431        1.038        0.303      120.894       29.534        0.060      343.498       19.651      864.278
08/07/2014  00:26:00     -138.963       27.556      -12.230       45.635       39.214       20.817     2082.525     1537.745      433.327        1.214        0.203      141.669       17.079        0.015      343.438       19.549      864.267
08/07/2014  00:27:00     -132.528        9.540      -16.310       38.864       32.275       20.354     1510.424     1041.681      414.291        1.044        0.148      132.871       20.357        0.023      343.439       19.550      864.266
08/07/2014  00:28:00     -132.283       31.953      -14.703       50.898       33.350       22.730     2590.569     1112.208      516.648        1.148        0.211      136.087       24.273        0.032      343.435       19.543      864.257
08/07/2014  00:29:00     -125.085       16.871      -11.059       44.303       41.284       23.476     1962.719     1704.407      551.116        1.013        0.211      126.218       21.948        0.030      343.457       19.582      864.240
08/07/2014  00:30:00     -133.672       34.694      -11.437       39.097       28.171       22.582     1528.573      793.607      509.954        1.102        0.142      138.101       19.797        0.021      343.498       19.652      864.219
08/07/2014  00:31:00     -141.343       16.644      -10.565       23.343       37.469       17.710      544.901     1403.917      313.632        1.131        0.113      142.320       10.262        0.005      343.475       19.612      864.209
08/07/2014  00:32:00     -135.153       28.340       -8.100       41.443       40.477       19.496     1717.484     1638.352      380.103        1.143        0.187      138.092       19.797        0.021      343.491       19.639      864.197
08/07/2014  00:33:00     -105.004       -7.689       -3.253       33.630       34.563       25.479     1130.949     1194.623      649.175        0.703        0.149      105.285       23.681        0.051      343.435       19.541      864.182
08/07/2014  00:34:00      -77.849        8.775      -10.824       28.821       23.517       20.785      830.658      553.061      431.997        0.403        0.091       78.342       17.569        0.050      343.432       19.539      864.171
08/07/2014  00:35:00     -120.160       -7.336      -10.249       26.614       24.311       15.831      708.300      591.043      250.613        0.807        0.077      120.384        6.138        0.003      343.522       19.693      864.177
08/07/2014  00:36:00     -123.026        5.465       -8.635       46.683       32.618       23.568     2179.327     1063.946      555.447        0.952        0.190      123.147       25.672        0.043      343.440       19.553      864.177
08/07/2014  00:37:00     -146.343       21.985      -12.996       38.343       25.702       18.535     1470.201      660.609      343.565        1.227        0.124      147.985       15.212        0.011      343.438       19.550      864.174
08/07/2014  00:38:00     -153.628       38.836       -5.700       38.681       26.054       21.749     1496.229      678.816      473.007        1.389        0.132      158.460       17.321        0.012      343.385       19.458      864.177
08/07/2014  00:39:00     -148.698       52.304      -10.774       49.585       28.192       22.155     2458.711      794.794      490.839        1.435        0.187      157.629       13.653        0.008      343.394       19.474      864.179
08/07/2014  00:40:00     -129.889       53.885       -8.730       42.353       24.829       24.048     1793.741      616.502      578.298        1.142        0.149      140.623       22.554        0.026      343.461       19.589      864.165
08/07/2014  00:41:00     -158.696       57.381      -12.495       32.950       21.050       17.041     1085.731      443.099      290.388        1.523        0.091      168.751        9.229        0.003      343.586       19.801      864.160
08/07/2014  00:42:00     -123.764       48.771       -8.933       39.021       20.117       18.621     1522.646      404.704      346.730        1.002        0.114      133.027        4.838        0.001      343.601       19.827      864.159
08/07/2014  00:43:00      -99.634       37.317       -9.557       27.968       23.151       23.013      782.194      535.988      529.584        0.663        0.092      106.393       19.929        0.035      343.623       19.864      864.147
08/07/2014  00:44:00      -98.831       47.157       -9.520       35.000       22.150       19.290     1225.033      490.633      372.097        0.708        0.104      109.505       16.422        0.022      343.648       19.908      864.130
08/07/2014  00:45:00      -78.842       34.817       -5.995       28.055       22.601       17.791      787.105      510.822      316.533        0.454        0.081       86.187       13.027        0.023      343.613       19.848      864.120
08/07/2014  00:46:00      -87.965       28.096       -6.152       31.891       22.881       16.120     1017.040      523.523      259.844        0.518        0.090       92.343       11.133        0.015      343.711       20.016      864.123
08/07/2014  00:47:00      -83.412        1.988      -10.203       27.093       21.757       12.631      734.005      473.367      159.532        0.422        0.068       83.436       11.600        0.019      343.670       19.945      864.111
08/07/2014  00:48:00      -79.246       -0.240      -10.497       19.786       28.680       18.011      391.499      822.529      324.394        0.396        0.077       79.246       14.961        0.036      343.548       19.737      864.106
08/07/2014  00:49:00      -87.363      -11.243       -9.760       16.807       16.840       13.484      282.491      283.589      181.820        0.430        0.037       88.084        8.718        0.010      343.486       19.633      864.101
08/07/2014  00:50:00      -93.826       26.459       -7.680       28.905       25.624       17.553      835.503      656.605      308.114        0.568        0.090       97.486       12.474        0.016      343.636       19.887      864.109
08/07/2014  00:51:00      -82.512       10.248       -2.000       36.371       34.926       23.522     1322.879     1219.795      553.299        0.501        0.155       83.146       19.167        0.053      343.590       19.808      864.108
08/07/2014  00:52:00     -107.747       37.639      -15.793       31.831       33.381       17.532     1013.227     1114.320      307.362        0.785        0.122      114.132       10.404        0.008      343.663       19.932      864.102
08/07/2014  00:53:00      -94.757       30.839       -6.086       33.235       30.005       21.628     1104.558      900.305      467.752        0.622        0.124       99.649       17.239        0.030      343.635       19.887      864.090
08/07/2014  00:54:00      -90.486       10.300       -4.597       31.577       35.094       19.147      997.084     1231.575      366.625        0.545        0.130       91.070       17.007        0.035      343.615       19.852      864.086
08/07/2014  00:55:00      -86.242      -11.784      -18.188       21.744       26.762       12.851      472.784      716.190      165.153        0.463        0.068       87.044        9.589        0.012      343.528       19.702      864.069
08/07/2014  00:56:00      -88.886      -24.488       -7.249       15.145       27.457       12.949      229.383      753.872      167.666        0.485        0.058       92.198        9.850        0.011      343.465       19.594      864.051
08/07/2014  00:57:00     -111.864        8.815      -15.477       21.071       26.083       18.783      443.994      680.324      352.786        0.715        0.074      112.211       15.223        0.018      343.533       19.712      864.049
08/07/2014  00:58:00     -101.047       23.736       -9.352       27.042       24.266       13.745      731.274      588.841      188.914        0.618        0.075      103.797        7.076        0.005      343.630       19.878      864.044
08/07/2014  00:59:00      -88.707       27.593       -9.677       33.328       26.406       18.265     1110.777      697.273      333.616        0.543        0.107       92.899       15.849        0.029      343.691       19.980      864.042
08/07/2014  01:00:00      -92.253       26.982       -8.755       19.574       25.018       19.993      383.142      625.882      399.735        0.536        0.070       96.118       10.638        0.012      343.650       19.910      864.033
08/07/2014  01:01:00      -86.088       61.457       -9.345       31.493       33.170       19.719      991.836     1100.235      388.846        0.688        0.124      105.773       13.896        0.017      343.728       20.044      864.037
08/07/2014  01:02:00      -62.131       54.787       -7.702       24.423       38.518       24.429      596.495     1483.648      596.754        0.480        0.134       82.837       15.688        0.036      343.725       20.039      864.046
08/07/2014  01:03:00     -102.864       68.278      -24.713       32.427       39.764       23.255     1051.537     1581.207      540.785        0.951        0.159      123.462       21.372        0.030      343.808       20.181      864.048
08/07/2014  01:04:00      -47.830       15.464       -4.133       19.041       14.137       13.372      362.548      199.860      178.805        0.164        0.037       50.268        8.753        0.030      343.804       20.175      864.047
08/07/2014  01:05:00      -29.765       -6.637       -3.852       15.492       15.928       11.785      240.005      253.694      138.884        0.079        0.032       30.496        9.620        0.100      343.723       20.036      864.041
08/07/2014  01:06:00      -16.426       -8.838       -0.264       10.480        7.953        7.974      109.836       63.251       63.579        0.029        0.012       18.653        2.711        0.021      343.680       19.964      864.036
08/07/2014  01:07:00      -18.047      -13.194       -8.125        7.717        5.933        4.839       59.555       35.196       23.420        0.034        0.006       22.356        3.271        0.021      343.719       20.027      864.039
08/07/2014  01:08:00       -1.335      -28.150       11.217       15.858       14.984       15.051      251.463      224.517      226.522        0.081        0.035       28.182       10.338        0.135      343.677       19.956      864.036
08/07/2014  01:09:00      -24.896      -53.088        0.293       39.676       33.868       19.637     1574.200     1147.044      385.606        0.327        0.155       58.636       15.454        0.069      343.635       19.887      864.037
08/07/2014  01:10:00      -66.272     -101.418       -1.230       31.544       24.362       20.043      995.008      593.523      401.715        0.833        0.100      121.151       15.248        0.016      343.658       19.924      864.035
08/07/2014  01:11:00      -46.727      -82.113        4.805       32.421       52.329       31.057     1051.132     2738.290      964.556        0.685        0.238       94.477       28.353        0.090      343.551       19.742      864.034
08/07/2014  01:12:00      -31.071      -77.940        4.835       58.584       43.496       33.611     3432.034     1891.893     1129.698        0.676        0.323       83.905       31.425        0.140      343.517       19.684      864.039
08/07/2014  01:13:00     -101.126      -85.168        1.039       47.869       34.523       30.146     2291.436     1191.815      908.780        1.094        0.220      132.212       21.554        0.027      343.487       19.633      864.034
08/07/2014  01:14:00      -73.727      -68.841       -6.980       39.858       23.285       21.682     1588.635      542.194      470.102        0.641        0.130      100.870       13.022        0.017      343.509       19.671      864.023
08/07/2014  01:15:00       -8.891      -62.284        1.576       25.686       36.401       17.818      659.771     1325.039      317.474        0.313        0.115       62.915       19.379        0.095      343.503       19.662      864.035
08/07/2014  01:16:00      -12.516     -104.804       -2.649       27.896       42.416       20.350      778.191     1799.156      414.143        0.707        0.150      105.548       18.753        0.032      343.466       19.598      864.047
08/07/2014  01:17:00      -69.476       11.630       14.259       43.007       30.922       24.642     1849.614      956.151      607.232        0.429        0.171       70.443       18.448        0.069      343.399       19.484      864.061
08/07/2014  01:18:00        6.994      -28.125       -1.139       30.745       27.516       16.788      945.282      757.124      281.831        0.141        0.099       28.982        8.411        0.084      343.392       19.472      864.078
08/07/2014  01:19:00      -72.009      -39.973       -3.333       44.854       25.618       17.662     2011.898      656.287      311.949        0.489        0.149       82.360        9.203        0.012      343.376       19.445      864.098
08/07/2014  01:20:00     -105.775      -63.040        0.977       43.552       54.892       21.500     1896.790     3013.171      462.264        1.027        0.269      123.135       19.391        0.025      343.283       19.285      864.102
08/07/2014  01:21:00     -116.133      -60.003       -0.707       53.522       33.849       25.602     2864.636     1145.766      655.473        1.088        0.233      130.718       20.431        0.024      343.234       19.202      864.098
08/07/2014  01:22:00     -117.804      -82.337       -4.409       57.595       48.254       23.988     3317.225     2328.449      575.409        1.345        0.311      143.726       29.183        0.041      343.245       19.220      864.099
08/07/2014  01:23:00      -77.947      -44.688        2.203       44.277       30.160       22.259     1960.437      909.619      495.471        0.572        0.168       89.849       21.388        0.057      343.234       19.202      864.102
08/07/2014  01:24:00      -77.855      -53.820       -1.956       31.521       20.088       16.721      993.556      403.521      279.600        0.532        0.084       94.647       11.280        0.014      343.280       19.280      864.106
08/07/2014  01:25:00      -30.573      -52.985        0.827       40.900       27.747       13.699     1672.781      769.920      187.665        0.319        0.132       61.172       10.667        0.030      343.294       19.305      864.109
08/07/2014  01:26:00      -38.624      -15.064       -5.517       17.463       13.260       10.896      304.963      175.834      118.720        0.117        0.030       41.457        3.936        0.009      343.252       19.232      864.104
08/07/2014  01:27:00      -21.644      -11.392       -0.051       13.466       13.187        9.093      181.320      173.888       82.674        0.052        0.022       24.459        7.577        0.096      343.255       19.239      864.098
08/07/2014  01:28:00      -41.106       10.930       -4.649       18.425       17.047       11.022      339.484      290.614      121.486        0.129        0.038       42.534       10.531        0.061      343.202       19.146      864.084
08/07/2014  01:29:00      -71.355       21.909       -7.459       23.190       15.944       12.944      537.793      254.221      167.558        0.329        0.048       74.642       11.931        0.026      343.187       19.121      864.082
08/07/2014  01:30:00     -105.838       24.831      -14.106       26.419       14.672       11.537      697.945      215.272      133.100        0.653        0.052      108.712        6.912        0.004      343.211       19.162      864.063
08/07/2014  01:31:00     -159.000        0.740      -16.036       45.665       29.993       18.499     2085.312      899.609      342.196        1.443        0.166      159.002       18.978        0.014      343.348       19.397      864.043
08/07/2014  01:32:00     -156.629       -5.268      -13.363       44.245       39.923       26.368     1957.631     1593.829      695.277        1.449        0.212      156.717       26.787        0.029      343.230       19.195      864.020
08/07/2014  01:33:00     -123.807      -12.118       -8.496       50.409       44.724       25.907     2541.068     2000.259      671.155        1.038        0.261      124.398       22.466        0.033      343.165       19.083      864.006
08/07/2014  01:34:00     -123.505      -34.095      -17.426       25.196       35.770       18.847      634.854     1279.498      355.213        0.949        0.113      128.125       12.358        0.009      343.112       18.994      864.003
08/07/2014  01:35:00      -75.085      -37.275       -7.842       19.165       28.727       16.784      367.303      825.233      281.699        0.428        0.074       83.828       12.129        0.021      343.091       18.957      864.007
08/07/2014  01:36:00      -59.692       -7.723        1.188       36.667       28.767       18.246     1344.447      827.543      332.904        0.306        0.125       60.189       15.280        0.064      343.092       18.960      864.007
08/07/2014  01:37:00      -41.482       29.649      -12.326       16.897       26.962        9.339      285.517      726.957       87.216        0.193        0.055       50.988        3.996        0.006      343.151       19.061      864.003
08/07/2014  01:38:00      -47.632       59.137      -12.819       36.431       24.898       18.937     1327.228      619.893      358.601        0.412        0.115       75.934       14.005        0.034      343.236       19.206      864.000
08/07/2014  01:39:00      -64.503       80.881      -17.555       24.552       19.295       13.641      602.789      372.297      186.068        0.609        0.058      103.452       11.238        0.012      343.183       19.114      863.991
08/07/2014  01:40:00      -17.861       76.334      -12.557       20.874       38.546       13.291      435.712     1485.771      176.659        0.420        0.105       78.395       17.912        0.052      343.305       19.323      863.985
08/07/2014  01:41:00        0.823       82.945      -14.238       16.287       27.911       11.091      265.277      778.999      123.001        0.413        0.058       82.949       10.263        0.015      343.343       19.388      863.980
08/07/2014  01:42:00        9.844       69.627       -6.061       23.156       19.701       15.010      536.198      388.134      225.302        0.307        0.057       70.319       12.719        0.033      343.341       19.386      863.963
08/07/2014  01:43:00      -13.343       64.052      -14.817       23.849       32.731       12.415      568.756     1071.350      154.120        0.315        0.090       65.427       15.838        0.059      343.367       19.428      863.947
08/07/2014  01:44:00      -12.062       15.344       -4.520       11.470       18.502        8.135      131.569      342.312       66.176        0.047        0.027       19.517        6.030        0.095      343.357       19.413      863.923
08/07/2014  01:45:00      -23.665       -3.593        0.218       18.170       10.100        8.019      330.162      102.005       64.307        0.053        0.025       23.937        8.287        0.120      343.376       19.446      863.924
08/07/2014  01:46:00      -34.353       10.461       -8.417       17.623       16.982       11.298      310.574      288.379      127.640        0.104        0.036       35.910        9.025        0.063      343.385       19.459      863.924
08/07/2014  01:47:00      -30.071        2.389       -9.011       14.262       16.361        8.289      203.401      267.678       68.701        0.077        0.027       30.166        7.917        0.069      343.422       19.523      863.915
08/07/2014  01:48:00      -37.677        1.543       -2.197       30.383       28.230       11.247      923.106      796.956      126.503        0.164        0.092       37.708       13.805        0.134      343.371       19.435      863.903
08/07/2014  01:49:00      -78.340      -33.845       -6.320       18.245       16.000        7.112      332.886      256.007       50.583        0.398        0.032       85.338        7.424        0.008      343.272       19.267      863.899
08/07/2014  01:50:00     -103.224      -39.852      -12.251       13.135       16.108       11.127      172.526      259.457      123.806        0.647        0.028      110.650        6.242        0.003      343.146       19.053      863.889
08/07/2014  01:51:00      -80.970      -53.230       -0.515       27.518       23.676       13.981      757.244      560.570      195.456        0.545        0.076       96.899       12.532        0.017      343.110       18.991      863.890
08/07/2014  01:52:00      -99.542      -72.503       -4.714       30.062       26.546       17.086      903.698      704.715      291.944        0.854        0.095      123.148       10.731        0.008      343.230       19.197      863.894
08/07/2014  01:53:00      -79.171      -61.522        1.705       60.200       47.346       26.079     3623.991     2241.661      680.124        0.830        0.327      100.264       27.368        0.075      343.217       19.174      863.902
08/07/2014  01:54:00     -144.249     -110.763       -1.444       39.405       38.747       28.221     1552.716     1501.323      796.449        1.846        0.193      181.869       16.053        0.008      343.138       19.037      863.914
08/07/2014  01:55:00     -147.530     -121.335       -5.720       58.264       51.900       29.753     3394.650     2693.636      885.235        2.175        0.349      191.017       29.752        0.024      343.042       18.872      863.923
08/07/2014  01:56:00     -141.143      -84.020       -1.744       76.957       53.053       38.131     5922.355     2814.657     1453.943        1.859        0.510      164.258       40.119        0.060      342.998       18.800      863.932
08/07/2014  01:57:00     -132.791      -75.594        0.952       57.426       45.167       27.458     3297.769     2040.015      753.915        1.472        0.305      152.800       28.940        0.036      343.110       18.989      863.945
08/07/2014  01:58:00      -36.030      -29.476        9.042       47.915       33.096       21.182     2295.866     1095.315      448.659        0.304        0.192       46.551       23.594        0.257      343.129       19.023      863.958
08/07/2014  01:59:00      -65.368      -39.804        2.385       21.697       20.785       13.045      470.747      432.000      170.170        0.347        0.054       76.533       11.495        0.023      343.268       19.258      863.957
08/07/2014  02:00:00      -58.959      -44.263       -0.511       23.748       14.585       11.444      563.955      212.711      130.972        0.317        0.045       73.725       11.237        0.023      343.266       19.257      863.952
08/07/2014  02:01:00      -16.945       -1.536        2.277       20.340       11.817       13.665      413.698      139.642      186.723        0.052        0.037       17.014        9.740        0.328      343.220       19.178      863.948
08/07/2014  02:02:00      -21.457        2.935      -11.353       10.557        7.603        8.930      111.458       57.809       79.748        0.042        0.012       21.657        7.978        0.136      343.218       19.175      863.936
08/07/2014  02:03:00      -26.363      -23.854      -10.218       14.359       32.637       10.714      206.171     1065.166      114.785        0.138        0.069       35.553        8.624        0.059      343.253       19.236      863.919
08/07/2014  02:04:00      -33.104      -19.535       -4.980       11.604       12.961        9.969      134.647      167.993       99.376        0.095        0.020       38.439        3.542        0.008      343.260       19.245      863.899
08/07/2014  02:05:00      -55.976       -9.968       -6.031       13.653       12.439       10.649      186.406      154.733      113.404        0.186        0.023       56.856        9.867        0.030      343.273       19.270      863.888
08/07/2014  02:06:00      -77.923       -6.670       -8.690       15.061       14.218       11.281      226.825      202.154      127.269        0.337        0.028       78.208        6.739        0.007      343.469       19.602      863.878
08/07/2014  02:07:00      -63.860      -11.665      -12.892       14.011       13.162        8.626      196.306      173.249       74.412        0.241        0.022       64.917        4.514        0.005      343.365       19.424      863.868
08/07/2014  02:08:00      -49.076      -25.313       -2.208       11.007       12.223        8.903      121.146      149.412       79.259        0.170        0.017       55.220        3.864        0.005      343.342       19.384      863.859
08/07/2014  02:09:00      -24.562       -9.239       -1.027       10.890       12.737        7.588      118.588      162.233       57.575        0.051        0.017       26.242        4.883        0.035      343.260       19.247      863.855
08/07/2014  02:10:00      -27.564        8.462       -5.335        6.001        5.966        4.588       36.008       35.591       21.047        0.048        0.005       28.834        2.868        0.010      343.254       19.239      863.855
08/07/2014  02:11:00      -27.350        4.263       -2.311        7.690        4.446        5.959       59.139       19.769       35.507        0.044        0.006       27.680        3.194        0.013      343.251       19.230      863.857
08/07/2014  02:12:00      -51.275      -15.648       -8.075       11.382       10.513        5.336      129.552      110.533       28.474        0.160        0.013       53.609        6.543        0.015      343.231       19.194      863.870
08/07/2014  02:13:00      -31.683      -18.192        5.860       27.916       10.197       11.255      779.328      103.969      126.680        0.119        0.050       36.534       12.894        0.125      343.131       19.027      863.876
08/07/2014  02:14:00      -11.012      -22.476        0.595       16.623        9.746        9.615      276.322       94.981       92.440        0.055        0.023       25.029        9.503        0.144      343.173       19.099      863.875
08/07/2014  02:15:00      -13.504      -33.295        2.425       20.838        9.642        9.454      434.233       92.959       89.385        0.096        0.031       35.929       10.794        0.090      343.271       19.266      863.880
08/07/2014  02:16:00       -7.884      -23.152        6.301       21.716       16.618       15.169      471.576      276.142      230.113        0.081        0.049       24.457       14.734        0.363      343.287       19.292      863.885
08/07/2014  02:17:00      -15.224      -37.724       -0.979       15.488       20.840       12.369      239.883      434.305      152.985        0.124        0.041       40.680       11.220        0.076      343.328       19.361      863.891
08/07/2014  02:18:00      -41.457      -55.482       -5.631       36.313       24.020       18.195     1318.666      576.973      331.046        0.353        0.111       69.260       17.937        0.067      343.378       19.445      863.909
08/07/2014  02:19:00       -6.737      -66.236       -6.338       38.850       23.209       21.502     1509.310      538.646      462.332        0.349        0.126       66.577       14.796        0.049      343.289       19.295      863.927
08/07/2014  02:20:00      -11.881      -18.039        4.062       19.378       15.164       11.772      375.506      229.940      138.584        0.061        0.037       21.600        7.348        0.116      343.332       19.366      863.941
08/07/2014  02:21:00      -17.075      -44.918       -5.690       29.216       25.134       16.358      853.581      631.729      267.572        0.205        0.088       48.054       10.409        0.047      343.368       19.430      863.955
08/07/2014  02:22:00      -44.031      -67.522        6.170       36.016       29.225       23.326     1297.168      854.102      544.086        0.462        0.135       80.610       19.913        0.061      343.342       19.386      863.959
08/07/2014  02:23:00      -37.654      -28.254       -3.473       31.291       20.166       22.248      979.142      406.655      494.983        0.205        0.094       47.075       19.133        0.165      343.249       19.227      863.962
08/07/2014  02:24:00      -37.602      -32.598       -6.066       21.543       11.680       10.720      464.104      136.414      114.919        0.161        0.036       49.765        5.400        0.012      343.255       19.237      863.961
08/07/2014  02:25:00       -8.090      -33.133        3.798        8.516       19.248        8.774       72.523      370.473       76.975        0.085        0.026       34.106        4.869        0.020      343.272       19.268      863.956
08/07/2014  02:26:00        5.725        2.746       13.087       20.683       19.272       13.734      427.795      371.419      188.623        0.060        0.049        6.349       12.932        4.148      343.143       19.046      863.946
08/07/2014  02:27:00       24.949       29.590        3.135       16.557       19.909       15.729      274.130      396.383      247.392        0.121        0.046       38.704       12.381        0.102      343.261       19.246      863.931
08/07/2014  02:28:00       -5.643       24.204       -0.878       10.976        8.639        4.318      120.483       74.628       18.648        0.042        0.011       24.853        4.985        0.040      343.295       19.306      863.924
08/07/2014  02:29:00      -19.163       14.803       -0.574       11.354        8.110        6.195      128.903       65.768       38.377        0.041        0.012       24.214        5.040        0.043      343.386       19.462      863.918
08/07/2014  02:30:00      -31.313        7.176       -2.071       10.075       12.573        6.496      101.501      158.091       42.196        0.067        0.015       32.125        6.118        0.036      343.236       19.205      863.918
08/07/2014  02:31:00      -46.996      -12.961       -3.094        5.865        8.025        3.855       34.392       64.400       14.864        0.125        0.006       48.751        3.344        0.005      343.143       19.047      863.913
08/07/2014  02:32:00      -23.565      -11.099        2.755       16.903        8.744        5.091      285.696       76.451       25.918        0.054        0.019       26.048        3.293        0.016      343.102       18.978      863.904
08/07/2014  02:33:00      -42.058       -6.533       -1.443        9.750        8.609        5.857       95.060       74.107       34.301        0.101        0.010       42.563        5.344        0.016      343.100       18.973      863.886
08/07/2014  02:34:00      -55.296        1.944       -7.565        9.603       11.045        8.225       92.216      122.003       67.652        0.170        0.014       55.330        5.260        0.009      343.111       18.993      863.877
08/07/2014  02:35:00      -61.136       14.101       -5.728       15.226       11.546        7.019      231.822      133.306       49.273        0.219        0.021       62.741        4.153        0.004      343.104       18.981      863.868
08/07/2014  02:36:00      -68.857       15.396       -2.640       17.272       11.674       10.042      298.326      136.289      100.837        0.276        0.027       70.557        9.198        0.017      343.117       19.003      863.855
08/07/2014  02:37:00      -45.716       20.009       -7.214        7.917        9.644        6.732       62.672       93.001       45.325        0.137        0.010       49.903        3.940        0.006      343.054       18.896      863.838
08/07/2014  02:38:00      -51.353       27.743      -10.761        6.690        8.310        4.705       44.750       69.053       22.139        0.183        0.007       58.368        3.621        0.004      343.236       19.204      863.827
08/07/2014  02:39:00      -59.829       16.190       -7.222        6.993        6.022        5.377       48.896       36.261       28.909        0.200        0.006       61.981        2.229        0.001      343.139       19.040      863.818
08/07/2014  02:40:00      -40.002       10.642      -10.683       12.059       10.113        7.016      145.415      102.266       49.223        0.106        0.015       41.394        6.789        0.027      343.131       19.028      863.802
08/07/2014  02:41:00      -20.951        6.438       -7.810       11.341       13.820        8.860      128.614      191.005       78.506        0.047        0.020       21.918        7.849        0.128      343.146       19.052      863.788
08/07/2014  02:42:00        0.024       12.240        8.767        8.372       12.975       12.725       70.089      168.339      161.917        0.031        0.020       12.240        8.869        0.525      343.106       18.984      863.778
08/07/2014  02:43:00      -15.828       -0.999       -6.758       16.996       22.835       14.019      288.878      521.455      196.540        0.065        0.050       15.859       11.016        0.482      343.004       18.811      863.766
08/07/2014  02:44:00      -16.581      -19.044        1.270       13.116       10.994        9.671      172.038      120.866       93.527        0.051        0.019       25.250        6.292        0.062      342.924       18.677      863.761
08/07/2014  02:45:00      -37.010      -19.746       -6.010       15.594       10.211        9.651      243.182      104.270       93.146        0.112        0.022       41.948        5.285        0.016      342.820       18.500      863.750
08/07/2014  02:46:00      -28.912      -27.182       -4.700       12.866        9.015        8.838      165.536       81.267       78.116        0.096        0.016       39.683        3.829        0.009      342.845       18.542      863.752
08/07/2014  02:47:00      -25.011      -13.813        0.696       15.747       11.185        9.382      247.970      125.114       88.026        0.064        0.023       28.572        8.291        0.084      342.860       18.566      863.752
08/07/2014  02:48:00      -56.942      -25.106       -4.361        9.645        9.228        7.301       93.023       85.159       53.307        0.206        0.012       62.231        3.087        0.002      342.774       18.420      863.770
08/07/2014  02:49:00      -60.423      -39.602       -3.381       14.395       12.197        7.822      207.216      148.758       61.182        0.282        0.021       72.244        1.619        0.001      342.845       18.539      863.787
08/07/2014  02:50:00      -78.112      -41.216       -2.726       19.346       11.542        8.192      374.260      133.207       67.102        0.419        0.029       88.319        8.913        0.010      342.838       18.528      863.805
08/07/2014  02:51:00      -52.562      -25.755        0.730       26.985       16.315       12.668      728.201      266.194      160.479        0.229        0.058       58.533       13.771        0.055      342.825       18.508      863.821
08/07/2014  02:52:00      -15.054      -33.744        3.382       23.000       21.785       14.621      529.000      474.584      213.782        0.130        0.061       36.950       14.433        0.153      342.873       18.587      863.838
08/07/2014  02:53:00      -32.697      -65.626       -0.142       22.869       18.351       11.819      523.010      336.753      139.685        0.319        0.050       73.320        8.980        0.015      343.013       18.825      863.850
08/07/2014  02:54:00       -1.019      -37.735       -0.155       20.311       26.694       20.450      412.516      712.559      418.200        0.148        0.077       37.749       20.091        0.283      343.032       18.857      863.862
08/07/2014  02:55:00        0.123      -27.134       -1.831       16.083       17.468       13.706      258.663      305.117      187.865        0.075        0.038       27.134       10.850        0.160      342.986       18.779      863.869
08/07/2014  02:56:00       -5.895        2.032        9.791        8.977        5.720        7.605       80.583       32.719       57.829        0.015        0.009        6.235        5.157        0.684      342.927       18.678      863.889
08/07/2014  02:57:00       -2.349       -3.400       -2.303        5.082        5.245        2.751       25.826       27.508        7.566        0.004        0.003        4.133        2.443        0.349      342.836       18.527      863.894
08/07/2014  02:58:00      -12.168      -11.875        4.165       11.032       12.828        7.886      121.699      164.554       62.194        0.033        0.017       17.002        8.989        0.280      342.932       18.687      863.890
08/07/2014  02:59:00       -3.160        0.498       -2.440        6.107        4.225        3.756       37.300       17.846       14.105        0.004        0.003        3.199        2.259        0.499      342.875       18.589      863.871
08/07/2014  03:00:00      -30.415       -8.619       -0.517       14.218       16.325        9.852      202.154      266.520       97.069        0.078        0.028       31.612        5.637        0.032      342.908       18.648      863.855
08/07/2014  03:01:00      -53.650      -35.115       -2.101       17.133       18.715       11.749      293.528      350.253      138.035        0.245        0.039       64.120        5.681        0.008      342.859       18.564      863.841
08/07/2014  03:02:00      -51.563      -27.210        3.973       28.428       15.930       15.207      808.152      253.769      231.260        0.235        0.065       58.302       17.018        0.085      342.779       18.426      863.835
08/07/2014  03:03:00      -35.342      -14.337        1.889       35.287       10.970       11.848     1245.186      120.350      140.375        0.148        0.075       38.140        3.738        0.010      342.808       18.477      863.836
08/07/2014  03:04:00      -27.733       -9.979        4.380       23.975       15.875       12.076      574.801      252.017      145.835        0.093        0.049       29.474       12.383        0.177      342.769       18.412      863.840
08/07/2014  03:05:00      -11.694       -7.473        9.266       26.252       10.035        9.389      689.167      100.698       88.153        0.058        0.044       13.878        9.219        0.441      342.743       18.366      863.837
08/07/2014  03:06:00      -29.253       -7.695        3.514       22.814        9.338        9.257      520.461       87.190       85.686        0.081        0.035       30.249       10.823        0.128      342.778       18.428      863.843
08/07/2014  03:07:00      -43.734       -9.132       -5.308       11.525       13.082        6.756      132.832      171.145       45.650        0.119        0.017       44.678        2.366        0.003      342.782       18.428      863.854
08/07/2014  03:08:00      -31.175       -6.414       -1.829       14.455        9.876        5.387      208.944       97.529       29.022        0.068        0.017       31.828        5.847        0.034      342.780       18.432      863.859
08/07/2014  03:09:00      -55.460      -10.487       -0.607       13.171        8.632        7.949      173.468       74.508       63.189        0.175        0.016       56.443        7.180        0.016      342.737       18.356      863.871
08/07/2014  03:10:00      -54.207       -8.179       -0.628       14.993       11.913        9.898      224.777      141.927       97.968        0.174        0.023       54.821        9.727        0.031      342.704       18.301      863.881
08/07/2014  03:11:00      -58.416      -18.184        0.947       12.439       11.203       10.563      154.726      125.518      111.583        0.207        0.020       61.181        7.364        0.014      342.653       18.213      863.882
08/07/2014  03:12:00      -77.825      -34.995       -2.205       11.680       11.336        7.683      136.420      128.505       59.035        0.381        0.016       85.331        4.559        0.003      342.651       18.209      863.890
08/07/2014  03:13:00      -58.046      -35.987       -3.134       21.697       19.754        8.941      470.742      390.238       79.949        0.281        0.047       68.297        8.370        0.015      342.626       18.167      863.892
08/07/2014  03:14:00      -64.908      -38.487       -3.643       12.002       17.904        9.912      144.057      320.563       98.244        0.314        0.028       75.460        4.021        0.003      342.610       18.141      863.899
08/07/2014  03:15:00      -60.778      -12.786       -3.698       16.088       18.023        9.841      258.835      324.830       96.849        0.228        0.034       62.108        6.169        0.010      342.519       17.985      863.899
08/07/2014  03:16:00      -52.706       -1.698        3.846       21.795       15.715       12.288      475.001      246.969      150.998        0.183        0.044       52.734       10.320        0.038      342.456       17.878      863.897
08/07/2014  03:17:00      -63.597        0.945       -5.759       22.444       12.625       10.771      503.754      159.393      116.017        0.243        0.039       63.604       10.133        0.025      342.494       17.943      863.905
08/07/2014  03:18:00      -42.022        1.315       -0.183       14.262       12.224        8.803      203.397      149.414       77.493        0.110        0.022       42.042        5.681        0.018      342.344       17.688      863.901
08/07/2014  03:19:00      -48.223        1.342       -1.675       13.047        8.764        9.031      170.235       76.804       81.554        0.133        0.016       48.242        7.825        0.026      342.510       17.970      863.899
08/07/2014  03:20:00      -57.676        3.227       -4.911       10.510        8.703        5.111      110.458       75.750       26.118        0.179        0.011       57.766        2.451        0.002      342.542       18.025      863.897
08/07/2014  03:21:00      -51.053       -1.434       -4.664        8.887       11.305        8.160       78.977      127.795       66.578        0.145        0.014       51.073        4.373        0.007      342.527       17.999      863.893
08/07/2014  03:22:00      -57.430       14.472       -4.402        9.159        8.574        4.569       83.882       73.514       20.874        0.185        0.009       59.226        4.259        0.005      342.437       17.847      863.894
08/07/2014  03:23:00      -44.301       -2.129       -5.047        9.225       15.137       11.460       85.109      229.117      131.323        0.122        0.022       44.352        8.180        0.034      342.413       17.806      863.895
08/07/2014  03:24:00      -40.368      -13.507       -0.879       15.352       13.381        9.585      235.689      179.049       91.866        0.116        0.025       42.567        8.218        0.037      342.372       17.735      863.902
08/07/2014  03:25:00      -70.073      -34.664      -11.263       17.986       18.050       11.649      323.511      325.802      135.697        0.351        0.039       78.179        6.941        0.008      342.294       17.603      863.919
08/07/2014  03:26:00      -74.379      -50.755       -8.743       20.193       23.381       18.088      407.777      546.658      327.179        0.473        0.064       90.046        8.645        0.009      342.215       17.469      863.932
08/07/2014  03:27:00      -71.172      -33.119        0.137       32.656       20.178       16.080     1066.413      407.170      258.571        0.395        0.087       78.501        8.386        0.011      342.153       17.363      863.948
08/07/2014  03:28:00      -51.907      -33.028        3.224       34.352       17.113        8.909     1180.035      292.859       79.372        0.267        0.078       61.524       10.209        0.028      342.264       17.552      863.954
08/07/2014  03:29:00      -40.279      -21.994        5.362       27.943       19.155       14.854      780.806      366.914      220.650        0.175        0.068       45.893       16.419        0.128      342.268       17.558      863.954
08/07/2014  03:30:00      -56.472      -31.826       -7.888       28.931       18.495       11.218      836.992      342.051      125.840        0.278        0.065       64.822        9.316        0.021      342.299       17.612      863.950
08/07/2014  03:31:00      -56.442      -34.126       -1.018       18.758       12.684        9.829      351.871      160.894       96.614        0.248        0.030       65.957        9.605        0.021      342.276       17.574      863.945
08/07/2014  03:32:00      -64.670      -34.693       -1.677       15.647       19.303       11.139      244.839      372.596      124.074        0.306        0.037       73.388        6.359        0.008      342.268       17.559      863.950
08/07/2014  03:33:00      -62.053      -27.828       -6.208       12.310       11.778        9.244      151.524      138.727       85.443        0.252        0.019       68.007        3.991        0.003      342.338       17.678      863.958
08/07/2014  03:34:00      -66.014      -27.597       -7.595       22.165       15.584       10.911      491.284      242.860      119.050        0.301        0.043       71.550        9.863        0.019      342.334       17.671      863.969
08/07/2014  03:35:00      -78.793      -29.680       -3.962       22.655       16.953        9.529      513.260      287.396       90.805        0.400        0.045       84.198        8.147        0.009      342.323       17.655      863.972
08/07/2014  03:36:00      -44.739      -31.092        0.718       17.106       13.600       13.791      292.602      184.957      190.189        0.182        0.033       54.482        9.067        0.028      342.294       17.604      863.977
08/07/2014  03:37:00      -38.263      -27.285       -5.720       11.135       11.950        7.760      123.986      142.801       60.221        0.128        0.016       46.995        6.750        0.021      342.310       17.630      863.975
08/07/2014  03:38:00      -14.035      -19.947       -8.238       14.388        8.930        5.817      207.013       79.737       33.840        0.049        0.016       24.390        4.092        0.028      342.378       17.744      863.979
08/07/2014  03:39:00       -8.359      -38.897       -6.250       14.939       26.789        8.784      223.175      717.675       77.161        0.132        0.051       39.785       10.959        0.076      342.499       17.949      863.989
08/07/2014  03:40:00      -18.584      -41.720       -7.616       18.114       21.395       10.926      328.103      457.734      119.375        0.152        0.045       45.672        7.452        0.027      342.516       17.981      863.998
08/07/2014  03:41:00       -2.016      -27.128       -0.939       25.606       17.405       10.089      655.657      302.945      101.779        0.090        0.053       27.202       11.488        0.178      342.450       17.867      864.011
08/07/2014  03:42:00      -26.854      -25.536        6.865       32.034       20.061       13.618     1026.179      402.425      185.447        0.152        0.081       37.057        7.903        0.045      342.446       17.860      864.029
08/07/2014  03:43:00      -53.247      -33.477        1.778       49.005       23.058       17.051     2401.514      531.670      290.742        0.359        0.161       62.896       15.560        0.061      342.413       17.806      864.034
08/07/2014  03:44:00      -69.229      -64.363       -0.619       40.588       31.773       22.836     1647.351     1009.495      521.476        0.606        0.159       94.526       20.449        0.047      342.408       17.796      864.029
08/07/2014  03:45:00      -69.234      -57.978        3.527       46.595       25.465       20.436     2171.096      648.455      417.645        0.570        0.162       90.304       17.521        0.038      342.282       17.582      864.019
08/07/2014  03:46:00      -91.095      -71.963        1.598       29.421       35.828       22.269      865.604     1283.669      495.920        0.806        0.132      116.091       18.891        0.026      342.268       17.559      864.018
08/07/2014  03:47:00     -103.116      -62.761       -2.952       44.578       34.107       20.142     1987.211     1163.271      405.691        0.907        0.178      120.714       20.133        0.028      342.248       17.525      864.009
08/07/2014  03:48:00     -114.855      -54.265       -5.812       30.581       23.567       17.350      935.204      555.423      301.009        0.898        0.090      127.029       11.771        0.009      342.215       17.468      863.997
08/07/2014  03:49:00     -106.250      -20.793       -3.284       34.789       33.624       20.356     1210.287     1130.596      414.382        0.724        0.138      108.266       17.101        0.025      342.125       17.316      863.983
08/07/2014  03:50:00      -88.136       -6.699        3.996       42.840       32.412       20.384     1835.261     1050.537      415.510        0.556        0.165       88.391       20.722        0.055      342.018       17.135      863.990
08/07/2014  03:51:00     -107.888      -25.341        3.153       45.555       31.713       19.463     2075.253     1005.719      378.821        0.788        0.173      110.824       16.737        0.023      342.064       17.213      864.004
08/07/2014  03:52:00     -125.370      -26.473        2.547       34.598       28.641       15.770     1197.031      820.299      248.683        0.934        0.113      128.134       19.185        0.022      342.045       17.181      864.021
08/07/2014  03:53:00     -115.085      -35.224        2.400       31.734       31.499       17.661     1007.038      992.217      311.926        0.840        0.116      120.355       14.488        0.014      342.039       17.168      864.036
08/07/2014  03:54:00      -91.985      -68.328        1.890       28.828       25.774       17.701      831.029      664.317      313.311        0.747        0.090      114.586       14.782        0.017      342.119       17.307      864.049
08/07/2014  03:55:00      -49.558      -47.182        5.006       44.373       32.711       21.340     1968.989     1070.006      455.396        0.410        0.175       68.426       22.987        0.113      342.157       17.370      864.064
08/07/2014  03:56:00      -69.161      -98.396       -5.077       31.001       49.183       23.068      961.059     2418.945      532.153        0.920        0.196      120.270       24.672        0.042      342.211       17.462      864.088
08/07/2014  03:57:00      -51.987      -60.651        2.804       36.253       28.603       20.567     1314.296      818.104      423.013        0.447        0.128       79.882       16.251        0.041      342.237       17.504      864.104
08/07/2014  03:58:00      -76.397      -94.445       -6.432       32.084       41.132       21.577     1029.354     1691.882      465.550        0.899        0.159      121.476       12.467        0.011      342.188       17.426      864.107
08/07/2014  03:59:00      -79.925      -82.042       -5.752       30.098       24.495       21.688      905.902      600.029      470.359        0.756        0.099      114.538       14.128        0.015      342.193       17.430      864.110
08/07/2014  04:00:00     -112.734      -62.062       -3.872       16.304       22.769       14.099      265.806      518.444      198.779        0.878        0.049      128.688       12.160        0.009      342.158       17.368      864.111
08/07/2014  04:01:00     -103.416      -66.167       -0.362       32.214       21.410       16.415     1037.715      458.385      269.468        0.842        0.088      122.772       15.882        0.017      342.120       17.306      864.107
08/07/2014  04:02:00      -95.580      -40.024        2.136       39.617       23.076       18.550     1569.534      532.516      344.094        0.659        0.122      103.622       15.261        0.022      342.095       17.265      864.087
08/07/2014  04:03:00     -104.669      -51.351        3.023       37.639       26.845       19.672     1416.686      720.641      386.969        0.806        0.126      116.587       21.012        0.032      342.107       17.285      864.080
08/07/2014  04:04:00     -119.467      -64.431       -3.655       38.715       23.186       14.591     1498.818      537.605      212.894        1.034        0.112      135.734       11.126        0.007      342.131       17.327      864.072
08/07/2014  04:05:00     -134.487      -53.857        0.588       30.952       24.885       16.774      958.040      619.268      281.359        1.142        0.093      144.871       12.599        0.008      342.132       17.328      864.062
08/07/2014  04:06:00     -121.195      -35.169        3.606       51.341       30.467       21.265     2635.886      928.220      452.200        0.998        0.201      126.195       27.973        0.049      342.074       17.230      864.050
08/07/2014  04:07:00     -125.970      -28.835       -1.282       34.791       31.381       22.501     1210.430      984.753      506.298        0.970        0.135      129.228       18.937        0.021      342.041       17.173      864.034
08/07/2014  04:08:00     -158.598      -44.155       -4.092       37.103       35.786       21.282     1376.647     1280.672      452.924        1.511        0.156      164.630       20.165        0.015      341.977       17.065      864.011
08/07/2014  04:09:00     -158.084      -38.399        1.399       44.143       37.385       24.368     1948.576     1397.647      593.805        1.520        0.197      162.680       26.907        0.027      341.920       16.967      864.009
08/07/2014  04:10:00     -152.639      -59.156       -1.060       48.534       41.407       24.633     2355.579     1714.517      606.791        1.574        0.234      163.701       21.636        0.017      341.930       16.985      864.008
08/07/2014  04:11:00     -134.498      -24.492        2.313       66.135       43.205       28.505     4373.894     1866.639      812.533        1.287        0.353      136.710       30.346        0.049      341.948       17.015      863.995
08/07/2014  04:12:00     -131.819      -24.031        7.975       69.021       45.491       34.341     4763.880     2069.402     1179.323        1.301        0.401      133.992       38.576        0.083      341.960       17.035      863.982
08/07/2014  04:13:00     -150.153      -32.364        4.989       59.462       40.992       27.548     3535.751     1680.376      758.896        1.480        0.299      153.601       30.215        0.039      342.009       17.118      863.977
08/07/2014  04:14:00     -113.332      -54.034        3.687       41.265       39.072       23.735     1702.779     1526.594      563.341        0.978        0.190      125.554       17.836        0.020      342.001       17.105      863.992
08/07/2014  04:15:00     -107.562      -54.510        1.036       48.031       31.979       25.822     2306.929     1022.633      666.783        0.927        0.200      120.586       24.858        0.042      342.025       17.146      863.998
08/07/2014  04:16:00      -75.788      -50.400       -0.685       31.800       26.530       15.172     1011.271      703.858      230.201        0.511        0.097       91.016       13.058        0.021      342.011       17.123      863.994
08/07/2014  04:17:00     -103.258      -70.745       -0.212       33.575       24.402       24.486     1127.265      595.448      599.562        0.899        0.116      125.168       20.308        0.026      342.005       17.111      864.010
08/07/2014  04:18:00     -118.068      -28.832       -1.198       34.550       27.150       21.713     1193.704      737.121      471.462        0.859        0.120      121.537       15.957        0.017      342.038       17.168      864.010
08/07/2014  04:19:00     -108.746      -23.401        3.070       34.144       31.294       19.200     1165.815      979.329      368.626        0.745        0.126      111.236       19.321        0.030      342.037       17.166      864.002
08/07/2014  04:20:00     -124.556      -46.265       -0.915       41.463       28.085       17.893     1719.142      788.794      320.163        1.024        0.141      132.871       18.060        0.018      342.054       17.195      863.984
08/07/2014  04:21:00     -130.192      -65.772       -6.669       30.621       25.308       21.577      937.627      640.509      465.588        1.168        0.102      145.863       15.705        0.012      342.000       17.103      863.977
08/07/2014  04:22:00     -125.144      -54.192        1.220       55.666       31.403       25.194     3098.682      986.157      634.748        1.166        0.236      136.373       29.532        0.047      342.023       17.143      863.988
08/07/2014  04:23:00     -118.945      -49.317       -0.954       29.260       29.224       18.756      856.128      854.063      351.803        0.932        0.103      128.763       13.481        0.011      342.013       17.125      863.982
08/07/2014  04:24:00     -119.160      -57.489        4.564       39.802       26.986       22.918     1584.225      728.247      525.242        1.018        0.142      132.303       23.665        0.032      342.065       17.214      863.971
08/07/2014  04:25:00     -127.535      -69.919        0.689       47.779       36.003       22.588     2282.878     1296.205      510.210        1.262        0.204      145.444       25.799        0.031      342.103       17.280      863.967
08/07/2014  04:26:00     -135.027      -52.067       -2.500       25.348       28.319       17.040      642.522      801.952      290.351        1.134        0.087      144.718       11.994        0.007      342.078       17.236      863.965
08/07/2014  04:27:00     -145.309      -39.248       -2.070       33.355       33.161       19.926     1112.584     1099.669      397.038        1.263        0.130      150.516       15.033        0.010      342.040       17.171      863.977
08/07/2014  04:28:00     -140.029      -43.683        3.895       48.821       36.115       24.056     2383.441     1304.264      578.686        1.290        0.213      146.684       24.817        0.029      342.135       17.331      863.974
08/07/2014  04:29:00     -119.714      -40.589        1.008       50.190       42.351       23.536     2519.010     1793.630      553.953        1.042        0.243      126.408       21.311        0.028      342.144       17.348      863.971
08/07/2014  04:30:00     -110.358      -37.945        3.114       46.808       31.536       21.236     2190.952      994.510      450.970        0.863        0.182      116.700       20.781        0.032      342.092       17.260      863.970
08/07/2014  04:31:00     -109.853      -57.623       -4.175       47.995       31.235       16.859     2303.536      975.628      284.215        0.948        0.178      124.049       21.655        0.030      342.186       17.420      863.970
08/07/2014  04:32:00      -92.021      -46.661       -0.645       30.049       34.103       16.372      902.956     1163.005      268.030        0.649        0.117      103.175       12.977        0.016      342.187       17.421      863.975
08/07/2014  04:33:00     -104.904      -57.310       -0.422       49.557       32.986       26.475     2455.858     1088.067      700.913        0.927        0.212      119.538       30.801        0.066      342.194       17.433      863.976
08/07/2014  04:34:00     -127.735      -84.808        4.513       53.515       29.874       21.883     2863.899      892.482      478.850        1.388        0.212      153.325       22.540        0.022      342.242       17.514      863.978
08/07/2014  04:35:00      -82.689      -38.184       -1.162       50.161       32.171       20.391     2516.111     1034.979      415.782        0.613        0.198       91.079       21.728        0.057      342.184       17.415      863.978
08/07/2014  04:36:00      -42.137      -33.983        7.865       45.449       33.177       22.137     2065.632     1100.714      490.030        0.332        0.183       54.133       26.858        0.246      342.172       17.396      863.985
08/07/2014  04:37:00      -87.986      -27.356       -2.477       39.834       29.045       21.084     1586.787      843.601      444.521        0.568        0.144       92.141       19.065        0.043      342.102       17.275      863.985
08/07/2014  04:38:00      -96.031      -36.975       -1.446       36.056       32.417       20.108     1300.051     1050.875      404.339        0.667        0.138      102.904       22.051        0.046      342.026       17.148      863.996
08/07/2014  04:39:00      -90.127      -20.071       -2.663       20.791       19.490       15.701      432.280      379.865      246.533        0.480        0.053       92.335       11.087        0.014      341.949       17.016      864.001
08/07/2014  04:40:00      -67.852      -20.198       -1.479       22.709       22.493       13.087      515.705      505.917      171.262        0.310        0.060       70.795       10.859        0.024      341.889       16.915      863.997
08/07/2014  04:41:00      -54.747      -21.290       -0.573       24.816       16.048       12.817      615.825      257.535      164.266        0.224        0.052       58.741       13.257        0.051      341.922       16.972      863.995
08/07/2014  04:42:00      -75.370       -7.923       -9.242       28.667       15.283       14.986      821.792      233.573      224.567        0.355        0.064       75.786       17.415        0.053      342.003       17.109      863.994
08/07/2014  04:43:00      -76.514      -21.933       -3.267       18.950       19.065       11.741      359.107      363.484      137.847        0.360        0.043       79.596       10.141        0.016      341.948       17.016      863.996
08/07/2014  04:44:00      -78.671      -29.473       -8.964       21.613       22.567       13.866      467.104      509.265      192.273        0.415        0.058       84.011       11.814        0.020      341.895       16.925      863.997
08/07/2014  04:45:00     -104.838      -10.063       -4.046       28.385       23.595       19.381      805.683      556.744      375.635        0.642        0.087      105.320       17.820        0.029      341.907       16.946      864.000
08/07/2014  04:46:00      -95.779        0.980       -2.953       43.869       18.386       16.445     1924.501      338.054      270.427        0.586        0.127       95.784       23.193        0.059      341.878       16.897      863.995
08/07/2014  04:47:00      -58.623      -27.396        0.781       37.359       28.010       20.595     1395.678      784.539      424.169        0.340        0.130       64.709       21.772        0.113      341.880       16.900      863.990
08/07/2014  04:48:00      -78.387      -39.681        2.525       29.058       22.370       14.872      844.383      500.436      221.178        0.465        0.078       87.859       12.759        0.021      341.850       16.848      863.988
08/07/2014  04:49:00      -96.859      -24.378       -6.141       23.727       24.830       14.915      562.983      616.516      222.472        0.571        0.070       99.880       10.234        0.010      341.792       16.752      863.983
08/07/2014  04:50:00      -69.022      -27.279       -0.875       32.649       26.043       15.641     1065.979      678.241      244.652        0.375        0.099       74.218       17.352        0.055      341.778       16.727      863.978
08/07/2014  04:51:00      -92.678      -41.517       -2.378       21.919       20.275       12.593      480.447      411.092      158.573        0.568        0.053      101.552        7.058        0.005      341.887       16.912      863.978
08/07/2014  04:52:00      -99.114      -36.798       -3.972       28.576       26.743       15.426      816.609      715.172      237.961        0.648        0.088      105.724       13.761        0.017      341.956       17.029      863.980
08/07/2014  04:53:00      -49.292      -37.206       -0.598       26.505       29.858       12.888      702.505      891.488      166.096        0.279        0.088       61.757       13.557        0.048      341.928       16.980      863.983
08/07/2014  04:54:00      -61.464      -46.706        4.425       38.405       28.382       21.643     1474.938      805.529      468.404        0.436        0.137       77.197       20.524        0.071      342.004       17.112      863.976
08/07/2014  04:55:00      -43.900      -85.391       -1.176       42.758       35.039       28.634     1828.254     1227.720      819.919        0.655        0.194       96.014       22.484        0.055      342.085       17.247      863.973
08/07/2014  04:56:00      -65.454     -158.545       -3.537       43.302       69.509       27.841     1875.025     4831.546      775.134        1.846        0.374      171.525       27.733        0.026      342.101       17.273      863.971
08/07/2014  04:57:00     -121.574     -115.853       -3.358       61.450       42.497       32.098     3776.087     1806.013     1030.303        1.741        0.331      167.935       27.822        0.027      342.048       17.183      863.954
08/07/2014  04:58:00      -82.217      -99.697       -3.566       62.811       40.095       33.789     3945.221     1607.639     1141.696        1.170        0.335      129.225       30.029        0.054      341.988       17.082      863.948
08/07/2014  04:59:00     -105.905      -89.624       -5.995       37.168       52.839       27.515     1381.424     2791.996      757.066        1.211        0.247      138.738       26.557        0.037      341.926       16.976      863.953
08/07/2014  05:00:00     -110.524      -82.969       -5.387       49.626       53.005       27.144     2462.743     2809.504      736.820        1.257        0.300      138.201       17.145        0.015      341.908       16.947      863.955
08/07/2014  05:01:00     -134.586      -90.835      -11.018       66.221       44.613       25.457     4385.247     1990.307      648.058        1.675        0.351      162.371       28.794        0.031      341.956       17.028      863.961
08/07/2014  05:02:00     -100.353      -50.682       -3.029       37.182       31.037       20.666     1382.510      963.292      427.076        0.771        0.139      112.425       14.740        0.017      341.959       17.034      863.967
08/07/2014  05:03:00     -109.071      -22.811        1.643       54.659       37.811       28.957     2987.646     1429.682      838.513        0.884        0.263      111.430       31.955        0.082      341.901       16.935      863.970
08/07/2014  05:04:00     -112.484        7.975       -3.439       54.034       38.597       21.985     2919.649     1489.713      483.357        0.881        0.245      112.766       23.896        0.045      341.734       16.653      863.978
08/07/2014  05:05:00     -112.169      -10.022       -1.618       58.331       35.434       27.855     3402.458     1255.598      775.918        0.906        0.272      112.616       29.778        0.070      341.635       16.485      863.983
08/07/2014  05:06:00     -110.370      -28.104       -5.320       42.562       37.755       23.345     1811.556     1425.465      544.995        0.839        0.189      113.892       25.761        0.051      341.625       16.467      863.993
08/07/2014  05:07:00      -92.203      -39.189      -12.516       28.386       21.826       16.033      805.781      476.359      257.049        0.587        0.077      100.186       13.471        0.018      341.664       16.532      864.000
08/07/2014  05:08:00      -90.863      -45.383       -6.160       23.352       21.666       13.861      545.321      469.431      192.131        0.578        0.060      101.567        6.539        0.004      341.619       16.456      864.001
08/07/2014  05:09:00     -118.345      -31.777       -4.931       26.433       27.604       17.656      698.692      761.973      311.745        0.841        0.089      122.537       16.666        0.018      341.627       16.472      864.001
08/07/2014  05:10:00     -105.933      -44.480       -3.978       28.013       36.751       20.346      784.715     1350.637      413.973        0.788        0.127      114.892       15.705        0.019      341.636       16.487      864.010
08/07/2014  05:11:00     -132.091      -42.030       -8.791       24.615       19.668       18.829      605.878      386.850      354.539        1.032        0.067      138.616       13.177        0.009      341.668       16.540      864.019
08/07/2014  05:12:00     -106.673      -24.854       -1.029       42.855       26.921       21.662     1836.582      724.751      469.232        0.751        0.152      109.530       23.755        0.047      341.647       16.505      864.019
08/07/2014  05:13:00      -99.335      -43.483        0.688       32.170       26.797       19.185     1034.879      718.074      368.049        0.694        0.106      108.436       18.153        0.028      341.642       16.495      864.011
08/07/2014  05:14:00      -97.560      -24.340       -4.979       33.282       25.370       18.997     1107.723      643.631      360.902        0.612        0.106      100.550       14.877        0.022      341.645       16.503      864.009
08/07/2014  05:15:00      -79.620      -35.771       -6.215       33.197       20.621       16.642     1102.037      425.226      276.948        0.473        0.090       87.287       16.104        0.034      341.660       16.527      864.002
08/07/2014  05:16:00      -93.860      -18.727       -4.860       27.949       16.076       13.861      781.122      258.428      192.119        0.521        0.062       95.710       12.794        0.018      341.720       16.629      863.993
08/07/2014  05:17:00      -69.841      -44.060       -1.768       16.941       19.008       12.315      286.994      361.291      151.652        0.381        0.040       82.577        8.837        0.011      341.713       16.616      863.989
08/07/2014  05:18:00      -55.919      -38.063        1.464       17.954       16.233       12.583      322.348      263.497      158.341        0.266        0.037       67.645        6.719        0.010      341.807       16.776      863.981
08/07/2014  05:19:00      -32.821      -27.467        0.328       15.101       15.494        8.496      228.054      240.057       72.187        0.119        0.027       42.798        5.966        0.019      341.851       16.849      863.968
08/07/2014  05:20:00      -31.510      -27.748        3.358       26.632       11.989       12.668      709.261      143.739      160.475        0.139        0.051       41.987       15.259        0.132      341.885       16.907      863.960
08/07/2014  05:21:00      -53.446      -39.875       -2.787       10.671       11.329        9.527      113.869      128.343       90.771        0.239        0.017       66.682        2.198        0.001      341.843       16.836      863.956
08/07/2014  05:22:00      -20.323      -34.092        4.818       23.932       12.333       11.672      572.733      152.096      136.245        0.123        0.043       39.690        9.975        0.063      341.896       16.926      863.956
08/07/2014  05:23:00      -27.716      -25.144       -5.594       24.526       12.748       11.888      601.547      162.504      141.335        0.117        0.045       37.422        5.268        0.020      341.877       16.895      863.971
08/07/2014  05:24:00      -61.448      -42.623       -2.690       30.514       22.936       13.615      931.107      526.076      185.376        0.362        0.082       74.783        8.520        0.013      341.832       16.819      863.990
08/07/2014  05:25:00      -82.588      -25.133       -0.522       28.987       25.617       14.617      840.221      656.215      213.649        0.458        0.086       86.327       14.502        0.028      341.772       16.717      863.997
08/07/2014  05:26:00      -78.371      -21.662       -1.892       25.787       20.930       16.812      664.981      438.083      282.635        0.400        0.069       81.310       12.851        0.025      341.692       16.582      864.018
08/07/2014  05:27:00      -98.751       -7.051       -1.839       42.494       25.558       20.645     1805.772      653.227      426.214        0.634        0.144       99.003       24.102        0.059      341.511       16.275      864.037
08/07/2014  05:28:00      -82.505      -18.560       -2.112       41.578       30.736       20.707     1728.707      944.693      428.785        0.513        0.155       84.566       22.808        0.073      341.543       16.328      864.050
08/07/2014  05:29:00      -60.396       -8.407        2.300       38.011       23.292       21.853     1444.804      542.521      477.549        0.309        0.123       60.979       22.961        0.142      341.555       16.348      864.064
08/07/2014  05:30:00      -57.513      -17.993       -2.944       19.175       17.575       12.298      367.685      308.889      151.231        0.223        0.041       60.262       10.374        0.030      341.572       16.378      864.073
08/07/2014  05:31:00      -53.693      -19.384        1.664       32.912       19.285       15.691     1083.210      371.925      246.217        0.248        0.085       57.085       13.160        0.053      341.616       16.450      864.078
08/07/2014  05:32:00      -79.369      -37.844        2.647       42.085       27.870       19.632     1771.142      776.764      385.404        0.534        0.147       87.929       24.323        0.077      341.649       16.509      864.077
08/07/2014  05:33:00      -82.655      -31.078       -2.610       33.986       30.264       15.506     1155.048      915.930      240.436        0.506        0.116       88.305       17.369        0.039      341.570       16.377      864.087
08/07/2014  05:34:00      -84.690      -18.761        5.492       44.767       24.930       17.616     2004.121      621.499      310.320        0.524        0.147       86.743       17.436        0.040      341.537       16.320      864.087
08/07/2014  05:35:00      -66.507      -23.728        1.242       36.587       35.451       17.618     1338.642     1256.782      310.381        0.395        0.145       70.613       18.880        0.071      341.543       16.328      864.099
08/07/2014  05:36:00      -78.741       -4.130       -0.091       49.101       23.848       19.162     2410.900      568.706      367.195        0.478        0.167       78.849       23.538        0.089      341.506       16.264      864.100
08/07/2014  05:37:00      -99.440       -9.854       -0.532       41.951       30.416       16.607     1759.852      925.116      275.777        0.647        0.148       99.927       17.388        0.030      341.493       16.242      864.105
08/07/2014  05:38:00      -59.083       -9.845       -1.680       37.046       22.682       17.349     1372.377      514.464      300.983        0.289        0.109       59.898       13.527        0.051      341.438       16.149      864.095
08/07/2014  05:39:00      -11.216       -9.837        2.136       19.628        9.904       10.059      385.250       98.091      101.175        0.041        0.029       14.919        8.185        0.301      341.517       16.283      864.087
08/07/2014  05:40:00       -8.075        3.578        0.851        9.333       10.442        5.956       87.106      109.030       35.477        0.016        0.012        8.832        5.706        0.417      341.630       16.477      864.085
08/07/2014  05:41:00        6.350       22.938        1.479       10.815       17.677       10.358      116.965      312.467      107.281        0.055        0.027       23.801       10.230        0.185      341.757       16.692      864.082
08/07/2014  05:42:00       40.047       27.321       -0.384       10.288       23.157        5.912      105.837      536.258       34.957        0.151        0.034       48.479        4.628        0.009      341.957       17.033      864.071
08/07/2014  05:43:00       28.938       26.168       19.938       16.850       17.274       13.439      283.927      298.385      180.620        0.134        0.038       39.015       11.539        0.087      341.863       16.871      864.074
08/07/2014  05:44:00       12.592        2.292        5.307       13.108       13.775       10.259      171.816      189.742      105.246        0.033        0.023       12.799        4.114        0.103      341.807       16.775      864.066
08/07/2014  05:45:00        1.205      -29.878       -2.430       11.034       11.636        9.092      121.747      135.388       82.666        0.062        0.017       29.902        7.736        0.067      341.800       16.764      864.071
08/07/2014  05:46:00        1.896      -21.842        5.532       11.497       11.575       12.413      132.179      133.979      154.074        0.047        0.021       21.924        5.110        0.054      341.747       16.675      864.071
08/07/2014  05:47:00       -5.482      -41.028       -2.480       21.932       14.035       10.969      480.995      196.979      120.330        0.126        0.040       41.393        8.680        0.044      341.720       16.628      864.066
08/07/2014  05:48:00      -41.137      -18.170       -5.351       10.853        6.002        6.291      117.792       36.029       39.574        0.112        0.010       44.971        5.306        0.014      341.643       16.498      864.067
08/07/2014  05:49:00      -25.842      -16.909        5.185       31.364       11.487       12.107      983.716      131.956      146.590        0.112        0.063       30.883       14.291        0.214      341.571       16.378      864.069
08/07/2014  05:50:00      -20.199      -29.611        4.639       24.970       19.241       11.895      623.510      370.203      141.488        0.122        0.057       35.844       11.468        0.102      341.548       16.336      864.071
08/07/2014  05:51:00      -45.682      -41.476        1.040       23.669       16.366       14.096      560.212      267.838      198.690        0.242        0.051       61.702       12.515        0.041      341.559       16.356      864.085
08/07/2014  05:52:00      -88.054      -52.644        0.278       35.889       19.826       18.351     1288.031      393.076      336.777        0.627        0.101      102.591       18.265        0.032      341.564       16.366      864.085
08/07/2014  05:53:00      -90.986      -72.135       -6.357       18.198       30.835       11.603      331.154      950.798      134.628        0.747        0.071      116.112       12.200        0.011      341.585       16.401      864.078
08/07/2014  05:54:00      -79.123      -61.592       -4.935       21.340       23.266       12.706      455.411      541.298      161.441        0.562        0.058      100.270        5.047        0.003      341.592       16.412      864.075
08/07/2014  05:55:00      -83.818      -55.875       -6.723       17.265       21.345       11.485      298.089      455.623      131.899        0.554        0.044      100.734        7.692        0.006      341.569       16.375      864.067
08/07/2014  05:56:00      -26.700      -28.655       -1.095       28.738       18.880       15.307      825.870      356.461      234.316        0.148        0.071       39.167       13.423        0.117      341.507       16.266      864.069
08/07/2014  05:57:00      -59.242      -47.483        1.304       41.919       23.199       20.255     1757.180      538.206      410.257        0.424        0.135       75.923       14.912        0.039      341.511       16.273      864.065
08/07/2014  05:58:00     -106.651      -37.669       -1.121       32.899       22.380       16.256     1082.331      500.863      264.246        0.732        0.092      113.108       17.793        0.025      341.453       16.176      864.075
08/07/2014  05:59:00     -100.068      -30.467       -1.085       36.649       27.142       19.727     1343.158      736.707      389.149        0.671        0.123      104.603       17.969        0.030      341.424       16.127      864.085
08/07/2014  06:00:00     -104.559      -35.882       -2.269       35.825       30.180       14.844     1283.465      910.846      220.335        0.732        0.121      110.545       15.911        0.021      341.453       16.174      864.104
08/07/2014  06:01:00      -98.263      -18.461       -1.174       34.449       27.802       20.551     1186.733      772.975      422.346        0.619        0.119       99.983       19.067        0.036      341.471       16.206      864.122
08/07/2014  06:02:00      -55.136      -40.112       -1.667       25.032       31.253       15.481      626.587      976.772      239.668        0.325        0.092       68.184       10.367        0.023      341.522       16.293      864.146
08/07/2014  06:03:00      -35.050      -32.566       -8.367       25.336       18.585       10.620      641.909      345.414      112.791        0.173        0.055       47.844        5.181        0.012      341.551       16.340      864.165
08/07/2014  06:04:00       -5.998      -37.048       -1.901       10.946       17.327       13.909      119.813      300.233      193.460        0.101        0.031       37.530        7.939        0.045      341.649       16.508      864.177
08/07/2014  06:05:00      -13.692      -47.988       -1.313       15.495       14.355       11.029      240.108      206.068      121.631        0.153        0.028       49.903        4.217        0.007      341.668       16.542      864.188
08/07/2014  06:06:00      -22.830      -40.000        5.738       33.961       15.828       16.082     1153.338      250.539      258.633        0.191        0.083       46.056       10.954        0.057      341.666       16.537      864.191
08/07/2014  06:07:00      -51.750      -43.846        2.172       33.561       27.529       20.583     1126.318      757.869      423.655        0.346        0.115       67.827       16.964        0.063      341.586       16.399      864.180
08/07/2014  06:08:00      -64.667      -40.943        5.057       42.295       28.211       25.260     1788.844      795.880      638.048        0.455        0.161       76.538       19.160        0.063      341.535       16.313      864.175
08/07/2014  06:09:00      -85.774      -84.017       -5.040       34.570       36.310       19.733     1195.088     1318.393      389.406        0.867        0.145      120.067        8.867        0.005      341.567       16.369      864.177
08/07/2014  06:10:00      -96.728      -70.841       -2.380       28.893       26.975       18.401      834.803      727.676      338.594        0.814        0.095      119.895       15.344        0.016      341.574       16.380      864.180
08/07/2014  06:11:00      -77.189      -33.413       -9.395       20.659       16.358       12.737      426.792      267.581      162.228        0.401        0.043       84.110       11.690        0.019      341.566       16.369      864.203
08/07/2014  06:12:00      -48.289      -47.735       -2.105       29.695       32.633       14.012      881.780     1064.925      196.348        0.338        0.107       67.901       15.801        0.054      341.609       16.440      864.210
08/07/2014  06:13:00      -46.030      -40.815        2.122       36.682       18.055       13.929     1345.557      325.998      194.024        0.283        0.093       61.519       10.675        0.030      341.652       16.512      864.225
08/07/2014  06:14:00      -37.120      -63.021       -2.623       17.010       20.287       12.929      289.330      411.542      167.163        0.311        0.043       73.140       11.018        0.023      341.702       16.597      864.236
08/07/2014  06:15:00      -23.827      -32.933        2.501       19.828       20.516       12.120      393.138      420.908      146.902        0.131        0.048       40.648       10.782        0.070      341.740       16.664      864.245
08/07/2014  06:16:00      -23.457      -13.787        4.061       19.563        9.190       10.350      382.696       84.455      107.122        0.067        0.029       27.208       12.115        0.198      341.700       16.596      864.254
08/07/2014  06:17:00      -40.506      -27.691        1.979       12.976       13.877       10.252      168.378      192.572      105.106        0.144        0.023       49.066        8.157        0.028      341.724       16.636      864.257
08/07/2014  06:18:00      -38.348      -17.033       -0.658       15.824       11.003       10.177      250.410      121.062      103.580        0.112        0.024       41.960        7.542        0.032      341.715       16.621      864.252
08/07/2014  06:19:00      -37.478      -18.921       -1.117       18.605        9.429        5.741      346.149       88.897       32.958        0.112        0.023       41.983        5.027        0.014      341.719       16.627      864.245
08/07/2014  06:20:00      -51.359      -33.257        0.623       15.790       11.810        6.889      249.325      139.472       47.461        0.209        0.022       61.187        5.991        0.010      341.728       16.645      864.241
08/07/2014  06:21:00       -1.941      -18.065        3.521       13.045       11.704        6.315      170.171      136.986       39.880        0.034        0.017       18.169        3.957        0.047      341.693       16.583      864.236
08/07/2014  06:22:00      -37.848      -23.227        1.109       13.602        8.106        8.821      185.016       65.700       77.807        0.115        0.016       44.406        5.714        0.017      341.659       16.524      864.235
08/07/2014  06:23:00      -38.176      -18.436        3.871       19.661        9.409       10.296      386.543       88.528      106.014        0.120        0.029       42.395       11.065        0.068      341.638       16.489      864.239
08/07/2014  06:24:00      -63.622      -16.236       -9.802       12.828        9.533        9.810      164.568       90.883       96.236        0.238        0.018       65.661        4.015        0.004      341.666       16.536      864.234
08/07/2014  06:25:00      -35.487      -19.977        0.981       25.804       10.995       11.580      665.832      120.889      134.096        0.129        0.046       40.724       15.430        0.144      341.626       16.470      864.227
08/07/2014  06:26:00      -34.452      -20.624        0.019       15.734       11.052       11.856      247.558      122.143      140.565        0.106        0.026       40.153       10.368        0.067      341.606       16.434      864.220
08/07/2014  06:27:00      -43.150      -15.327       -4.924        8.976       11.774        7.061       80.560      138.624       49.853        0.119        0.013       45.791        5.612        0.015      341.680       16.561      864.215
08/07/2014  06:28:00      -48.171       -8.228        0.104        8.152       10.679        7.250       66.455      114.049       52.563        0.131        0.012       48.868        3.480        0.005      341.604       16.434      864.208
08/07/2014  06:29:00      -47.296      -10.379       -3.276       14.691       13.484        7.701      215.812      181.829       59.304        0.141        0.023       48.421        7.105        0.022      341.602       16.431      864.207
08/07/2014  06:30:00      -57.032        0.098        0.018       15.490        9.489        9.694      239.948       90.037       93.982        0.184        0.021       57.032        8.041        0.020      341.558       16.355      864.202
08/07/2014  06:31:00      -91.086       -0.868       -8.862       11.700        9.394       10.745      136.879       88.247      115.462        0.436        0.017       91.090        5.333        0.003      341.480       16.222      864.212
08/07/2014  06:32:00      -88.423       -9.635       -8.639       19.768       14.236       10.834      390.768      202.669      117.383        0.435        0.036       88.947        7.752        0.008      341.453       16.176      864.216
08/07/2014  06:33:00      -77.713      -21.846       -6.590       17.019       15.065       12.107      289.658      226.952      146.575        0.361        0.033       80.726        9.099        0.013      341.512       16.275      864.223
08/07/2014  06:34:00      -77.709      -37.573       -1.812       22.895       19.728       12.423      524.169      389.179      154.338        0.426        0.053       86.316       10.647        0.015      341.495       16.246      864.230
08/07/2014  06:35:00      -63.949      -40.585        3.387       40.591       23.239       19.117     1647.639      540.045      365.449        0.415        0.128       75.741       19.671        0.067      341.620       16.459      864.242
08/07/2014  06:36:00      -90.809      -50.135        5.832       36.303       28.553       19.504     1317.888      815.273      380.425        0.665        0.126      103.729       20.187        0.038      341.606       16.437      864.256
08/07/2014  06:37:00      -30.503      -44.367        5.145       37.539       21.951       17.150     1409.187      481.848      294.123        0.255        0.109       53.842       15.685        0.085      341.646       16.503      864.266
08/07/2014  06:38:00      -27.067      -55.426       -1.939       25.577       24.623       14.105      654.165      606.303      198.961        0.263        0.073       61.682       12.819        0.043      341.707       16.608      864.272
08/07/2014  06:39:00       -9.997      -52.042       -5.628       24.576       21.553       18.305      603.982      464.526      335.055        0.212        0.070       52.994       10.951        0.043      341.753       16.685      864.279
08/07/2014  06:40:00      -23.553      -25.315        5.335       22.800       25.028       15.358      519.822      626.412      235.881        0.130        0.069       34.577       15.898        0.211      341.703       16.599      864.291
08/07/2014  06:41:00      -41.054      -14.934       -0.168       18.124       18.663       13.601      328.472      348.298      184.998        0.138        0.043       43.686        9.358        0.046      341.712       16.616      864.294
08/07/2014  06:42:00      -64.870      -12.477       -3.259       21.944       20.979       10.983      481.546      440.126      120.622        0.271        0.052       66.059        8.911        0.018      341.671       16.544      864.307
08/07/2014  06:43:00      -76.774      -37.354       -1.811       10.940       14.082       11.065      119.687      198.291      122.430        0.387        0.022       85.379        6.326        0.005      341.662       16.531      864.307
08/07/2014  06:44:00      -56.152      -11.637       -1.664       17.473       13.588        8.712      305.296      184.646       75.894        0.193        0.028       57.345        8.778        0.023      341.639       16.493      864.318
08/07/2014  06:45:00      -50.174      -12.743       -2.136       15.158       11.033        8.223      229.778      121.729       67.611        0.155        0.021       51.767        9.253        0.032      341.606       16.436      864.330
08/07/2014  06:46:00      -48.143      -25.553       -7.407       10.171        8.687        7.069      103.444       75.463       49.965        0.163        0.011       54.504        4.867        0.008      341.669       16.547      864.345
08/07/2014  06:47:00      -21.019      -20.173       -1.570       20.048       15.283       11.232      401.935      233.584      126.156        0.081        0.038       29.134       14.280        0.240      341.759       16.697      864.345
08/07/2014  06:48:00       -0.760      -17.149       -1.245       13.119        8.064        6.881      172.121       65.024       47.354        0.029        0.014       17.166        4.438        0.067      341.789       16.743      864.346
08/07/2014  06:49:00      -41.777      -37.262       -2.643       16.820       14.425        8.722      282.911      208.079       76.069        0.185        0.028       55.980        3.378        0.004      341.739       16.660      864.352
08/07/2014  06:50:00      -53.319      -36.813       -1.780       19.634       10.278        9.533      385.481      105.648       90.874        0.239        0.029       64.793       10.200        0.025      341.670       16.546      864.340
08/07/2014  06:51:00      -73.242      -35.107       -4.340       16.577       20.016       13.923      274.782      400.647      193.840        0.374        0.043       81.221       10.483        0.017      341.629       16.475      864.337
08/07/2014  06:52:00      -74.841      -43.357       -2.956       13.439       15.043       10.416      180.606      226.297      108.497        0.400        0.026       86.493        5.779        0.004      341.689       16.576      864.342
08/07/2014  06:53:00      -69.995      -42.585       -2.761       17.854       19.126       17.449      318.776      365.821      304.467        0.385        0.049       81.931       12.217        0.022      341.660       16.528      864.348
08/07/2014  06:54:00      -54.823      -24.035       -3.576       26.972       14.660       13.100      727.513      214.917      171.604        0.235        0.056       59.861       11.435        0.036      341.677       16.554      864.354
08/07/2014  06:55:00      -80.060      -19.150       -3.341       15.313       18.495       11.180      234.496      342.058      124.997        0.374        0.035       82.318        8.955        0.012      341.697       16.588      864.370
08/07/2014  06:56:00      -67.993      -18.797       -0.915       23.513       17.742       14.078      552.846      314.786      198.188        0.302        0.053       70.544       12.645        0.032      341.723       16.634      864.402
08/07/2014  06:57:00      -74.864      -19.270       -1.505       22.014       13.973        9.923      484.620      195.255       98.471        0.338        0.039       77.305       10.038        0.017      341.754       16.685      864.420
08/07/2014  06:58:00      -51.871      -17.804        3.527       16.572       16.007       10.453      274.641      256.210      109.258        0.183        0.032       54.841        7.820        0.020      341.767       16.709      864.437
08/07/2014  06:59:00      -64.829      -43.946        1.568       24.567       21.002       10.719      603.550      441.072      114.899        0.365        0.058       78.320       11.627        0.022      341.819       16.796      864.455
08/07/2014  07:00:00      -74.536      -75.901       -4.878       34.008       53.783       20.289     1156.523     2892.577      411.630        0.790        0.223      106.379       21.856        0.042      341.802       16.766      864.464
08/07/2014  07:01:00      -90.115      -73.581       -3.653       41.718       29.543       23.289     1740.397      872.790      542.367        0.835        0.158      116.340       24.112        0.043      341.834       16.821      864.463
08/07/2014  07:02:00     -111.165      -67.121       -0.334       30.627       25.776       18.777      938.026      664.391      352.560        0.941        0.098      129.857       10.749        0.007      341.753       16.683      864.474
08/07/2014  07:03:00      -78.752      -55.705       -0.340       33.060       36.373       20.254     1092.937     1323.000      410.220        0.607        0.141       96.462       18.607        0.037      341.796       16.758      864.480
08/07/2014  07:04:00      -94.510       -5.750        2.192       33.779       27.813       22.371     1141.049      773.538      500.443        0.569        0.121       94.685       19.095        0.041      341.788       16.746      864.483
08/07/2014  07:05:00      -81.970      -13.675       -0.018       26.519       26.376       17.162      703.250      695.707      294.530        0.430        0.085       83.103       15.959        0.037      341.777       16.724      864.494
08/07/2014  07:06:00      -65.485        2.493        0.962       33.265       16.878       11.838     1106.554      284.862      140.136        0.291        0.077       65.533       14.427        0.048      341.782       16.733      864.492
08/07/2014  07:07:00      -81.710      -38.100       -4.351       18.702       18.416       13.312      349.761      339.131      177.210        0.451        0.043       90.156       11.881        0.017      341.814       16.787      864.499
08/07/2014  07:08:00      -77.563       -7.370       -5.190       19.206       12.120       11.762      368.853      146.905      138.339        0.338        0.033       77.913        7.504        0.009      341.888       16.914      864.500
08/07/2014  07:09:00      -76.948      -10.312       -3.207       20.091       13.914       10.543      403.662      193.611      111.157        0.337        0.035       77.636        6.708        0.007      341.903       16.940      864.498
08/07/2014  07:10:00      -68.481      -48.304       -2.346       23.007       22.822       18.792      529.304      520.837      353.132        0.422        0.070       83.803       13.058        0.024      341.932       16.990      864.502
08/07/2014  07:11:00      -52.102      -43.860       -5.541       19.303       24.033       13.276      372.617      577.605      176.244        0.290        0.056       68.105       12.537        0.034      341.914       16.957      864.500
08/07/2014  07:12:00      -68.606      -64.121      -10.313       20.389       17.258       14.583      415.717      297.825      212.678        0.493        0.046       93.906        9.492        0.010      341.931       16.984      864.504
08/07/2014  07:13:00      -49.167      -40.221       -2.110       21.674       10.477       16.343      469.758      109.777      267.105        0.244        0.042       63.522       16.345        0.066      341.937       16.997      864.514
08/07/2014  07:14:00      -50.350      -55.898      -12.218       13.242       18.919        9.571      175.359      357.939       91.611        0.322        0.031       75.231        4.820        0.004      341.985       17.080      864.510
08/07/2014  07:15:00      -48.316      -56.556      -11.315       12.121        8.978        8.401      146.923       80.600       70.570        0.298        0.015       74.384        6.366        0.007      341.964       17.043      864.525
08/07/2014  07:16:00      -30.479      -73.507        2.189       13.541       20.169       10.278      183.349      406.773      105.643        0.352        0.035       79.576        8.127        0.010      342.019       17.137      864.526
08/07/2014  07:17:00      -29.703      -64.603       -5.464       20.467       13.622       12.062      418.882      185.561      145.482        0.292        0.037       71.105        4.059        0.003      342.042       17.175      864.530
08/07/2014  07:18:00       -9.794      -25.685       12.216       31.867       24.445       21.908     1015.527      597.566      479.969        0.150        0.105       27.488       19.102        0.483      342.167       17.387      864.531
08/07/2014  07:19:00      -48.211      -62.805       -2.589       28.757       37.936       18.527      826.990     1439.155      343.259        0.444        0.130       79.175       22.109        0.078      342.045       17.181      864.531
08/07/2014  07:20:00      -26.104      -34.268        3.982       21.057       30.244       17.905      443.394      914.702      320.583        0.177        0.084       43.078       14.114        0.107      342.065       17.213      864.536
08/07/2014  07:21:00      -70.352      -59.226       -8.232       17.723       21.268        8.535      314.097      452.331       72.853        0.468        0.042       91.963        6.688        0.005      341.963       17.039      864.530
08/07/2014  07:22:00      -50.128      -29.368       -3.666       26.549       18.895       14.753      704.834      357.013      217.656        0.233        0.064       58.097       11.020        0.036      342.064       17.212      864.545
08/07/2014  07:23:00      -51.895      -33.108      -11.791       15.285       29.066       13.878      233.645      844.839      192.600        0.260        0.064       61.557       13.298        0.047      342.072       17.225      864.544
08/07/2014  07:24:00      -27.839      -25.042       -0.024       19.869       25.757       11.341      394.772      663.434      128.615        0.129        0.059       37.445        7.103        0.036      342.064       17.213      864.567
08/07/2014  07:25:00      -36.362      -54.222        1.187       27.328       26.363       15.889      746.809      695.031      252.452        0.298        0.085       65.285       15.387        0.056      342.110       17.289      864.572
08/07/2014  07:26:00      -23.124      -49.521        1.059       18.174       19.163       14.577      330.299      367.236      212.499        0.195        0.046       54.654       13.514        0.061      342.127       17.320      864.587
08/07/2014  07:27:00      -38.222      -23.898       -0.960       34.909       23.929       19.903     1218.613      572.599      396.132        0.211        0.109       45.078       19.137        0.180      342.193       17.432      864.590
08/07/2014  07:28:00      -84.128      -18.497        0.562       30.185       18.578       16.375      911.131      345.147      268.137        0.447        0.076       86.138       16.603        0.037      342.068       17.218      864.607
08/07/2014  07:29:00      -27.961       -1.870        3.480       25.010       29.899       20.380      625.519      893.923      415.339        0.137        0.097       28.023        9.871        0.124      342.212       17.464      864.617
08/07/2014  07:30:00       -9.250        6.944       -0.286       15.684       13.379       12.980      245.994      179.008      168.492        0.036        0.030       11.566        5.894        0.260      342.314       17.638      864.627
08/07/2014  07:31:00      -52.735       -0.250       -4.309       28.428       15.635       13.716      808.175      244.468      188.132        0.202        0.062       52.736       12.504        0.056      342.113       17.295      864.629
08/07/2014  07:32:00      -65.638      -28.974      -13.137       22.236       13.808       11.659      494.421      190.648      135.926        0.307        0.041       71.748        8.017        0.012      342.062       17.208      864.635
08/07/2014  07:33:00      -44.683      -41.950       -5.875       14.998       17.290       10.587      224.930      298.930      112.081        0.221        0.032       61.289        9.027        0.022      342.057       17.200      864.634
08/07/2014  07:34:00      -21.364      -20.046       -0.538       11.715       20.487        6.986      137.248      419.720       48.807        0.073        0.030       29.296        5.419        0.034      342.158       17.372      864.622
08/07/2014  07:35:00      -27.197      -47.514        0.573       10.159       13.860        9.420      103.198      192.092       88.740        0.169        0.019       54.747        6.610        0.015      342.113       17.294      864.622
08/07/2014  07:36:00      -45.515      -24.288       -7.327       18.832       14.617       10.240      354.644      213.660      104.867        0.169        0.034       51.590        8.750        0.029      342.213       17.466      864.619
08/07/2014  07:37:00      -28.473      -19.004       -4.634        8.260       13.896        8.953       68.224      193.111       80.147        0.077        0.017       34.233        3.548        0.011      342.210       17.461      864.618
08/07/2014  07:38:00      -38.411      -10.208       -4.694       12.347       12.274        7.329      152.450      150.652       53.710        0.098        0.018       39.744        6.040        0.023      342.257       17.540      864.629
08/07/2014  07:39:00      -31.433       -9.264        1.532       22.069       16.096       10.594      487.028      259.086      112.236        0.097        0.043       32.769        8.455        0.067      342.307       17.624      864.634
08/07/2014  07:40:00      -41.662      -22.112       -1.709       21.169       14.126       10.731      448.118      199.544      115.151        0.150        0.038       47.166        6.515        0.019      342.302       17.617      864.657
08/07/2014  07:41:00      -34.076      -11.122        0.716       23.502       22.799       15.086      552.325      519.790      227.583        0.129        0.065       35.845       13.070        0.133      342.370       17.733      864.671
08/07/2014  07:42:00      -31.499      -12.428        0.603       14.690       17.228        9.810      215.798      296.818       96.235        0.088        0.030       33.862        7.200        0.045      342.319       17.644      864.691
08/07/2014  07:43:00      -12.224      -15.177       -9.970       15.174       16.942       10.111      230.240      287.039      102.227        0.055        0.031       19.488        7.577        0.151      342.451       17.868      864.701
08/07/2014  07:44:00      -33.149      -17.469        3.405       20.050       17.616       11.360      401.999      310.330      129.047        0.113        0.042       37.471        9.252        0.061      342.401       17.785      864.712
08/07/2014  07:45:00      -21.873      -10.635        6.100       20.130       19.494       14.954      405.228      380.020      223.633        0.082        0.050       24.321       14.867        0.374      342.642       18.196      864.716
08/07/2014  07:46:00      -63.520      -42.057        0.331       27.292       23.896       13.441      744.862      571.016      180.656        0.365        0.075       76.181        8.669        0.013      342.329       17.663      864.709
08/07/2014  07:47:00      -43.166      -42.856        4.896       40.929       34.250       16.332     1675.182     1173.056      266.740        0.342        0.156       60.827       19.616        0.104      342.462       17.888      864.712
08/07/2014  07:48:00      -87.050      -54.359       -5.092       21.647       21.398       13.181      468.586      457.883      173.726        0.583        0.055      102.629        9.546        0.009      342.327       17.657      864.693
08/07/2014  07:49:00      -80.287      -63.614       -2.694       22.528       31.318       15.668      507.505      980.802      245.492        0.612        0.087      102.434       16.201        0.025      342.336       17.674      864.682
08/07/2014  07:50:00      -60.688      -47.298       -0.074       22.695       15.414       13.305      515.083      237.580      177.017        0.342        0.046       76.942       11.430        0.022      342.328       17.662      864.676
08/07/2014  07:51:00      -73.507      -26.613       -2.510       15.549       12.359       12.929      241.768      152.745      167.161        0.334        0.028       78.176        7.127        0.008      342.346       17.690      864.671
08/07/2014  07:52:00      -56.006      -24.271      -11.386       10.809        8.644        5.685      116.831       74.722       32.314        0.204        0.011       61.039        2.869        0.002      342.414       17.809      864.669
08/07/2014  07:53:00      -34.065        3.081       -6.327        6.544       10.717        4.965       42.820      114.851       24.647        0.070        0.009       34.204        2.561        0.006      342.436       17.844      864.666
08/07/2014  07:54:00      -34.618       10.613       -3.679        7.521        5.750        5.839       56.572       33.062       34.099        0.072        0.006       36.208        2.482        0.005      342.461       17.888      864.674
08/07/2014  07:55:00      -27.897       -5.637       -0.805       13.055       31.535       16.646      170.441      994.455      277.085        0.113        0.072       28.461       14.811        0.271      342.533       18.010      864.676
08/07/2014  07:56:00       30.459       -9.421       16.944       36.129       29.993       32.796     1305.290      899.587     1075.546        0.229        0.164       31.883       25.231        0.626      343.103       18.979      864.684
08/07/2014  07:57:00       13.138       27.147       48.138       38.777       29.631       21.804     1503.669      877.982      475.409        0.304        0.143       30.159       19.892        0.435      342.922       18.672      864.680
08/07/2014  07:58:00        6.353       47.315       61.726       26.248       37.273       24.617      688.962     1389.256      605.991        0.439        0.134       47.739       22.447        0.221      342.979       18.769      864.693
08/07/2014  07:59:00       28.869       12.259       16.176       24.748       21.539       21.209      612.444      463.942      449.807        0.139        0.076       31.363       18.755        0.358      342.894       18.624      864.701
08/07/2014  08:00:00       14.261       21.458       31.245       21.187       24.120       17.330      448.869      581.779      300.336        0.149        0.067       25.765       12.723        0.244      343.208       19.157      864.699
08/07/2014  08:01:00       -6.262        3.402       34.552       11.235       11.480       12.400      126.221      131.798      153.757        0.083        0.021        7.126        7.469        1.099      343.425       19.527      864.706
08/07/2014  08:02:00        0.667       19.300       40.317       13.372       22.879       18.977      178.806      523.455      360.112        0.153        0.053       19.311       16.645        0.743      343.212       19.166      864.707
08/07/2014  08:03:00       17.926       17.066       12.462       13.518        9.965       12.625      182.743       99.308      159.395        0.060        0.022       24.751        9.285        0.141      342.839       18.528      864.713
08/07/2014  08:04:00      -13.082       10.502       16.966       10.917       13.691       12.435      119.188      187.439      154.629        0.052        0.023       16.776        7.040        0.176      343.202       19.148      864.722
08/07/2014  08:05:00      -27.475       17.185        3.689        9.914       12.433       11.658       98.284      154.581      135.905        0.073        0.019       32.407        6.361        0.039      342.881       18.600      864.727
08/07/2014  08:06:00      -34.169        4.403       -1.846        7.762        5.246        5.130       60.250       27.521       26.313        0.065        0.006       34.452        3.357        0.009      342.771       18.413      864.741
08/07/2014  08:07:00      -23.630       -2.482        3.955       18.052        9.378        7.705      325.887       87.950       59.372        0.053        0.024       23.760        5.359        0.051      343.041       18.873      864.740
08/07/2014  08:08:00       -5.567      -25.115        0.527       13.232       18.243       10.000      175.092      332.795       99.993        0.063        0.030       25.724        5.836        0.051      343.027       18.849      864.749
08/07/2014  08:09:00      -37.150      -13.107        2.079       22.701       23.258       17.161      515.319      540.917      294.496        0.145        0.068       39.394       10.588        0.072      342.957       18.730      864.759
08/07/2014  08:10:00      -30.921       -8.675       18.817       31.904       27.477       20.653     1017.888      754.985      426.545        0.179        0.110       32.115       20.073        0.391      343.355       19.410      864.763
08/07/2014  08:11:00      -71.733      -62.983       -0.900       20.359       23.491       19.127      414.491      551.827      365.859        0.522        0.067       95.459       12.650        0.018      342.822       18.498      864.772
08/07/2014  08:12:00      -60.932      -53.220       -9.366        9.847       17.284       11.834       96.958      298.724      140.045        0.358        0.027       80.902        9.319        0.013      342.795       18.453      864.774
08/07/2014  08:13:00      -38.583      -20.806       -6.315       14.938       12.604        9.525      223.134      158.872       90.720        0.122        0.024       43.835        8.260        0.036      342.914       18.658      864.773
08/07/2014  08:14:00      -52.685      -48.244       -6.014       13.470       21.129       10.565      181.431      446.451      111.627        0.294        0.037       71.437        9.281        0.017      342.854       18.555      864.782
08/07/2014  08:15:00      -39.218      -55.037       -1.020       16.514       27.187       11.632      272.699      739.117      135.309        0.286        0.057       67.581       11.350        0.028      342.905       18.640      864.779
08/07/2014  08:16:00      -71.106      -54.310        1.779       21.854       20.352       14.963      477.611      414.195      223.894        0.456        0.056       89.474       11.545        0.017      342.900       18.634      864.796
08/07/2014  08:17:00      -67.718      -44.308       -0.007       19.718       21.938       14.034      388.810      481.259      196.949        0.381        0.053       80.925       15.086        0.035      342.986       18.780      864.816
08/07/2014  08:18:00      -84.126      -52.450       -0.051       26.411       16.328       14.811      697.549      266.619      219.362        0.551        0.059       99.137       13.229        0.018      342.923       18.671      864.830
08/07/2014  08:19:00      -43.877      -28.969        4.995       26.340       24.430       17.933      693.777      596.846      321.602        0.220        0.081       52.578       15.935        0.092      343.174       19.100      864.850
08/07/2014  08:20:00      -33.407      -12.689        7.585       23.720       24.555       18.725      562.625      602.941      350.640        0.143        0.076       35.736       13.100        0.134      343.311       19.334      864.871
08/07/2014  08:21:00      -31.699      -27.493       15.109       30.932       30.815       29.445      956.760      949.583      867.018        0.238        0.139       41.960       21.860        0.271      343.278       19.278      864.886
08/07/2014  08:22:00      -61.009       -2.443       16.852       30.040       30.507       20.879      902.411      930.699      435.943        0.314        0.113       61.058       19.514        0.102      343.099       18.972      864.900
08/07/2014  08:23:00       -7.554       -4.405       16.049       14.982       18.753       15.632      224.474      351.660      244.372        0.058        0.041        8.744        8.757        1.003      343.762       20.104      864.897
08/07/2014  08:24:00       -5.056       12.968       37.108       12.161       16.076       11.857      147.882      258.436      140.597        0.106        0.027       13.919        7.803        0.314      344.404       21.199      864.894
08/07/2014  08:25:00      -33.060       -9.312        7.245       20.879       19.643       16.085      435.921      385.831      258.726        0.116        0.054       34.347       13.047        0.144      343.316       19.343      864.885
08/07/2014  08:26:00      -48.508      -35.998        6.102       26.628       22.535       13.414      709.064      507.828      179.934        0.254        0.070       60.406        8.851        0.021      343.195       19.135      864.868
08/07/2014  08:27:00      -34.148      -34.898       -0.634       21.718       15.104       11.378      471.693      228.128      129.458        0.161        0.041       48.826        8.484        0.030      343.121       19.010      864.856
08/07/2014  08:28:00      -31.791      -36.600       15.505       19.430       16.848       19.898      377.513      283.839      395.945        0.182        0.053       48.480        2.810        0.003      343.382       19.455      864.844
08/07/2014  08:29:00      -38.743      -31.338       -0.238       26.778       19.112       14.943      717.058      365.256      223.301        0.189        0.065       49.830        9.212        0.034      343.310       19.332      864.823
08/07/2014  08:30:00      -58.925      -23.155       -6.080       14.033       16.859       11.086      196.935      284.242      122.889        0.232        0.030       63.311        9.828        0.024      343.254       19.235      864.813
08/07/2014  08:31:00      -30.148      -10.256        8.914       23.151       17.892       21.213      535.992      320.107      449.998        0.120        0.065       31.845       19.709        0.383      343.514       19.679      864.799
08/07/2014  08:32:00       -0.900      -22.755       12.878       19.815       40.736       21.763      392.634     1659.451      473.642        0.160        0.126       22.773       26.203        1.324      343.882       20.308      864.801
08/07/2014  08:33:00      -44.039      -21.269        8.570       30.653       25.778       15.885      939.609      664.505      252.337        0.216        0.093       48.907       12.198        0.062      343.493       19.644      864.798
08/07/2014  08:34:00      -59.704      -34.462        3.477       19.049       18.693       13.055      362.858      349.428      170.426        0.282        0.044       68.936        5.516        0.006      343.328       19.362      864.803
08/07/2014  08:35:00      -66.270      -55.086       -4.163       15.114       18.132       12.370      228.428      328.771      153.027        0.408        0.036       86.175       10.095        0.014      343.251       19.231      864.810
08/07/2014  08:36:00      -40.736      -20.421        3.323       24.628       19.284       12.377      606.558      371.870      153.183        0.161        0.057       45.567       14.829        0.106      343.569       19.775      864.811
08/07/2014  08:37:00      -24.665       -8.742       15.393       21.807       13.716       12.074      475.531      188.118      145.790        0.087        0.040       26.168       12.755        0.238      343.860       20.271      864.813
08/07/2014  08:38:00       -9.953       -5.862       18.629       12.677       10.494       16.985      160.715      110.124      288.485        0.052        0.028       11.551       12.549        1.180      344.072       20.632      864.810
08/07/2014  08:39:00       40.405       48.692       37.537       30.111       31.363       24.288      906.696      983.637      589.917        0.395        0.124       63.273       13.139        0.043      344.005       20.516      864.800
08/07/2014  08:40:00       -4.347       14.021       37.544       19.986       25.931       25.875      399.439      672.395      669.514        0.168        0.087       14.679       14.902        1.031      344.371       21.141      864.805
08/07/2014  08:41:00       29.080       36.732        2.371       28.481       34.902       28.469      811.146     1218.146      810.497        0.252        0.142       46.850       19.383        0.171      344.157       20.778      864.797
08/07/2014  08:42:00      106.422       60.738       -4.239       30.475       31.316       24.736      928.731      980.694      611.865        0.878        0.126      122.534       16.169        0.017      343.639       19.892      864.804
08/07/2014  08:43:00       61.463       37.877       19.672       40.361       42.316       29.241     1628.993     1790.629      855.031        0.494        0.214       72.197       25.129        0.121      343.754       20.089      864.804
08/07/2014  08:44:00       39.255       34.531       18.932       38.866       22.451       23.405     1510.543      504.031      547.780        0.283        0.128       52.282       10.693        0.042      343.877       20.297      864.807
08/07/2014  08:45:00       62.931       37.782        8.291       25.838       24.846       27.391      667.588      617.304      750.283        0.375        0.102       73.402       17.342        0.056      343.622       19.865      864.813
08/07/2014  08:46:00       18.647       22.694       23.269       24.741       25.622       22.506      612.114      656.508      506.500        0.159        0.089       29.372        9.670        0.108      343.998       20.506      864.817
08/07/2014  08:47:00       36.640       27.773       14.643       35.672       29.102       33.938     1272.473      846.898     1151.803        0.280        0.164       45.977       17.948        0.152      344.133       20.736      864.810
08/07/2014  08:48:00      -43.826        5.999        9.594       19.333       20.328       22.902      373.783      413.234      524.499        0.168        0.066       44.235       16.646        0.142      343.904       20.345      864.810
08/07/2014  08:49:00      -12.267        0.584       21.284       29.693       18.418       18.251      881.693      339.212      333.097        0.108        0.078       12.281       19.155        2.433      344.388       21.173      864.800
08/07/2014  08:50:00      -29.425       -7.047        9.791       44.230       37.397       25.241     1956.256     1398.515      637.106        0.250        0.200       30.257       30.486        1.015      344.136       20.741      864.795
08/07/2014  08:51:00      -58.738      -35.428       -1.976       21.165       16.511       14.569      447.976      272.600      212.268        0.282        0.047       68.595        8.936        0.017      343.671       19.947      864.788
08/07/2014  08:52:00      -19.674        5.169       21.617       22.440       19.842       21.221      503.537      393.723      450.346        0.111        0.067       20.342       17.963        0.780      344.584       21.507      864.779
08/07/2014  08:53:00      -25.324        6.924       13.372       23.483       31.302       21.137      551.435      979.829      446.762        0.142        0.099       26.254        9.816        0.140      344.265       20.961      864.778
08/07/2014  08:54:00      -49.835      -36.317        1.945       19.451       19.686       14.570      378.328      387.520      212.287        0.239        0.049       61.664       15.432        0.063      343.841       20.238      864.767
08/07/2014  08:55:00      -41.551       -0.743       -3.368       24.928       14.302       14.040      621.385      204.556      197.134        0.138        0.051       41.558        9.973        0.058      343.700       19.997      864.757
08/07/2014  08:56:00      -15.332      -55.523        5.636       22.713       37.782       18.549      515.877     1427.453      344.063        0.282        0.114       57.601       16.800        0.085      343.951       20.426      864.739
08/07/2014  08:57:00      -24.573      -31.229       14.966       19.047       35.201       14.925      362.799     1239.105      222.750        0.181        0.091       39.738       13.011        0.107      343.883       20.309      864.725
08/07/2014  08:58:00      -39.670       -4.831        0.870       21.879       25.736       10.692      478.679      662.334      114.315        0.143        0.063       39.964       12.394        0.096      343.818       20.198      864.712
08/07/2014  08:59:00      -69.770      -28.726       -6.473       24.158       14.283       14.007      583.630      203.993      196.203        0.336        0.049       75.453       12.862        0.029      343.833       20.223      864.696
08/07/2014  09:00:00      -50.507      -24.417        6.015       37.689       20.968       13.386     1420.452      439.673      179.188        0.261        0.102       56.099       12.644        0.051      344.051       20.597      864.685
08/07/2014  09:01:00      -43.209       -8.337        0.426       26.269       19.954       15.080      690.062      398.165      227.395        0.163        0.066       44.006       14.845        0.114      344.124       20.722      864.673
08/07/2014  09:02:00      -40.843      -31.540       11.112       39.910       19.756       17.260     1592.783      390.286      297.907        0.253        0.114       51.603       20.122        0.152      344.050       20.594      864.662
08/07/2014  09:03:00      -72.264      -56.327        4.833       46.687       46.686       24.712     2179.705     2179.573      610.665        0.669        0.248       91.624       29.859        0.106      344.085       20.654      864.655
08/07/2014  09:04:00      -54.524      -64.395        2.039       34.560       36.975       20.111     1194.368     1367.169      404.455        0.504        0.148       84.378       18.524        0.048      343.963       20.445      864.647
08/07/2014  09:05:00      -77.537      -63.873       -4.092       18.147       26.016       16.757      329.312      676.828      280.781        0.570        0.064      100.458        7.540        0.006      343.810       20.185      864.636
08/07/2014  09:06:00      -89.508      -48.682       -7.666       33.290       19.951       14.119     1108.221      398.060      199.345        0.607        0.085      101.890       16.183        0.025      343.876       20.297      864.626
08/07/2014  09:07:00      -38.161      -14.455        3.682       25.624       19.836       16.663      656.586      393.478      277.670        0.150        0.066       40.807       15.627        0.147      344.134       20.737      864.621
08/07/2014  09:08:00      -21.089       -7.445        0.410       20.389       20.029       11.750      415.705      401.172      138.060        0.073        0.048       22.364        7.642        0.117      344.335       21.083      864.611
08/07/2014  09:09:00      -24.162       22.976       13.695       24.971       16.249       17.009      623.576      264.034      289.298        0.124        0.059       33.342       17.998        0.291      344.442       21.263      864.609
08/07/2014  09:10:00      -38.069       18.310        1.276       17.671       17.261       17.173      312.267      297.942      294.918        0.135        0.045       42.244        9.344        0.049      344.298       21.017      864.595
08/07/2014  09:11:00      -45.684      -14.347        2.789       31.955       19.021       17.628     1021.144      361.813      310.738        0.200        0.085       47.884       17.625        0.135      344.355       21.115      864.587
08/07/2014  09:12:00       30.687        8.144        4.705       30.580       27.304       18.567      935.143      745.500      344.720        0.153        0.101       31.749        8.711        0.075      344.596       21.527      864.569
08/07/2014  09:13:00       45.603       36.420       16.659       31.873       26.135       23.783     1015.906      683.050      565.640        0.297        0.113       58.362       10.755        0.034      344.460       21.295      864.559
08/07/2014  09:14:00       20.037       14.832       16.192       28.161       30.550       18.288      793.031      933.274      334.433        0.147        0.103       24.929       13.234        0.282      344.650       21.621      864.546
08/07/2014  09:15:00       14.976       16.952       36.677       25.112       21.224       19.046      630.623      450.469      362.752        0.165        0.072       22.620        7.406        0.107      345.011       22.236      864.535
08/07/2014  09:16:00      -20.987       -4.724       24.687       23.758       37.689       29.897      564.435     1420.462      893.859        0.197        0.144       21.512       19.263        0.802      344.891       22.032      864.531
08/07/2014  09:17:00       68.500       59.140       11.672       47.176       32.995       28.662     2225.588     1088.677      821.506        0.623        0.207       90.497       25.195        0.078      344.596       21.527      864.528
08/07/2014  09:18:00       82.793       64.707       17.813       24.914       25.435       33.965      620.729      646.961     1153.595        0.689        0.121      105.079       15.993        0.023      344.385       21.167      864.523
08/07/2014  09:19:00      117.656       61.059        1.610       32.554       29.532       32.690     1059.747      872.157     1068.636        1.029        0.150      132.556       13.732        0.011      344.379       21.155      864.516
08/07/2014  09:20:00      101.651       58.611        4.782       31.365       25.491       31.893      983.767      649.785     1017.145        0.822        0.133      117.338       17.822        0.023      344.381       21.159      864.515
08/07/2014  09:21:00       55.372       37.716       23.466       55.698       33.915       31.847     3102.268     1150.253     1014.200        0.515        0.263       66.996       22.742        0.115      344.759       21.805      864.509
08/07/2014  09:22:00       49.979       34.820      -10.457       29.809       42.199       25.576      888.564     1780.726      654.152        0.357        0.166       60.912       12.606        0.043      344.296       21.014      864.521
08/07/2014  09:23:00       66.724       69.744       11.881       45.800       30.616       30.141     2097.665      937.349      908.479        0.670        0.197       96.521       23.167        0.058      344.490       21.346      864.516
08/07/2014  09:24:00       67.205      103.807      -12.657       41.291       41.784       32.856     1704.915     1745.936     1079.512        0.999        0.227      123.662       30.484        0.061      344.406       21.203      864.511
08/07/2014  09:25:00        0.827       79.977        3.508       28.833       50.285       30.585      831.345     2528.567      935.423        0.535        0.215       79.981       27.295        0.116      344.924       22.087      864.510
08/07/2014  09:26:00        3.610       64.761        1.194       32.886       49.443       31.332     1081.509     2444.577      981.684        0.436        0.225       64.861       28.696        0.196      344.710       21.723      864.504
08/07/2014  09:27:00       23.982       24.810       16.480       22.151       19.997       21.107      490.656      399.889      445.520        0.140        0.067       34.506        5.808        0.028      345.106       22.400      864.496
08/07/2014  09:28:00        4.229       -1.026       33.859       28.241       43.709       21.465      797.545     1910.481      460.745        0.217        0.158        4.352        6.187        2.021      345.503       23.080      864.497
08/07/2014  09:29:00       34.559       39.242       63.615       36.169       50.743       24.182     1308.220     2574.886      584.765        0.562        0.223       52.290       20.896        0.160      345.294       22.721      864.490
08/07/2014  09:30:00       93.655       69.960       33.094       59.087       45.907       37.675     3491.323     2107.491     1419.420        1.089        0.351      116.900       32.584        0.078      344.841       21.947      864.487
08/07/2014  09:31:00       94.065       59.260       17.903       31.922       35.121       35.402     1018.986     1233.488     1253.288        0.809        0.175      111.176       16.482        0.022      344.516       21.392      864.487
08/07/2014  09:32:00       17.027       41.992        0.529       29.823       29.299       20.535      889.404      858.441      421.706        0.211        0.108       45.313       14.730        0.106      344.548       21.444      864.492
08/07/2014  09:33:00       -9.691       37.740       13.206       20.441       33.813       25.039      417.835     1143.328      626.960        0.194        0.109       38.964       22.881        0.345      345.128       22.439      864.495
08/07/2014  09:34:00       25.101       67.603        1.383       26.411       56.985       29.916      697.552     3247.289      894.962        0.502        0.242       72.112       38.544        0.286      344.961       22.151      864.489
08/07/2014  09:35:00        8.824       35.527       14.801       31.696       37.385       23.814     1004.644     1397.602      567.104        0.226        0.148       36.606       25.985        0.504      345.513       23.099      864.483
08/07/2014  09:36:00      -16.698       53.957      -18.064       19.901       26.953       23.976      396.054      726.489      574.867        0.261        0.085       56.481       10.238        0.033      344.747       21.785      864.470
08/07/2014  09:37:00      -14.255       15.653       14.979       20.316       25.369       24.017      412.749      643.591      576.834        0.115        0.082       21.172       10.981        0.269      345.533       23.133      864.463
08/07/2014  09:38:00       48.237       28.285       19.977       44.813       23.959       23.446     2008.244      574.023      549.728        0.333        0.157       55.919       20.563        0.135      345.474       23.031      864.445
08/07/2014  09:39:00       48.280       38.247       32.212       40.340       31.369       28.698     1627.342      983.991      823.592        0.413        0.172       61.593       13.144        0.046      345.364       22.843      864.437
08/07/2014  09:40:00       18.486       52.128       27.137       31.348       30.431       29.548      982.694      926.018      873.104        0.329        0.139       55.308       17.636        0.102      345.375       22.861      864.416
08/07/2014  09:41:00       57.920       16.586        6.042       28.480       24.245       34.425      811.102      587.829     1185.093        0.312        0.129       60.248       11.345        0.035      344.892       22.034      864.416
08/07/2014  09:42:00      -17.217        4.735       25.847       19.367       12.561       13.958      375.097      157.785      194.831        0.086        0.036       17.856       10.170        0.324      345.496       23.068      864.400
08/07/2014  09:43:00       18.472       26.399       38.552       23.484       27.986       30.274      551.494      783.214      916.524        0.239        0.113       32.220       23.543        0.534      345.682       23.387      864.393
08/07/2014  09:44:00       26.456       34.937       48.742       51.666       44.759       42.042     2669.407     2003.347     1767.518        0.537        0.322       43.824       36.756        0.703      345.611       23.266      864.377
08/07/2014  09:45:00       13.586        5.988       47.120       54.859       78.219       29.301     3009.485     6118.199      858.530        0.621        0.499       14.847       31.378        4.467      345.542       23.147      864.377
08/07/2014  09:46:00       56.836     -124.254       -1.174       45.777       50.012       40.754     2095.550     2501.249     1660.856        1.246        0.313      136.636       30.325        0.049      345.182       22.529      864.371
08/07/2014  09:47:00       41.523     -126.188        4.849       47.722       49.537       34.153     2277.360     2453.915     1166.409        1.178        0.295      132.844       28.600        0.046      345.302       22.735      864.372
08/07/2014  09:48:00       36.440      -88.325      -13.071       32.908       30.671       29.457     1082.944      940.728      867.741        0.610        0.145       95.547       12.036        0.016      345.081       22.356      864.373
08/07/2014  09:49:00      -16.067      -68.472      -21.366       31.154       25.814       30.410      970.592      666.365      924.739        0.398        0.128       70.332       21.156        0.090      344.951       22.135      864.361
08/07/2014  09:50:00      -10.052       -2.610       18.230       27.327       37.704       24.683      746.758     1421.587      609.257        0.161        0.139       10.385       29.642        8.147      345.492       23.062      864.348
08/07/2014  09:51:00        9.315       23.055       41.137       37.062       27.727       17.604     1373.562      768.791      309.897        0.238        0.123       24.865       15.167        0.372      346.182       24.245      864.331
08/07/2014  09:52:00       85.318       41.200       21.864       62.995       48.352       37.428     3968.379     2337.870     1400.845        0.858        0.385       94.745       29.730        0.098      345.221       22.597      864.318
08/07/2014  09:53:00      114.534       57.592       25.457       73.556       50.573       36.651     5410.550     2557.638     1343.298        1.320        0.466      128.198       36.476        0.081      345.208       22.575      864.303
08/07/2014  09:54:00       58.364       61.512       71.666       69.875       63.110       42.358     4882.529     3982.900     1794.159        1.149        0.533       84.795       35.639        0.177      345.614       23.269      864.287
08/07/2014  09:55:00       87.718       82.027       57.488       40.953       32.480       46.609     1677.164     1054.971     2172.422        1.132        0.245      120.095       34.042        0.080      344.923       22.085      864.284
08/07/2014  09:56:00       75.384       -2.137      -11.187       32.506       25.135       29.332     1056.629      631.749      860.371        0.418        0.127       75.414       13.305        0.031      344.977       22.178      864.294
08/07/2014  09:57:00       39.069       -2.100       -6.661       56.153       42.198       32.778     3153.184     1780.684     1074.424        0.379        0.300       39.125       18.832        0.232      345.268       22.678      864.293
08/07/2014  09:58:00      125.353       91.787       10.011       36.401       29.133       27.286     1325.002      848.717      744.527        1.358        0.146      155.365       19.709        0.016      344.989       22.199      864.299
08/07/2014  09:59:00       17.524       16.135       13.239       42.004       32.044       19.090     1764.355     1026.831      364.431        0.195        0.158       23.820       11.551        0.235      345.511       23.096      864.288
08/07/2014  10:00:00       42.389       74.738        9.060       58.575       50.366       34.878     3431.054     2536.762     1216.454        0.732        0.359       85.922       25.775        0.090      345.637       23.310      864.285
08/07/2014  10:01:00       55.302       80.938      -17.621       43.734       49.693       38.338     1912.620     2469.416     1469.769        0.788        0.293       98.027       13.977        0.020      345.266       22.673      864.281
08/07/2014  10:02:00       65.959       57.297      -19.376       31.323       78.770       29.323      981.144     6204.790      859.861        0.803        0.402       87.371       11.680        0.018      345.076       22.349      864.276
08/07/2014  10:03:00       22.526      -24.898        7.733       21.568       34.775       24.955      465.193     1209.310      622.756        0.174        0.115       33.576       27.817        0.686      345.516       23.104      864.262
08/07/2014  10:04:00       55.135       43.265       38.026       56.803       40.032       28.708     3226.562     1602.578      824.132        0.600        0.283       70.083       30.403        0.188      346.216       24.305      864.248
08/07/2014  10:05:00       14.941       26.274       22.878       46.754       59.283       37.758     2185.938     3514.430     1425.675        0.428        0.356       30.225       29.884        0.978      345.829       23.640      864.248
08/07/2014  10:06:00       -1.034       50.560       60.849       25.186       48.149       38.660      634.324     2318.335     1494.596        0.535        0.222       50.571       32.733        0.419      346.321       24.484      864.255
08/07/2014  10:07:00       52.329       33.278        5.812       48.168       25.951       30.932     2320.112      673.456      956.770        0.391        0.198       62.015        9.959        0.026      345.584       23.219      864.256
08/07/2014  10:08:00       53.451       43.732       21.543       53.077       33.392       35.825     2817.134     1115.050     1283.447        0.522        0.261       69.062       32.246        0.218      345.731       23.470      864.259
08/07/2014  10:09:00       86.353       60.938        6.828       45.895       36.543       33.043     2106.384     1335.417     1091.823        0.787        0.227      105.689       13.287        0.016      345.541       23.145      864.259
08/07/2014  10:10:00       27.636       41.027       44.353       34.659       46.952       26.167     1201.245     2204.528      684.713        0.425        0.205       49.466       16.896        0.117      346.350       24.535      864.258
08/07/2014  10:11:00       93.664       77.023       20.622       64.674       55.045       47.628     4182.760     3029.906     2268.426        1.230        0.474      121.266       34.756        0.082      345.740       23.487      864.261
08/07/2014  10:12:00      150.204      105.784        3.456       54.002       34.241       40.893     2916.201     1172.444     1672.251        1.976        0.288      183.715       28.176        0.024      345.387       22.880      864.260
08/07/2014  10:13:00       78.495       83.627       48.914       52.217       34.747       44.422     2726.666     1207.338     1973.351        1.073        0.295      114.695       36.663        0.102      345.718       23.448      864.263
08/07/2014  10:14:00      105.473       80.312       30.377       48.065       37.947       50.282     2310.227     1440.009     2528.264        1.239        0.314      132.570       31.568        0.057      345.716       23.445      864.257
08/07/2014  10:15:00       39.534       91.415       93.739       59.521       51.571       47.098     3542.727     2659.599     2218.188        1.356        0.421       99.598       34.271        0.118      346.117       24.133      864.247
08/07/2014  10:16:00       96.393       69.200       30.092       56.325       39.901       41.373     3172.554     1592.094     1711.730        1.073        0.324      118.660       31.916        0.072      345.731       23.471      864.252
08/07/2014  10:17:00       77.931       59.227       25.707       33.962       28.802       25.536     1153.437      829.529      652.071        0.644        0.132       97.882       18.941        0.037      345.682       23.388      864.262
08/07/2014  10:18:00       72.721       32.658       10.542       41.861       47.829       41.035     1752.362     2287.587     1683.854        0.609        0.286       79.718       35.242        0.195      345.720       23.452      864.260
08/07/2014  10:19:00       25.230       27.061       45.424       41.105       61.323       42.230     1689.605     3760.565     1783.344        0.533        0.362       36.998       41.273        1.244      346.269       24.394      864.266
08/07/2014  10:20:00       12.042      -62.809       28.533       62.149       58.803       40.312     3862.532     3457.800     1625.075        0.692        0.447       63.953       33.936        0.282      346.416       24.648      864.269
08/07/2014  10:21:00       53.082      -94.509       -8.777       59.505       70.658       40.831     3540.894     4992.562     1667.155        1.101        0.510      108.396       30.599        0.080      345.801       23.592      864.273
08/07/2014  10:22:00      -12.400      -23.921       32.666       43.851       33.126       28.625     1922.895     1097.349      819.405        0.282        0.192       26.944       29.291        1.182      346.259       24.379      864.272
08/07/2014  10:23:00      -10.139      -51.811        1.272       37.071       42.182       37.076     1374.289     1779.311     1374.594        0.366        0.226       52.794       27.926        0.280      346.107       24.117      864.280
08/07/2014  10:24:00      -48.189      -32.176       13.595       52.927       55.276       28.376     2801.290     3055.429      805.189        0.510        0.333       57.944       33.983        0.344      346.134       24.164      864.279
08/07/2014  10:25:00      -16.004      -51.608        0.053       39.375       51.724       35.252     1550.415     2675.408     1242.684        0.419        0.273       54.033       35.240        0.425      345.938       23.827      864.269
08/07/2014  10:26:00      -22.354       -3.006       15.350       36.419       39.618       28.098     1326.324     1569.617      789.475        0.221        0.184       22.555       26.887        1.421      346.400       24.621      864.265
08/07/2014  10:27:00      -19.567      -61.878       19.990       30.053       72.648       34.264      903.194     5277.665     1174.020        0.598        0.368       64.898       29.348        0.205      346.270       24.397      864.256
08/07/2014  10:28:00       25.642      -45.187       26.983       43.270       71.499       44.352     1872.291     5112.162     1967.110        0.619        0.448       51.955       37.945        0.533      346.551       24.880      864.251
08/07/2014  10:29:00      -21.844     -100.804       -3.104       64.469       53.150       34.299     4156.284     2824.959     1176.431        0.940        0.408      103.144       34.453        0.112      345.888       23.742      864.241
08/07/2014  10:30:00      -23.912      -32.337       25.901       40.679       46.143       31.574     1654.817     2129.201      996.890        0.353        0.239       40.218       30.065        0.559      346.283       24.420      864.248
08/07/2014  10:31:00      -73.418      -54.039        6.627       56.052       47.887       25.990     3141.867     2293.163      675.486        0.723        0.306       91.161       32.319        0.126      345.934       23.821      864.241
08/07/2014  10:32:00     -132.825      -55.110       -3.161       37.376       29.166       24.003     1396.945      850.671      576.142        1.176        0.141      143.804       20.880        0.021      345.638       23.311      864.231
08/07/2014  10:33:00      -97.774      -75.003        0.089       49.656       30.159       26.811     2465.694      909.585      718.836        0.964        0.205      123.228       23.459        0.036      345.683       23.389      864.219
08/07/2014  10:34:00      -33.817       -7.074       -3.655       29.168       24.558       27.422      850.762      603.119      751.957        0.171        0.110       34.549       23.737        0.472      346.016       23.961      864.218
08/07/2014  10:35:00       -7.949      -17.056       24.781       13.500       35.912       27.177      182.253     1289.697      738.587        0.159        0.111       18.817       25.598        1.851      346.629       25.014      864.207
08/07/2014  10:36:00       -8.279      -71.558        4.243       21.449       30.158       17.542      460.064      909.508      307.709        0.344        0.084       72.035       12.512        0.030      345.796       23.584      864.196
08/07/2014  10:37:00      -19.340        7.810        0.319       18.364       21.104       22.900      337.250      445.381      524.390        0.087        0.065       20.858       13.829        0.440      346.355       24.545      864.192
08/07/2014  10:38:00      -24.817      -23.759       23.924       30.094       42.665       29.120      905.632     1820.310      847.971        0.266        0.179       34.357       24.787        0.520      346.434       24.680      864.186
08/07/2014  10:39:00       11.235       63.834       74.849       54.291       36.815       32.147     2947.563     1355.374     1033.418        0.757        0.267       64.815       27.323        0.178      346.793       25.297      864.186
08/07/2014  10:40:00       26.574       44.644       43.842       52.423       57.469       37.757     2748.203     3302.711     1425.567        0.605        0.374       51.954       32.827        0.399      346.818       25.339      864.172
08/07/2014  10:41:00       62.671       50.569       75.576       55.965       64.884       45.408     3132.135     4209.910     2061.910        1.080        0.470       80.529       33.515        0.173      346.778       25.271      864.179
08/07/2014  10:42:00        5.751      -35.097       24.937       43.537       38.027       34.627     1895.477     1446.048     1199.000        0.321        0.227       35.566       25.900        0.530      346.423       24.659      864.177
08/07/2014  10:43:00      109.739       53.017       11.548       56.410       61.060       36.462     3182.064     3728.340     1329.494        1.161        0.412      121.874       24.703        0.041      346.308       24.462      864.163
08/07/2014  10:44:00       59.426      102.538       -0.698       51.216       52.360       38.121     2623.035     2741.568     1453.193        1.043        0.341      118.513       31.529        0.071      346.258       24.376      864.148
08/07/2014  10:45:00       91.036       97.593       -4.011       49.911       40.419       39.140     2491.064     1633.672     1531.968        1.174        0.283      133.462       24.729        0.034      346.141       24.175      864.148
08/07/2014  10:46:00      135.453       89.878       17.457       58.400       47.587       43.818     3410.589     2264.563     1920.012        1.716        0.380      162.560       27.329        0.028      346.374       24.575      864.134
08/07/2014  10:47:00      151.091       88.941       45.183       65.194       36.545       36.677     4250.243     1335.524     1345.200        1.985        0.347      175.326       26.161        0.022      346.184       24.248      864.129
08/07/2014  10:48:00       50.506       34.601       18.577       39.046       35.404       30.286     1524.577     1253.425      917.237        0.389        0.185       61.222       14.372        0.055      346.274       24.403      864.137
08/07/2014  10:49:00       60.653       73.048        9.450       37.614       30.242       25.720     1414.799      914.602      661.497        0.605        0.150       94.946       13.745        0.021      346.188       24.256      864.120
08/07/2014  10:50:00      103.332       88.118       39.241       56.306       31.470       52.672     3170.370      990.377     2774.337        1.346        0.347      135.802       26.741        0.039      346.590       24.947      864.120
08/07/2014  10:51:00      101.245       75.124       13.728       57.631       44.965       35.321     3321.366     2021.863     1247.588        1.134        0.330      126.072       22.997        0.033      346.086       24.081      864.121
08/07/2014  10:52:00      130.424       89.152       15.933       61.213       37.597       42.747     3747.062     1413.548     1827.332        1.610        0.349      157.983       33.469        0.045      346.084       24.077      864.117
08/07/2014  10:53:00      169.558      110.594       20.122       57.830       59.407       37.627     3344.365     3529.194     1415.786        2.484        0.414      202.437       25.375        0.016      346.303       24.452      864.111
08/07/2014  10:54:00      167.026       83.078       33.243       51.835       46.133       38.767     2686.878     2128.259     1502.915        2.111        0.316      186.546       18.864        0.010      346.012       23.951      864.107
08/07/2014  10:55:00      119.635       78.848       20.694       26.123       21.671       24.565      682.421      469.641      603.450        1.136        0.088      143.281       16.951        0.014      345.878       23.725      864.113
08/07/2014  10:56:00       29.031       82.596       -4.986       38.523       33.715       29.142     1483.990     1136.670      849.264        0.558        0.173       87.550       24.469        0.078      346.360       24.552      864.094
08/07/2014  10:57:00       34.776       19.997       20.852       33.253       24.791       27.663     1105.740      614.615      765.223        0.226        0.124       40.116       17.030        0.180      347.254       26.091      864.091
08/07/2014  10:58:00       49.996       64.193       94.756       61.870       48.912       45.750     3827.939     2392.416     2093.086        1.195        0.416       81.365       32.858        0.163      346.984       25.625      864.076
08/07/2014  10:59:00       75.690       62.237       47.997       60.704       52.652       35.420     3685.028     2772.239     1254.573        0.981        0.386       97.992       28.113        0.082      346.563       24.900      864.082
08/07/2014  11:00:00       84.990      -57.278       14.244       63.244       65.179       47.424     3999.836     4248.307     2249.067        1.060        0.525      102.489       53.920        0.277      346.653       25.056      864.074
08/07/2014  11:01:00       43.366      -48.346       25.279       62.849       62.245       44.277     3950.009     3874.410     1960.473        0.732        0.489       64.946       37.312        0.330      346.942       25.552      864.058
08/07/2014  11:02:00        2.967       44.602       69.162       35.648       45.792       33.157     1270.774     2096.905     1099.357        0.562        0.223       44.700       26.355        0.348      347.577       26.648      864.062
08/07/2014  11:03:00       82.409       87.587       32.022       45.382       41.765       47.948     2059.497     1744.337     2299.038        1.079        0.305      120.261       41.417        0.119      346.149       24.190      864.065
08/07/2014  11:04:00       15.742       64.216      -14.516       21.870       33.974       17.671      478.281     1154.248      312.281        0.326        0.097       66.117       13.556        0.042      346.366       24.561      864.066
08/07/2014  11:05:00       69.764       60.168       17.990       44.604       33.942       38.359     1989.524     1152.055     1471.416        0.671        0.231       92.126       24.690        0.072      346.975       25.609      864.055
08/07/2014  11:06:00       10.657       18.406       39.809       27.145       43.465       20.084      736.848     1889.169      403.385        0.253        0.151       21.268       16.894        0.631      347.509       26.531      864.058
08/07/2014  11:07:00       40.689      -59.985       30.931       55.103       87.714       54.286     3036.309     7693.668     2946.983        0.994        0.684       72.483       55.365        0.583      347.304       26.176      864.063
08/07/2014  11:08:00       78.787      112.072      104.281       92.956       58.345       53.308     8640.895     3404.091     2841.693        2.226        0.744      136.995       52.737        0.148      346.837       25.369      864.043
08/07/2014  11:09:00      116.268       69.832       53.683       77.070       54.021       48.631     5939.774     2918.239     2364.940        1.625        0.561      135.627       42.685        0.099      346.913       25.501      864.040
08/07/2014  11:10:00       10.188        2.337       36.703       25.096       46.621       25.372      629.791     2173.472      643.755        0.245        0.172       10.453       25.519        5.960      347.391       26.328      864.038
08/07/2014  11:11:00       18.730      -30.320       14.128       20.161       42.189       24.656      406.480     1779.920      607.939        0.213        0.140       35.639       25.805        0.524      346.890       25.465      864.019
08/07/2014  11:12:00        7.793      -39.308       13.364       28.018       42.842       25.379      784.985     1835.446      644.107        0.252        0.163       40.073       22.303        0.310      347.161       25.932      864.013
08/07/2014  11:13:00       41.234       56.510       61.007       32.210       42.080       44.600     1037.506     1770.709     1989.128        0.671        0.240       69.955       25.210        0.130      347.398       26.339      864.000
08/07/2014  11:14:00       68.933       93.182       79.555       62.006       54.176       49.159     3844.761     2935.042     2416.650        1.448        0.460      115.908       46.639        0.162      346.972       25.603      864.006
08/07/2014  11:15:00       51.736       42.911       58.247       55.079       51.294       36.799     3033.751     2631.075     1354.143        0.746        0.351       67.216       18.325        0.074      347.171       25.947      864.004
08/07/2014  11:16:00       -0.146      -28.643       27.585       28.175       48.860       26.937      793.848     2387.253      725.624        0.274        0.195       28.644       19.044        0.442      347.396       26.334      863.993
08/07/2014  11:17:00        1.263       19.284       19.821       29.835       78.013       30.098      890.126     6085.967      905.894        0.432        0.394       19.325       22.723        1.383      347.423       26.382      864.000
08/07/2014  11:18:00       36.838       54.707       14.860       38.461       41.398       33.279     1479.271     1713.776     1107.489        0.443        0.215       65.954       26.831        0.165      347.359       26.271      863.984
08/07/2014  11:19:00      -32.202      -52.500       -9.702       41.160       42.762       23.978     1694.116     1828.555      574.942        0.399        0.205       61.589       23.207        0.142      347.056       25.748      863.973
08/07/2014  11:20:00      -13.325      -35.504        6.475       28.002       39.139       20.661      784.096     1531.873      426.890        0.211        0.137       37.922        8.402        0.049      347.331       26.222      863.968
08/07/2014  11:21:00      -30.479        9.988       16.293       38.424       39.602       29.228     1476.413     1568.348      854.279        0.260        0.195       32.074       20.415        0.405      347.273       26.125      863.957
08/07/2014  11:22:00        1.122       16.926       36.126       26.970       54.699       42.293      727.379     2991.939     1788.698        0.355        0.275       16.963       32.446        3.659      347.728       26.908      863.955
08/07/2014  11:23:00       26.165      -42.788        0.611       61.380       63.629       39.380     3767.559     4048.669     1550.807        0.594        0.468       50.154       40.451        0.651      347.250       26.083      863.943
08/07/2014  11:24:00       59.817       60.006       50.230       59.960       52.615       46.405     3595.253     2768.345     2153.456        0.911        0.426       84.728       39.843        0.221      347.276       26.127      863.929
08/07/2014  11:25:00       17.063       20.028       56.477       39.240       50.830       41.807     1539.744     2583.728     1747.853        0.488        0.294       26.311       31.664        1.448      347.584       26.658      863.933
08/07/2014  11:26:00       49.103       29.567       12.124       67.681       40.918       33.596     4580.766     1674.272     1128.675        0.541        0.369       57.317       29.046        0.257      347.605       26.695      863.921
08/07/2014  11:27:00       93.695       73.577       36.618       50.630       64.610       52.451     2563.360     4174.462     2751.061        1.251        0.474      119.132       14.409        0.015      347.176       25.956      863.918
08/07/2014  11:28:00       39.318       13.837       -8.854      101.545       35.460       33.803    10311.453     1257.396     1142.643        0.726        0.636       41.682       26.699        0.410      346.541       24.860      863.907
08/07/2014  11:29:00       23.777       27.162       43.808       56.045       21.765       32.218     3140.987      473.727     1038.007        0.394        0.233       36.098       30.414        0.710      347.592       26.674      863.889
08/07/2014  11:30:00       86.335       67.037        5.517       35.872       28.505       29.212     1286.791      812.510      853.335        0.746        0.148      109.305       20.362        0.035      347.269       26.115      863.874
08/07/2014  11:31:00       28.613        1.870       37.741       65.143       77.906       38.569     4243.639     6069.315     1487.575        0.702        0.590       28.674       36.817        1.649      347.518       26.546      863.863
08/07/2014  11:32:00       73.806      -56.977       13.361       62.162       80.058       56.347     3864.061     6409.279     3174.996        1.116        0.672       93.240       57.483        0.380      347.558       26.615      863.857
08/07/2014  11:33:00       85.679     -120.560      -25.474       46.543       43.867       26.790     2166.297     1924.322      717.706        1.367        0.240      147.904       23.569        0.025      346.793       25.297      863.859
08/07/2014  11:34:00       43.467      -35.833       29.290       48.127       87.284       45.077     2316.229     7618.555     2031.965        0.800        0.598       56.333       46.097        0.670      347.127       25.871      863.860
08/07/2014  11:35:00       57.314       27.029       37.594       41.105       63.322       45.722     1689.616     4009.712     2090.461        0.661        0.389       63.368       45.257        0.510      347.031       25.706      863.873
08/07/2014  11:36:00       24.333       25.678       43.238       33.115       40.319       25.619     1096.602     1625.622      656.357        0.325        0.169       35.376       15.268        0.186      347.302       26.174      863.871
08/07/2014  11:37:00       48.702       61.062       -6.825       40.703       50.801       25.255     1656.765     2580.697      637.835        0.551        0.244       78.106       14.154        0.033      346.931       25.535      863.870
08/07/2014  11:38:00        9.535      -40.147      -23.040       42.424       33.229       17.397     1799.803     1104.148      302.639        0.272        0.160       41.263       10.543        0.065      346.944       25.555      863.867
08/07/2014  11:39:00      -16.325      -21.349       -4.023       22.257       38.845       27.356      495.380     1508.951      748.374        0.175        0.138       26.876       19.340        0.518      347.490       26.498      863.885
08/07/2014  11:40:00      -11.775      -70.601       10.231       34.654       36.379       36.647     1200.915     1323.407     1343.024        0.455        0.193       71.576        5.083        0.005      347.118       25.856      863.876
08/07/2014  11:41:00      -34.111      -31.657       16.684       69.152       49.124       36.818     4781.989     2413.202     1355.590        0.550        0.428       46.537       38.995        0.702      347.728       26.910      863.861
08/07/2014  11:42:00      -47.149      -93.041        2.081       45.843       47.047       26.561     2101.544     2213.432      705.482        0.795        0.251      104.305       23.585        0.051      346.839       25.376      863.862
08/07/2014  11:43:00       -9.368     -100.702        6.447       32.015       80.802       28.574     1024.951     6528.945      816.455        0.932        0.419      101.137       34.488        0.116      346.926       25.527      863.843
08/07/2014  11:44:00      -35.105     -129.050        5.555       32.092       39.879       20.304     1029.928     1590.325      412.263        1.047        0.152      133.740       16.572        0.015      346.701       25.138      863.836
08/07/2014  11:45:00      -13.336     -151.623        0.038       16.971       27.661       14.731      288.015      765.122      216.995        1.222        0.064      152.208       10.832        0.005      346.497       24.786      863.824
08/07/2014  11:46:00      -43.050      -87.317       19.122       24.906       52.158       29.517      620.326     2720.451      871.263        0.703        0.211       97.353       22.170        0.052      346.910       25.498      863.798
08/07/2014  11:47:00      -18.271       16.885       57.119       27.716       49.912       21.951      768.180     2491.248      481.849        0.381        0.187       24.878       22.908        0.848      348.050       27.465      863.795
08/07/2014  11:48:00       50.127       53.541       32.744       29.239       27.970       31.383      854.925      782.324      984.873        0.454        0.131       73.344       13.440        0.034      347.230       26.048      863.790
08/07/2014  11:49:00       86.274       58.616       23.825       75.596       46.633       47.238     5714.748     2174.674     2231.420        1.078        0.506      104.302       33.087        0.101      347.156       25.921      863.777
08/07/2014  11:50:00       70.799       85.097       -2.560       59.918       48.065       34.329     3590.197     2310.280     1178.504        0.967        0.354      110.698       27.274        0.061      347.138       25.891      863.762
08/07/2014  11:51:00       36.642       74.534        1.279       53.754       47.661       28.753     2889.453     2271.543      826.758        0.644        0.299       83.054       27.561        0.110      347.539       26.583      863.752
08/07/2014  11:52:00      105.182       65.120       27.618       67.560       57.337       36.649     4564.290     3287.557     1343.183        1.263        0.460      123.709       13.020        0.011      347.450       26.427      863.738
08/07/2014  11:53:00       53.464       24.614       48.517       67.149       39.330       36.733     4509.015     1546.843     1349.342        0.661        0.370       58.857       24.953        0.180      347.905       27.213      863.715
08/07/2014  11:54:00       28.302       74.227        1.387       47.276       53.455       38.381     2234.997     2857.468     1473.120        0.644        0.328       79.440       26.363        0.110      347.773       26.985      863.712
08/07/2014  11:55:00       61.470       47.768        8.462       46.815       31.504       28.768     2191.646      992.510      827.608        0.507        0.201       77.848       11.098        0.020      347.365       26.281      863.704
08/07/2014  11:56:00       41.073       23.103       -2.869       38.347       36.262       35.276     1470.466     1314.951     1244.367        0.313        0.201       47.124       22.711        0.232      347.351       26.258      863.713
08/07/2014  11:57:00      100.819        8.318        5.305       50.517       59.455       40.133     2551.977     3534.848     1610.656        0.898        0.385      101.161       27.494        0.074      347.440       26.409      863.715
08/07/2014  11:58:00       12.480      -14.880       54.494       59.379       87.110       50.704     3525.900     7588.115     2570.929        0.851        0.684       19.420       55.359        8.126      348.087       27.528      863.709
08/07/2014  11:59:00       11.948      -38.794       46.857       43.488       64.143       47.384     1891.215     4114.373     2245.285        0.605        0.413       40.592       46.064        1.288      348.384       28.042      863.711
08/07/2014  12:00:00       27.318        2.253       57.608       57.614       59.783       45.498     3319.347     3574.060     2070.052        0.651        0.448       27.411       36.057        1.730      348.242       27.797      863.723
08/07/2014  12:01:00      -19.407       -0.314       50.270       32.188       45.855       31.881     1036.042     2102.644     1016.409        0.353        0.208       19.409       28.527        2.160      348.375       28.026      863.725
08/07/2014  12:02:00      -41.129       -1.614       50.731       35.720       83.096       45.514     1275.935     6904.917     2071.515        0.726        0.513       41.161       55.370        1.810      347.810       27.051      863.723
08/07/2014  12:03:00        3.086       43.219       76.066       30.585       44.167       32.579      935.413     1950.753     1061.408        0.580        0.197       43.329       24.052        0.308      348.087       27.529      863.730
08/07/2014  12:04:00       61.073       55.220       30.768       37.765       47.445       42.926     1426.229     2251.041     1842.613        0.662        0.276       82.336       23.936        0.085      347.750       26.945      863.727
08/07/2014  12:05:00      108.293       91.811       20.047       95.842       53.440       49.020     9185.701     2855.794     2402.953        1.750        0.722      141.974       41.216        0.084      347.594       26.676      863.712
08/07/2014  12:06:00      137.438       75.499       56.673       72.514       63.716       57.829     5258.285     4059.751     3344.192        2.023        0.633      156.810       42.593        0.074      347.450       26.427      863.707
08/07/2014  12:07:00        3.585       13.845       16.325       35.186       35.088       28.322     1238.089     1231.160      802.121        0.187        0.164       14.302       23.963        2.807      348.091       27.535      863.686
08/07/2014  12:08:00      -17.739       13.674        5.860       55.718       38.494       27.847     3104.533     1481.761      775.469        0.295        0.268       22.397       19.215        0.736      347.917       27.232      863.682
08/07/2014  12:09:00       10.433      -12.814       43.144       45.800       61.256       38.934     2097.661     3752.341     1515.841        0.475        0.368       16.524       31.042        3.529      348.276       27.854      863.656
08/07/2014  12:10:00       86.628      -53.691       41.501       83.861       74.192       51.833     7032.628     5504.480     2686.704        1.366        0.761      101.917       50.321        0.244      347.796       27.025      863.653
08/07/2014  12:11:00      106.164       64.289       67.316       93.276       55.492       53.386     8700.384     3079.359     2850.065        1.728        0.731      124.113       54.930        0.196      347.619       26.719      863.638
08/07/2014  12:12:00      126.055       57.731       20.827       61.548       60.150       40.831     3788.132     3618.053     1667.200        1.436        0.454      138.646       29.433        0.045      347.484       26.486      863.624
08/07/2014  12:13:00      126.795     -167.708      -20.291       90.099      107.126       43.327     8117.853    11476.043     1877.219        3.304        1.074      210.245       55.886        0.071      347.495       26.502      863.627
08/07/2014  12:14:00      169.191     -191.939      -53.189       84.488       69.333       31.055     7138.200     4807.021      964.426        4.060        0.645      255.864       33.379        0.017      347.142       25.894      863.617
08/07/2014  12:15:00       18.722     -108.992      -22.954       47.508       73.264       31.230     2257.032     5367.680      975.330        1.068        0.430      110.589       35.706        0.104      347.420       26.376      863.632
08/07/2014  12:16:00       18.045     -107.624       -3.474       58.091       68.213       42.641     3374.545     4653.005     1818.295        1.088        0.492      109.127       37.944        0.121      347.658       26.786      863.611
08/07/2014  12:17:00       11.647      -27.733       15.320       44.759       36.452       35.222     2003.396     1328.729     1240.571        0.286        0.229       30.080       22.713        0.570      348.090       27.533      863.612
08/07/2014  12:18:00       21.938       -8.386       47.117       30.951       76.894       43.273      957.980     5912.716     1872.533        0.576        0.437       23.486       49.207        4.390      348.287       27.874      863.618
08/07/2014  12:19:00       21.629       45.972       78.125       42.472       63.394       39.364     1803.858     4018.798     1549.488        0.803        0.369       50.806       42.793        0.709      347.883       27.176      863.601
08/07/2014  12:20:00        7.440       56.518       74.289       35.366       53.995       30.386     1250.726     2915.502      923.281        0.693        0.254       57.005       30.305        0.283      347.966       27.319      863.593
08/07/2014  12:21:00       27.449       16.516       39.085       34.084       28.968       28.132     1161.717      839.141      791.389        0.267        0.140       32.035       22.475        0.492      348.307       27.908      863.584
08/07/2014  12:22:00       42.148       60.571       78.421       58.824       64.081       49.060     3460.270     4106.323     2406.849        1.078        0.499       73.792       48.359        0.429      348.213       27.745      863.561
08/07/2014  12:23:00      133.589       60.760       35.296      115.148      118.047       76.044    13259.084    13935.009     5782.750        2.787        1.649      146.758       83.744        0.326      347.209       26.010      863.553
08/07/2014  12:24:00       53.994       41.252       10.107       47.902       44.047       38.452     2294.589     1940.101     1478.577        0.522        0.286       67.949       34.388        0.256      347.892       27.190      863.535
08/07/2014  12:25:00       91.252      102.968       81.849       97.835       71.679       82.288     9571.750     5137.893     6771.246        2.355        1.074      137.584       77.403        0.317      347.835       27.089      863.511
08/07/2014  12:26:00      107.855      104.863      124.294      105.288       82.734       66.643    11085.555     6844.856     4441.266        3.022        1.119      150.429       60.755        0.163      347.335       26.226      863.513
08/07/2014  12:27:00      117.206      102.688       60.934       58.845       68.081       47.082     3462.747     4635.021     2216.698        1.915        0.516      155.827       43.915        0.079      347.380       26.306      863.508
08/07/2014  12:28:00       24.675       -7.470       50.459       45.724       71.551       42.697     2090.664     5119.524     1823.072        0.612        0.452       25.781       47.955        3.460      348.093       27.538      863.483
08/07/2014  12:29:00       75.180       37.356       70.779       54.301       63.230       38.238     2948.568     3998.076     1462.121        1.023        0.420       83.950       25.588        0.093      347.972       27.330      863.487
08/07/2014  12:30:00       36.435       12.132       48.640       57.757       97.733       48.216     3335.878     9551.833     2324.779        0.952        0.761       38.401       62.973        2.689      347.955       27.298      863.480
08/07/2014  12:31:00       52.861     -104.804       -4.549       60.685       64.891       41.304     3682.656     4210.896     1706.033        1.170        0.480      117.381       31.125        0.070      347.436       26.404      863.479
08/07/2014  12:32:00      -79.453       -8.153       -9.886       65.517       49.872       30.003     4292.535     2487.172      900.195        0.708        0.384       79.870       22.075        0.076      347.499       26.513      863.439
08/07/2014  12:33:00      -40.309      -35.310       13.289       50.970       48.181       30.128     2597.937     2321.398      907.716        0.444        0.291       53.588       31.067        0.336      348.048       27.460      863.423
08/07/2014  12:34:00      -16.451       -3.344       29.139       19.163       40.987       26.502      367.207     1679.913      702.359        0.194        0.137       16.787       26.054        2.409      348.116       27.579      863.415
08/07/2014  12:35:00       -3.383       -1.038       12.751       45.745       57.702       32.098     2092.626     3329.521     1030.277        0.331        0.323        3.539       28.280       63.861      347.925       27.246      863.391
08/07/2014  12:36:00       52.699     -161.280       -6.138       69.873      103.205       58.700     4882.295    10651.181     3445.661        2.390        0.949      169.672       59.307        0.122      347.782       26.997      863.363
08/07/2014  12:37:00      -26.069      -15.974       37.722       37.080       57.675       39.249     1374.929     3326.435     1540.467        0.430        0.312       30.574       40.506        1.755      348.458       28.169      863.354
08/07/2014  12:38:00      152.643      149.276       68.086       71.838       53.041       77.248     5160.760     2813.359     5967.208        3.208        0.697      213.502       46.673        0.048      347.493       26.497      863.354
08/07/2014  12:39:00       59.187       22.380       22.488       61.177       62.754       39.397     3742.637     3938.013     1552.143        0.687        0.462       63.277       40.732        0.414      347.670       26.806      863.342
08/07/2014  12:40:00        9.734       59.794        5.048       29.285       46.215       32.967      857.628     2135.872     1086.854        0.389        0.204       60.581       32.675        0.291      348.173       27.677      863.327
08/07/2014  12:41:00       15.788        7.155       19.742       29.008       37.834       23.812      841.486     1431.430      567.021        0.176        0.142       17.334        7.168        0.171      348.681       28.554      863.319
08/07/2014  12:42:00       17.003       11.976       14.344       68.202       75.631       35.191     4651.469     5720.098     1238.439        0.612        0.581       20.797       36.936        3.154      348.415       28.094      863.305
08/07/2014  12:43:00       92.451       99.824       94.883       77.040       61.181       59.786     5935.180     3743.091     3574.330        2.038        0.663      136.059       52.305        0.148      348.132       27.605      863.294
08/07/2014  12:44:00       36.982        8.377       72.758       55.099       77.945       47.012     3035.882     6075.354     2210.097        0.902        0.566       37.919       50.599        1.781      348.138       27.615      863.279
08/07/2014  12:45:00       92.723       98.923       64.930       67.965       49.942       50.570     4619.185     2494.171     2557.331        1.613        0.484      135.585       37.208        0.075      348.021       27.413      863.275
08/07/2014  12:46:00      119.680       58.297       55.547       85.059       79.326       55.026     7235.098     6292.599     3027.908        1.868        0.828      133.123       51.666        0.151      348.309       27.910      863.265
08/07/2014  12:47:00      114.578       86.540       63.484       71.396       53.429       64.296     5097.407     2854.698     4134.012        1.836        0.604      143.587       35.985        0.063      347.914       27.226      863.245
08/07/2014  12:48:00      138.976      105.833      100.132       85.974       87.596       60.107     7391.519     7673.082     3612.801        2.961        0.934      174.686       56.334        0.104      348.072       27.499      863.228
08/07/2014  12:49:00       91.121      122.043      115.387      107.411       73.324       77.094    11537.033     5376.456     5943.457        2.968        1.143      152.307       74.738        0.241      348.013       27.399      863.226
08/07/2014  12:50:00       33.651       58.539      103.318       51.570       61.914       42.408     2659.486     3833.320     1798.476        1.176        0.415       67.522       32.967        0.238      348.237       27.787      863.207
08/07/2014  12:51:00      102.677      142.617      157.638      115.527       80.555       65.156    13346.449     6489.049     4245.320        3.990        1.204      175.733       62.711        0.127      347.882       27.169      863.191
08/07/2014  12:52:00      155.462      165.364      143.093       97.643       72.508       76.325     9534.233     5257.361     5825.555        4.630        1.031      226.966       63.127        0.077      347.817       27.057      863.195
08/07/2014  12:53:00      216.197      119.745       26.400       87.240       70.955       66.060     7610.841     5034.612     4363.962        3.939        0.850      247.144       24.533        0.010      347.660       26.786      863.194
08/07/2014  12:54:00      150.102       83.731        9.556      102.319       67.669       70.655    10469.180     4579.112     4992.116        2.483        1.002      171.876       21.806        0.016      347.828       27.077      863.185
08/07/2014  12:55:00       88.014       71.764       40.672       84.105       84.949       75.635     7073.691     7216.352     5720.578        1.728        1.001      113.563       61.508        0.293      348.095       27.539      863.179
08/07/2014  12:56:00       90.811      130.640      115.352       96.337       71.393       68.786     9280.750     5097.026     4731.513        2.886        0.955      159.103       66.891        0.177      347.793       27.016      863.174
08/07/2014  12:57:00      130.564      106.783       40.908       56.834       50.745       50.229     3230.137     2575.105     2522.921        1.922        0.416      168.670       32.286        0.037      347.774       26.986      863.183
08/07/2014  12:58:00        7.287       34.407       11.769       50.977       60.615       38.333     2598.683     3674.151     1469.435        0.456        0.387       35.171       30.252        0.740      348.158       27.651      863.178
08/07/2014  12:59:00        3.484       -9.565       10.792       42.451       46.752       28.439     1802.118     2185.725      808.799        0.251        0.240       10.180       20.746        4.153      348.545       28.320      863.176
08/07/2014  13:00:00      -27.247      -22.926        7.083       47.214       54.148       39.050     2229.175     2931.958     1524.896        0.400        0.334       35.609       20.480        0.331      348.395       28.060      863.183
08/07/2014  13:01:00      -54.587      -31.833       -0.440       40.205       32.499       27.955     1616.460     1056.205      781.466        0.372        0.173       63.191       21.210        0.113      348.031       27.431      863.176
08/07/2014  13:02:00      -10.474      -75.702      -10.113       68.846       51.880       24.937     4739.802     2691.543      621.876        0.700        0.403       76.423       18.572        0.059      347.902       27.209      863.166
08/07/2014  13:03:00      -64.639      -11.542        5.561       33.036       25.169       26.880     1091.379      633.473      722.536        0.339        0.122       65.661       18.823        0.082      348.271       27.845      863.144
08/07/2014  13:04:00      -15.164      -11.845        9.992       33.846       28.942       24.003     1145.541      837.624      576.122        0.151        0.128       19.242       15.553        0.653      348.494       28.232      863.128
08/07/2014  13:05:00        8.111       32.773        8.547       62.555       39.533       31.963     3913.131     1562.822     1021.651        0.385        0.325       33.761       36.387        1.162      348.196       27.716      863.130
08/07/2014  13:06:00       83.623       38.140       48.140       49.192       56.783       32.087     2419.839     3224.352     1029.577        0.872        0.334       91.910       33.890        0.136      347.973       27.333      863.121
08/07/2014  13:07:00       23.322       22.261       46.392       44.743       33.964       28.089     2001.898     1153.557      788.974        0.357        0.197       32.241       19.993        0.385      348.484       28.214      863.105
08/07/2014  13:08:00       38.849      -33.824       11.308       34.951       32.237       31.975     1221.591     1039.220     1022.388        0.303        0.164       51.510       21.341        0.172      348.056       27.474      863.087
08/07/2014  13:09:00        0.535       -3.601       14.105       19.658       26.579       24.066      386.442      706.463      579.152        0.094        0.084        3.640        8.414        5.342      348.593       28.404      863.068
08/07/2014  13:10:00       23.455       -3.319       16.472       31.678       31.206       25.863     1003.491      973.791      668.882        0.174        0.132       23.689       17.777        0.563      348.328       27.946      863.066
08/07/2014  13:11:00       22.077       -4.123       16.063       45.494       68.360       31.629     2069.743     4673.098     1000.415        0.425        0.387       22.459       14.437        0.413      348.425       28.113      863.065
08/07/2014  13:12:00       22.258      -14.361       15.675       20.355       31.363       20.306      414.313      983.616      412.330        0.138        0.091       26.489       13.661        0.266      348.485       28.216      863.068
08/07/2014  13:13:00        9.531        3.616       31.523       20.415       31.356       26.113      416.768      983.185      681.885        0.159        0.104       10.194       24.973        6.001      348.823       28.802      863.070
08/07/2014  13:14:00       72.741       -6.482       48.508       78.717       99.301       46.410     6196.384     9860.714     2153.892        1.294        0.911       73.029       47.621        0.425      348.559       28.342      863.060
08/07/2014  13:15:00       69.791      -37.699       42.882       45.836      107.373       54.563     2100.953    11529.008     2977.122        1.237        0.830       79.322       57.956        0.534      348.303       27.901      863.050
08/07/2014  13:16:00       75.527      -53.269       26.015       57.057      105.577       53.134     3255.549    11146.518     2823.209        1.322        0.861       92.422       59.947        0.421      348.447       28.151      863.034
08/07/2014  13:17:00      116.094      143.982      152.426      129.016       96.864       77.936    16645.178     9382.644     6073.965        4.477        1.605      184.955       72.376        0.153      348.167       27.662      863.013
08/07/2014  13:18:00      176.318      125.165       80.401      124.647       77.812       78.166    15536.763     6054.770     6109.919        4.045        1.385      216.228       69.579        0.104      348.094       27.537      863.003
08/07/2014  13:19:00       74.533       44.961       92.404       86.942       90.488       51.742     7558.946     8188.063     2677.201        1.727        0.921       87.044       58.368        0.450      348.463       28.177      863.012
08/07/2014  13:20:00       53.350       41.144       78.213       70.859       72.389       48.280     5020.989     5240.124     2330.988        1.162        0.630       67.373       48.553        0.519      348.412       28.088      863.010
08/07/2014  13:21:00       78.296      -16.725       25.247       52.308       71.326       42.657     2736.094     5087.423     1819.618        0.834        0.482       80.063       41.537        0.269      348.287       27.872      862.986
08/07/2014  13:22:00      108.313      -63.127       21.817       54.453       92.520       58.678     2965.075     8559.938     3443.053        1.558        0.748      125.366       53.890        0.185      348.465       28.180      862.982
08/07/2014  13:23:00       72.646       65.103       79.057       80.446       72.916       55.686     6471.497     5316.777     3100.884        1.532        0.744       97.549       54.178        0.308      348.368       28.014      862.975
08/07/2014  13:24:00       79.061       86.675       81.311       75.579       77.334       65.169     5712.158     5980.566     4246.939        1.815        0.797      117.317       60.671        0.267      348.179       27.684      862.967
08/07/2014  13:25:00       62.152       54.474        8.013       45.395       38.478       34.399     2060.679     1480.531     1183.271        0.581        0.236       82.645       25.660        0.096      348.295       27.887      862.963
08/07/2014  13:26:00       19.204      -38.202       21.930       43.517       55.477       27.827     1893.698     3077.698      774.342        0.403        0.287       42.757       27.514        0.414      348.871       28.885      862.956
08/07/2014  13:27:00       32.553       13.253       31.367       46.153       43.727       26.897     2130.075     1912.036      723.436        0.349        0.238       35.147       18.513        0.277      348.838       28.826      862.946
08/07/2014  13:28:00       32.406       89.988       -2.930       43.205       48.293       40.411     1866.679     2332.170     1633.039        0.749        0.292       95.645       30.178        0.100      348.367       28.011      862.931
08/07/2014  13:29:00      -40.624       65.391       12.873       89.752       63.170       44.235     8055.504     3990.414     1956.723        1.004        0.700       76.983       34.524        0.201      348.289       27.877      862.928
08/07/2014  13:30:00      -63.240       24.735      -13.981       59.577       48.036       38.285     3549.400     2307.474     1465.745        0.606        0.366       67.905       37.248        0.301      347.954       27.297      862.923
08/07/2014  13:31:00      -14.159       58.466      -29.029       30.231       64.919       27.413      913.912     4214.491      751.498        0.517        0.294       60.156       21.208        0.124      348.013       27.399      862.906
08/07/2014  13:32:00      -20.314       33.592        4.787       36.354       82.942       31.118     1321.604     6879.455      968.330        0.536        0.458       39.257       10.277        0.069      348.390       28.051      862.873
08/07/2014  13:33:00      -60.719      127.662      -20.303       40.540       86.217       33.039     1643.465     7433.423     1091.551        1.528        0.508      141.366       27.725        0.038      348.095       27.540      862.868
08/07/2014  13:34:00      -45.574       95.800       11.721       51.585       84.726       42.184     2660.961     7178.563     1779.463        1.150        0.581      106.087       46.570        0.193      348.607       28.426      862.856
08/07/2014  13:35:00       -2.521      127.277       -5.466       33.360       41.095       30.153     1112.899     1688.812      909.191        0.997        0.186      127.302       26.371        0.043      348.396       28.062      862.835
08/07/2014  13:36:00      -11.440       84.107        5.190       25.395       55.078       28.687      644.916     3033.586      822.920        0.587        0.225       84.881       27.690        0.106      348.638       28.482      862.834
08/07/2014  13:37:00       17.701       69.431       -2.398       19.901       57.383       33.800      396.055     3292.845     1142.447        0.498        0.242       71.652       34.812        0.236      348.583       28.385      862.840
08/07/2014  13:38:00        5.415      -41.807       15.482       47.439       30.478       28.199     2250.467      928.927      795.160        0.299        0.199       42.156       18.591        0.194      348.686       28.565      862.832
08/07/2014  13:39:00      -14.948      -35.479       29.663       47.869       53.654       27.784     2291.489     2878.699      771.940        0.415        0.297       38.500       25.617        0.443      349.140       29.351      862.818
08/07/2014  13:40:00       -5.595      -23.852       18.943       42.080       55.902       32.564     1770.740     3125.021     1060.399        0.346        0.298       24.499       33.341        1.852      348.712       28.609      862.824
08/07/2014  13:41:00      -57.731      -30.688       31.215       38.727       62.401       30.608     1499.779     3893.825      936.871        0.579        0.317       65.380       18.986        0.084      348.701       28.588      862.805
08/07/2014  13:42:00      -47.777     -108.892       -9.612       78.225       52.375       49.789     6119.155     2743.089     2478.932        1.278        0.567      118.912       32.336        0.074      348.675       28.544      862.796
08/07/2014  13:43:00      -82.204      -38.114        9.396       66.590       53.295       32.575     4434.292     2840.320     1061.110        0.832        0.417       90.610       29.169        0.104      348.692       28.572      862.797
08/07/2014  13:44:00      -27.376      -29.727       10.777       62.842       38.839       35.271     3949.119     1508.496     1244.013        0.422        0.335       40.412       36.402        0.811      349.012       29.129      862.791
08/07/2014  13:45:00      -76.205      -38.359       -5.837       35.367       45.112       20.800     1250.801     2035.069      432.644        0.551        0.186       85.315       17.122        0.040      348.055       27.473      862.780
08/07/2014  13:46:00     -136.465      -46.302      -10.488       59.430       86.188       33.262     3531.873     7428.422     1106.392        1.647        0.603      144.106       31.372        0.047      348.088       27.529      862.766
08/07/2014  13:47:00      -22.080        8.278       15.293       35.932       19.955       17.329     1291.073      398.211      300.304        0.139        0.099       23.581        6.055        0.066      349.035       29.170      862.758
08/07/2014  13:48:00      -56.595       27.158       -8.100       57.295       31.220       20.931     3282.757      974.714      438.125        0.435        0.235       62.774       14.353        0.052      348.552       28.332      862.736
08/07/2014  13:49:00      -20.724       44.727       18.871       39.590       42.222       36.150     1567.374     1782.713     1306.853        0.372        0.233       49.295       36.017        0.534      348.919       28.966      862.726
08/07/2014  13:50:00       54.131       34.505       11.875       30.847       24.334       24.923      951.533      592.128      621.141        0.321        0.108       64.193       17.724        0.076      348.414       28.093      862.708
08/07/2014  13:51:00       19.587       27.665        8.523       22.169       24.653       20.183      491.455      607.778      407.338        0.136        0.075       33.897       12.294        0.132      348.856       28.858      862.683
08/07/2014  13:52:00       -4.423       14.544       11.387       16.496       19.881       22.457      272.121      395.243      504.320        0.077        0.059       15.202       14.569        0.918      349.338       29.694      862.684
08/07/2014  13:53:00       53.058        1.710       14.937       43.652       45.672       31.365     1905.499     2085.921      983.767        0.401        0.249       53.085       25.259        0.226      348.387       28.047      862.677
08/07/2014  13:54:00       -7.621      -37.886        0.959       21.480       59.749       23.887      461.370     3569.975      570.595        0.305        0.230       38.645       19.788        0.262      348.869       28.880      862.675
08/07/2014  13:55:00      -36.007      141.229       -4.135       49.470       74.391       40.932     2447.289     5534.085     1675.394        1.546        0.483      145.747       38.199        0.069      348.492       28.228      862.688
08/07/2014  13:56:00      -19.681      118.074       -6.242       28.028       58.681       30.132      785.563     3443.480      907.922        0.975        0.257      119.703       28.998        0.059      348.371       28.017      862.675
08/07/2014  13:57:00        8.317      148.304      -20.949       20.787       55.477       24.726      432.105     3077.743      611.381        1.331        0.206      148.537       24.749        0.028      348.165       27.662      862.671
08/07/2014  13:58:00      -18.472      132.527      -30.999       25.036       52.354       22.870      626.802     2740.969      523.022        1.138        0.195      133.808       16.578        0.015      348.121       27.585      862.658
08/07/2014  13:59:00      -26.109       21.383       19.071       26.046       22.352       26.987      678.378      499.594      728.301        0.170        0.095       33.747       20.015        0.352      348.997       29.102      862.662
08/07/2014  14:00:00      -19.673       -4.229       21.897       26.807       24.380       17.299      718.632      594.362      299.262        0.125        0.081       20.123       10.256        0.260      349.329       29.677      862.650
08/07/2014  14:01:00      -51.245        1.064        6.386       27.625       27.397       20.211      763.133      750.594      408.485        0.229        0.096       51.256        9.383        0.034      348.831       28.814      862.636
08/07/2014  14:02:00      -99.766       23.398       -0.076       62.192       51.436       25.903     3867.818     2645.708      670.983        0.884        0.359      102.473       20.602        0.040      348.952       29.023      862.633
08/07/2014  14:03:00      -13.118      -47.796       -5.450       65.148       43.788       35.776     4244.309     1917.353     1279.894        0.496        0.372       49.563       22.064        0.198      348.916       28.961      862.644
08/07/2014  14:04:00      -42.767       26.606       14.908       55.353       28.996       35.274     3063.979      840.760     1244.289        0.395        0.257       50.368       18.748        0.139      349.124       29.323      862.618
08/07/2014  14:05:00       -1.313       10.588       16.379       37.561       31.793       26.491     1410.859     1010.764      701.797        0.175        0.156       10.669       19.371        3.296      349.577       30.107      862.601
08/07/2014  14:06:00      -29.055      -23.477       16.084       49.325       37.807       26.909     2432.995     1429.380      724.103        0.312        0.229       37.355       27.144        0.528      349.472       29.926      862.590
08/07/2014  14:07:00       10.168     -123.042       -5.923       74.110       61.325       34.112     5492.220     3760.800     1163.650        1.285        0.521      123.461       26.391        0.046      348.660       28.517      862.593
08/07/2014  14:08:00      -23.418     -163.567      -16.064       25.607       34.401       21.019      655.739     1183.411      441.794        1.492        0.114      165.235       15.060        0.008      347.975       27.332      862.592
08/07/2014  14:09:00      -30.167     -142.307       -4.600       44.551       46.800       31.324     1984.827     2190.201      981.199        1.317        0.258      145.470       15.040        0.011      348.315       27.921      862.576
08/07/2014  14:10:00      -63.898      -59.985       12.897       82.557       42.094       38.114     6815.609     1771.878     1452.694        0.894        0.502       87.642       29.982        0.117      348.804       28.767      862.576
08/07/2014  14:11:00     -113.110        5.573      -17.406       22.489       22.681       13.312      505.773      514.407      177.207        0.716        0.060      113.247        7.923        0.005      348.130       27.601      862.596
08/07/2014  14:12:00      -41.655      -13.638      -21.667       64.805       49.475       24.530     4199.712     2447.800      601.698        0.482        0.362       43.831       17.553        0.160      348.421       28.104      862.590
08/07/2014  14:13:00      -34.936       84.087       -5.685       91.516      102.001       53.832     8375.119    10404.170     2897.851        1.500        1.084       91.056       49.505        0.296      348.731       28.641      862.560
08/07/2014  14:14:00     -106.743        6.487       -1.621       48.495       58.521       28.726     2351.740     3424.665      825.175        0.902        0.330      106.940       24.470        0.052      348.857       28.858      862.564
08/07/2014  14:15:00      -85.456      -27.400       22.294      102.622       61.416       41.751    10531.307     3771.924     1743.124        1.230        0.802       89.742       54.515        0.369      349.003       29.113      862.564
08/07/2014  14:16:00      -71.266       46.125        9.943       69.022       64.951       47.229     4763.978     4218.614     2230.607        0.926        0.561       84.890       35.758        0.177      349.102       29.284      862.559
08/07/2014  14:17:00      -41.694      -40.237        6.788       79.721       79.502       45.100     6355.462     6320.523     2033.998        0.905        0.735       57.943       43.821        0.572      348.863       28.870      862.565
08/07/2014  14:18:00      -23.130       38.179       25.779       45.402       35.875       27.972     2061.376     1287.050      782.438        0.339        0.207       44.639       24.967        0.313      349.089       29.261      862.565
08/07/2014  14:19:00      -15.143       20.142        4.937       31.209       27.605       23.251      973.987      762.026      540.591        0.147        0.114       25.199       15.086        0.358      349.017       29.137      862.568
08/07/2014  14:20:00      -20.711      -67.410       -3.248       44.452       63.278       21.426     1975.960     4004.131      459.085        0.571        0.322       70.520       22.292        0.100      348.489       28.223      862.561
08/07/2014  14:21:00      -34.694      -20.705        3.057       29.905       28.993       16.472      894.306      840.579      271.343        0.182        0.100       40.402        9.012        0.050      348.623       28.453      862.549
08/07/2014  14:22:00        4.602      -12.102       38.146       38.282       61.537       47.452     1465.538     3786.820     2251.701        0.456        0.375       12.948       42.804       10.929      349.300       29.626      862.545
08/07/2014  14:23:00      -49.541       39.154       33.523       56.728       42.744       31.990     3218.028     1827.029     1023.377        0.559        0.303       63.146       17.699        0.079      349.013       29.130      862.544
08/07/2014  14:24:00      -51.084       -0.673      -11.559       48.113       53.968       28.294     2314.851     2912.575      800.548        0.438        0.301       51.089       18.729        0.134      348.972       29.058      862.541
08/07/2014  14:25:00      -60.657      -10.080       12.798       47.274       44.922       30.120     2234.793     2018.026      907.236        0.455        0.258       61.489       23.908        0.151      349.150       29.368      862.525
08/07/2014  14:26:00      -45.774        7.711        9.232       50.362       32.180       26.073     2536.380     1035.537      679.791        0.324        0.213       46.419       22.537        0.236      349.247       29.536      862.509
08/07/2014  14:27:00      -47.526      -15.927       15.273       49.052       40.396       26.751     2406.063     1631.845      715.633        0.375        0.238       50.124       23.854        0.226      349.277       29.589      862.502
08/07/2014  14:28:00      -67.961      -38.404        5.887       73.100       50.123       30.633     5343.679     2512.268      938.375        0.746        0.440       78.061       36.312        0.216      348.743       28.661      862.482
08/07/2014  14:29:00      -66.711      -55.687        6.171       72.635       51.963       31.944     5275.876     2700.110     1020.419        0.829        0.450       86.899       41.191        0.225      348.638       28.481      862.482
08/07/2014  14:30:00      -64.434      -95.665       -5.582       28.568       26.258       16.937      816.103      689.456      286.874        0.756        0.090      115.341       12.608        0.012      348.162       27.654      862.478
08/07/2014  14:31:00      -58.858      -68.940       -3.092       46.642       43.423       24.840     2175.448     1885.564      617.015        0.645        0.234       90.647       22.740        0.063      348.423       28.108      862.459
08/07/2014  14:32:00      -58.815      -70.301       -0.959       35.903       38.014       22.746     1289.002     1445.055      517.374        0.583        0.163       91.659       24.963        0.074      348.371       28.019      862.446
08/07/2014  14:33:00        4.923      -43.004       -7.067       50.727       35.839       27.211     2573.262     1284.409      740.424        0.326        0.230       43.285       16.054        0.138      348.567       28.357      862.433
08/07/2014  14:34:00      171.801     -176.433      -10.693      105.453      140.933       67.674    11120.355    19862.118     4579.823        4.815        1.778      246.261       85.745        0.121      348.759       28.687      862.408
08/07/2014  14:35:00      119.525        1.901       53.598      100.345      104.433       65.014    10069.105    10906.260     4226.792        2.118        1.260      119.540       82.610        0.478      348.960       29.036      862.415
08/07/2014  14:36:00       47.670      -60.577       13.101       50.388       73.843       45.254     2538.986     5452.856     2047.946        0.807        0.502       77.084       35.552        0.213      349.048       29.191      862.398
08/07/2014  14:37:00      111.583     -214.156      -49.390       72.425       92.404       52.405     5245.431     8538.521     2746.279        3.864        0.827      241.482       33.317        0.019      348.493       28.225      862.368
08/07/2014  14:38:00       41.451       22.813       16.454       62.155       67.478       61.652     3863.294     4553.245     3801.024        0.736        0.611       47.314       31.346        0.439      348.636       28.477      862.336
08/07/2014  14:39:00       27.285     -143.477      -11.090       70.185      159.255       62.046     4925.988    25362.149     3849.747        2.779        1.707      146.048       70.219        0.231      348.853       28.850      862.285
08/07/2014  14:40:00      -56.390     -111.391      -12.624      105.504       78.293       40.195    11131.069     6129.727     1615.601        1.731        0.944      124.851       43.189        0.120      348.842       28.833      862.299
08/07/2014  14:41:00      -83.280      -71.895       11.501       87.066       65.712       39.296     7580.485     4318.028     1544.210        1.284        0.672      110.020       38.488        0.122      349.085       29.254      862.273
08/07/2014  14:42:00     -168.915     -170.307       -8.018       91.919       66.342       43.542     8449.180     4401.319     1895.863        3.617        0.737      239.868       33.130        0.019      348.601       28.412      862.244
08/07/2014  14:43:00      -94.743      -69.579       16.829      125.393       96.337       61.048    15723.421     9280.859     3726.873        2.141        1.437      117.548       57.268        0.237      348.953       29.024      862.202
08/07/2014  14:44:00       -5.015     -119.453      -14.210       78.886       80.816       50.865     6222.954     6531.241     2587.267        1.492        0.767      119.558       14.694        0.015      349.032       29.161      862.192
08/07/2014  14:45:00       39.152     -218.802       -6.104      114.479      145.189       61.595    13105.521    21079.749     3793.894        4.370        1.899      222.277       64.191        0.083      348.855       28.853      862.167
08/07/2014  14:46:00       12.106      -15.104       50.781       43.157       80.422       36.113     1862.488     6467.643     1304.178        0.629        0.482       19.356       34.142        3.111      349.322       29.665      862.162
08/07/2014  14:47:00       -1.157       11.183       45.481       38.389       57.220       42.437     1473.697     3274.078     1800.878        0.437        0.327       11.243       31.027        7.616      349.650       30.234      862.175
08/07/2014  14:48:00       59.644       22.124       51.034       69.928       64.971       40.098     4889.932     4221.266     1607.842        0.868        0.536       63.615       39.084        0.377      349.437       29.864      862.169
08/07/2014  14:49:00      160.853       94.770       35.448       56.057       47.487       41.642     3142.406     2255.044     1734.051        2.162        0.357      186.695       23.405        0.016      348.673       28.538      862.162
08/07/2014  14:50:00       67.222       68.888       60.412       73.141       33.018       36.070     5349.564     1090.216     1301.030        1.033        0.387       96.252       40.190        0.174      348.861       28.866      862.150
08/07/2014  14:51:00       38.567       40.871       67.223       59.707       45.735       41.435     3564.930     2091.736     1716.871        0.752        0.369       56.194       19.400        0.119      349.007       29.120      862.137
08/07/2014  14:52:00       86.108        0.888       39.006       47.273       35.472       35.457     2234.767     1258.291     1257.201        0.684        0.238       86.113       31.258        0.132      348.639       28.483      862.123
08/07/2014  14:53:00       29.474       -2.234       17.033       38.571       19.320       21.235     1487.748      373.278      450.944        0.174        0.116       29.558       17.279        0.342      349.033       29.164      862.106
08/07/2014  14:54:00       23.458       57.728       12.464       42.476       34.017       38.576     1804.180     1157.175     1488.110        0.424        0.222       62.312       21.587        0.120      348.734       28.645      862.087
08/07/2014  14:55:00       37.447       17.233       24.269       59.098       43.789       29.796     3492.614     1917.490      887.806        0.429        0.315       41.222       26.803        0.423      349.022       29.146      862.078
08/07/2014  14:56:00       89.225      -26.191       53.778      104.474      102.799       60.568    10914.879    10567.564     3668.535        1.834        1.258       92.989       60.030        0.417      348.978       29.068      862.074
08/07/2014  14:57:00        2.151        0.928       45.089       61.906       70.275       45.567     3832.370     4938.516     2076.329        0.644        0.542        2.343       50.646      467.290      349.095       29.273      862.076
08/07/2014  14:58:00      -25.649      -24.633       32.503       74.227       71.012       40.598     5509.696     5042.641     1648.194        0.726        0.610       35.562       48.130        1.832      348.932       28.991      862.038
08/07/2014  14:59:00      155.848       93.841       68.174      109.358       81.652       62.030    11959.124     6667.035     3847.692        3.010        1.124      181.920       46.997        0.067      348.882       28.900      862.037
08/07/2014  15:00:00       65.747       56.865       92.428      100.760       71.184       50.345    10152.532     5067.217     2534.614        1.692        0.888       86.927       51.213        0.347      349.133       29.337      862.018
08/07/2014  15:01:00      106.869       94.351       49.795       75.802       51.266       63.182     5745.921     2628.250     3991.977        1.758        0.618      142.559       54.896        0.148      348.794       28.749      862.020
08/07/2014  15:02:00       81.883       78.213       50.674       74.650       64.145       68.949     5572.641     4114.587     4753.921        1.491        0.722      113.235       45.349        0.160      348.979       29.070      862.014
08/07/2014  15:03:00       62.879       39.502       43.584       64.570      100.752       75.016     4169.291    10150.962     5627.383        1.368        0.997       74.258       75.985        1.047      348.843       28.835      862.006
08/07/2014  15:04:00      -30.144       -8.104       -1.000       43.787       77.593       39.940     1917.259     6020.616     1595.214        0.525        0.477       31.214       36.753        1.386      348.938       29.001      861.978
08/07/2014  15:05:00       24.031       68.724       -4.416       63.725      100.509       38.835     4060.915    10102.070     1508.174        1.049        0.784       72.804       33.843        0.216      348.815       28.786      861.957
08/07/2014  15:06:00       34.357       65.905       34.122       63.554       72.508       43.055     4039.115     5257.401     1853.697        0.892        0.558       74.323       35.872        0.233      349.116       29.306      861.938
08/07/2014  15:07:00       79.946       67.016       24.428      128.428       67.729       62.082    16493.802     4587.215     3854.207        1.820        1.247      104.319       57.505        0.304      348.876       28.891      861.914
08/07/2014  15:08:00      185.190       84.629       57.013      108.365       71.722       56.198    11742.991     5144.109     3158.184        3.237        1.002      203.611       46.580        0.052      348.832       28.815      861.899
08/07/2014  15:09:00       58.024       68.136       34.351       67.744       55.669       54.093     4589.187     3098.985     2926.053        0.990        0.531       89.495       31.519        0.124      349.072       29.232      861.894
08/07/2014  15:10:00      139.240       68.815       18.882       73.189       60.666       41.173     5356.647     3680.372     1695.243        1.760        0.537      155.317       26.401        0.029      348.768       28.702      861.893
08/07/2014  15:11:00      136.281      112.751       18.514       63.806       70.486       48.609     4071.265     4968.301     2362.853        2.151        0.570      176.876       21.438        0.015      348.705       28.593      861.863
08/07/2014  15:12:00       89.510      107.855       -8.878       68.792       72.219       53.793     4732.372     5215.520     2893.658        1.628        0.642      140.159       46.782        0.111      348.636       28.476      861.849
08/07/2014  15:13:00      -22.559      252.073      -46.748       63.981       96.113       37.230     4093.584     9237.719     1386.069        4.047        0.736      253.081       39.221        0.024      348.619       28.444      861.841
08/07/2014  15:14:00        6.092      273.398      -45.592       60.317       64.762       33.021     3638.103     4194.080     1090.381        4.289        0.446      273.466       37.169        0.018      348.588       28.388      861.828
08/07/2014  15:15:00        5.552       66.878        5.327       41.294       57.422       32.360     1705.216     3297.237     1047.179        0.529        0.302       67.108       33.820        0.254      349.059       29.210      861.804
08/07/2014  15:16:00       43.504       61.813      -14.358       58.242       53.130       36.669     3392.170     2822.755     1344.585        0.674        0.378       75.587       38.380        0.258      349.003       29.112      861.781
08/07/2014  15:17:00      106.171       58.150       35.871       89.963       60.520       51.782     8093.427     3662.643     2681.345        1.519        0.722      121.053       27.565        0.052      348.958       29.034      861.750
08/07/2014  15:18:00      270.418      132.798       32.725      105.467       59.226       66.223    11123.234     3507.665     4385.480        5.542        0.951      301.266       55.722        0.034      348.800       28.757      861.717
08/07/2014  15:19:00      212.807      114.211        9.452       98.273       79.510       58.866     9657.515     6321.790     3465.179        3.893        0.972      241.518       30.694        0.016      348.826       28.803      861.700
08/07/2014  15:20:00       92.549      115.447        5.911       74.340       63.260       43.763     5526.437     4001.804     1915.241        1.668        0.572      147.964       36.175        0.060      348.890       28.915      861.706
08/07/2014  15:21:00      -28.766      198.828      -25.442       58.625       81.399       38.346     3436.896     6625.800     1470.435        2.627        0.577      200.898       45.632        0.052      348.923       28.970      861.703
08/07/2014  15:22:00       48.268      137.616       -0.909       89.909       49.512       37.342     8083.636     2451.468     1394.397        1.660        0.596      145.836       40.381        0.077      349.026       29.152      861.701
08/07/2014  15:23:00      156.153       89.868       -5.985       55.153       57.455       50.905     3041.894     3301.057     2591.274        2.071        0.447      180.166       27.676        0.024      348.657       28.512      861.720
08/07/2014  15:24:00       44.207       28.314      -17.382       92.384       53.251       38.707     8534.772     2835.712     1498.228        0.796        0.643       52.498       41.446        0.623      348.763       28.695      861.713
08/07/2014  15:25:00       -7.433       15.688       21.025      106.461       81.078       64.384    11333.926     6573.691     4145.341        1.139        1.103       17.360       61.621       12.600      348.852       28.849      861.676
08/07/2014  15:26:00      154.299       64.505       49.248       79.418       54.229       52.425     6307.220     2940.772     2748.393        2.119        0.600      167.240       34.380        0.042      348.714       28.610      861.668
08/07/2014  15:27:00       84.501       59.882       -3.192       81.751       49.927       39.200     6683.249     2492.688     1536.638        1.072        0.536      103.568       18.508        0.032      348.706       28.597      861.672
08/07/2014  15:28:00      146.700      109.633       20.037       43.167       44.111       42.524     1863.351     1945.782     1808.318        1.978        0.281      183.140       25.629        0.020      348.791       28.744      861.659
08/07/2014  15:29:00       17.988       12.415        1.584       46.391       74.544       27.816     2152.144     5556.865      773.745        0.448        0.424       21.857       16.930        0.600      349.016       29.135      861.655
08/07/2014  15:30:00       23.627      -25.173       14.736       39.222       66.214       37.643     1538.384     4384.316     1416.979        0.437        0.367       34.525       44.642        1.672      349.099       29.278      861.651
08/07/2014  15:31:00       12.683      -33.224       11.249       39.827       40.784       45.149     1586.164     1663.366     2038.423        0.334        0.264       35.563       31.602        0.790      349.207       29.467      861.638
08/07/2014  15:32:00       50.074      -96.190       15.674       28.909       25.626       28.629      835.754      656.681      819.600        0.716        0.116      108.443        8.535        0.006      348.802       28.765      861.619
08/07/2014  15:33:00      -34.067      -53.402       -0.157       65.984       32.615       24.056     4353.890     1063.712      578.683        0.500        0.300       63.343       19.846        0.098      349.281       29.594      861.603
08/07/2014  15:34:00      -46.974      -28.548      -16.855       26.015       41.908       23.411      676.791     1756.295      548.072        0.314        0.149       54.968       22.015        0.160      349.423       29.841      861.579
08/07/2014  15:35:00      -97.474      -69.405        4.577       85.847       56.411       41.817     7369.650     3182.150     1748.701        1.332        0.615      119.659       35.068        0.086      349.432       29.854      861.565
08/07/2014  15:36:00     -132.492      -39.428      -13.218       48.231       36.750       27.599     2326.270     1350.541      761.716        1.186        0.222      138.234       23.392        0.029      348.868       28.878      861.551
08/07/2014  15:37:00      -80.502      -44.186        0.666       78.377       44.199       30.866     6142.968     1953.510      952.735        0.874        0.452       91.831       28.639        0.097      349.291       29.610      861.537
08/07/2014  15:38:00     -114.987     -175.966      -15.965       56.013       64.690       37.829     3137.427     4184.780     1431.055        2.660        0.438      210.205       30.936        0.022      348.864       28.868      861.540
08/07/2014  15:39:00       29.880     -118.544      -29.531       46.882       65.251       55.832     2197.930     4257.700     3117.210        1.269        0.479      122.252       37.702        0.095      349.120       29.314      861.523
08/07/2014  15:40:00      -84.686      -83.742        1.836      100.362       57.956       33.429    10072.561     3358.842     1117.466        1.437        0.727      119.099       31.473        0.070      349.213       29.476      861.515
08/07/2014  15:41:00     -165.835     -120.851       -7.783       55.925       68.846       43.196     3127.618     4739.717     1865.866        2.595        0.487      205.198       36.039        0.031      348.868       28.877      861.501
08/07/2014  15:42:00     -166.048     -111.305      -20.722       65.476       59.743       27.055     4287.132     3569.272      731.966        2.449        0.429      199.902       29.807        0.022      348.716       28.613      861.473
08/07/2014  15:43:00     -119.296       13.017       -6.694       57.534       47.719       25.477     3310.181     2277.062      649.054        1.034        0.312      120.004       20.585        0.029      348.840       28.830      861.447
08/07/2014  15:44:00       34.218       23.121        9.975       28.039       52.219       30.511      786.161     2726.874      930.939        0.312        0.222       41.297       20.554        0.248      349.167       29.397      861.398
08/07/2014  15:45:00     -134.349     -142.531       -4.781      123.672       96.352       43.321    15294.821     9283.791     1876.718        3.242        1.323      195.869       17.435        0.008      349.097       29.274      861.385
08/07/2014  15:46:00     -136.593      -83.587        3.868      111.770       77.366       47.802    12492.426     5985.523     2285.051        2.321        1.038      160.139       41.412        0.067      349.139       29.345      861.363
08/07/2014  15:47:00     -153.870      -70.255       -5.280       86.933       46.905       39.242     7557.350     2200.048     1539.936        1.997        0.565      169.150       37.752        0.050      349.269       29.570      861.355
08/07/2014  15:48:00     -193.001       -7.564      -12.228       66.990       53.128       28.323     4487.726     2822.634      802.187        2.278        0.406      193.149       21.733        0.013      348.954       29.025      861.343
08/07/2014  15:49:00      -99.057       42.814       13.652      107.556       64.916       30.870    11568.281     4214.088      952.977        1.428        0.837      107.914       37.305        0.120      349.204       29.459      861.327
08/07/2014  15:50:00     -140.328      -90.854        3.673       72.813       52.055       37.583     5301.715     2709.683     1412.463        1.869        0.471      167.172       37.148        0.049      349.155       29.374      861.319
08/07/2014  15:51:00      -63.219      -61.389        7.835       66.839       53.637       34.361     4467.418     2876.922     1180.674        0.817        0.426       88.121       40.022        0.206      349.182       29.420      861.314
08/07/2014  15:52:00       29.048       -3.656       29.065       35.766       62.568       30.499     1279.220     3914.706      930.219        0.391        0.306       29.277       30.732        1.102      349.020       29.142      861.300
08/07/2014  15:53:00       27.137       46.690       20.347       29.525       36.842       31.965      871.698     1357.322     1021.758        0.329        0.163       54.003       21.681        0.161      349.306       29.636      861.278
08/07/2014  15:54:00       11.875        2.557       -1.320       21.297       12.297       11.758      453.562      151.224      138.255        0.045        0.037       12.147        9.221        0.576      349.344       29.702      861.265
08/07/2014  15:55:00      -55.910       73.634       -0.121       48.245       52.669       31.352     2327.571     2773.984      982.961        0.731        0.304       92.455       24.585        0.071      349.395       29.791      861.261
08/07/2014  15:56:00      -21.834      108.064       -8.964       61.193       60.303       39.698     3744.544     3636.501     1575.945        1.059        0.448      110.248       27.616        0.063      349.314       29.650      861.249
08/07/2014  15:57:00      -57.604       77.649      -14.866       51.988       54.537       29.139     2702.716     2974.287      849.107        0.805        0.326       96.683       30.562        0.100      349.269       29.573      861.240
08/07/2014  15:58:00      -27.655      198.269      -34.166       56.480       53.501       31.388     3190.027     2862.327      985.233        2.414        0.352      200.188       24.030        0.014      349.048       29.187      861.222
08/07/2014  15:59:00       35.884      190.975      -30.913       40.178       44.908       32.371     1614.247     2016.719     1047.870        2.170        0.234      194.317       25.983        0.018      349.049       29.190      861.208
08/07/2014  16:00:00       -7.012      157.095      -23.543       47.942       57.161       28.013     2298.468     3267.377      784.739        1.582        0.318      157.251       31.981        0.041      349.078       29.241      861.195
08/07/2014  16:01:00       16.109       42.567       -2.193       44.024       56.310       27.388     1938.154     3170.795      750.094        0.397        0.293       45.513       16.205        0.127      349.171       29.402      861.192
08/07/2014  16:02:00       11.511      -70.427      -23.093       37.749       88.789       25.384     1424.969     7883.566      644.344        0.779        0.498       71.361       22.369        0.098      349.181       29.419      861.181
08/07/2014  16:03:00       89.659     -219.757      -27.090       68.143       59.658       36.955     4643.431     3559.081     1365.654        3.332        0.478      237.344       29.152        0.015      348.903       28.936      861.155
08/07/2014  16:04:00       20.565     -103.227      -12.250       42.350       92.918       29.444     1793.557     8633.722      866.957        1.126        0.565      105.256       17.203        0.027      349.140       29.349      861.148
08/07/2014  16:05:00      -15.704       24.667       17.356       43.913       29.702       28.794     1928.382      882.214      829.093        0.240        0.182       29.242       30.280        1.072      349.498       29.971      861.134
08/07/2014  16:06:00      -99.215       94.905      -17.309       39.234       51.852       31.947     1539.316     2688.667     1020.603        1.220        0.262      137.298       25.770        0.035      349.313       29.649      861.132
08/07/2014  16:07:00      -30.195       76.932       -9.653       44.678       72.243       30.404     1996.083     5218.984      924.407        0.753        0.407       82.646       27.156        0.108      349.337       29.691      861.128
08/07/2014  16:08:00       47.809       54.922       15.765       59.410       47.935       44.486     3529.517     2297.739     1979.023        0.668        0.390       72.816       36.750        0.255      349.458       29.902      861.124
08/07/2014  16:09:00       72.408       50.451       42.376       56.837       47.468       38.232     3230.486     2253.182     1461.715        0.826        0.347       88.251       27.315        0.096      349.553       30.066      861.115
08/07/2014  16:10:00       79.695        5.887       23.741       43.999       53.270       32.343     1935.870     2837.671     1046.049        0.638        0.291       79.912       26.371        0.109      349.611       30.166      861.093
08/07/2014  16:11:00      104.706       25.146       90.119       99.326      107.973       89.712     9865.644    11658.109     8048.156        2.464        1.479      107.683       92.896        0.744      349.356       29.723      861.081
08/07/2014  16:12:00       80.957       65.771       77.146       86.927       88.175       61.849     7556.292     7774.906     3825.359        1.799        0.958      104.307       40.925        0.154      349.485       29.945      861.059
08/07/2014  16:13:00       89.156      103.898       99.618       87.191       82.231       62.523     7602.198     6761.867     3909.154        2.347        0.914      136.907       47.352        0.120      349.183       29.422      861.070
08/07/2014  16:14:00      184.768       35.174       56.203      118.774      166.082       99.582    14107.287    27583.355     9916.648        4.506        2.580      188.086       97.048        0.266      349.058       29.204      861.055
08/07/2014  16:15:00       47.111      105.503      116.726       66.785       97.402       60.437     4460.279     9487.131     3652.576        2.228        0.880      115.544       64.186        0.309      349.063       29.214      861.059
08/07/2014  16:16:00       65.905      -41.637       37.269       66.835       95.438       56.441     4466.880     9108.432     3185.555        1.211        0.838       77.956       62.553        0.644      349.234       29.512      861.052
08/07/2014  16:17:00      120.650       25.619       73.039      101.574       70.289       55.822    10317.211     4940.580     3116.099        1.946        0.919      123.340       64.938        0.277      349.073       29.234      861.059
08/07/2014  16:18:00       43.772      -43.608       28.495       46.887       78.203       42.431     2198.357     6115.707     1800.425        0.737        0.506       61.787       37.072        0.360      349.126       29.325      861.061
08/07/2014  16:19:00       65.468       -3.869       10.926       95.066       89.147       49.715     9037.526     7947.107     2471.569        1.193        0.973       65.582       43.368        0.437      349.292       29.612      861.060
08/07/2014  16:20:00      145.565       95.457       58.784       65.721       53.323       58.560     4319.233     2843.316     3429.260        2.217        0.530      174.073       41.870        0.058      349.287       29.603      861.066
08/07/2014  16:21:00      105.128       21.330       56.007       70.036       61.378       41.570     4905.010     3767.272     1728.047        1.252        0.520      107.270       39.141        0.133      349.136       29.344      861.060
08/07/2014  16:22:00      220.540      113.459       60.395      127.557       91.879       58.104    16270.823     8441.783     3376.127        4.662        1.404      248.014       38.144        0.024      349.105       29.284      861.032
08/07/2014  16:23:00      228.472      111.902       90.308      114.612       83.017       79.081    13135.976     6891.833     6253.742        4.957        1.314      254.404       65.032        0.065      349.207       29.462      861.010
08/07/2014  16:24:00      119.851       43.130       88.445       98.827      103.692       75.869     9766.765    10751.942     5756.072        2.516        1.314      127.375       63.985        0.252      349.064       29.216      861.043
08/07/2014  16:25:00       65.615      -71.131       14.643       61.044       68.292       32.376     3726.370     4663.789     1048.224        0.951        0.472       96.772       39.259        0.165      349.122       29.318      861.052
08/07/2014  16:26:00       54.082     -127.851       -7.877       46.610       78.357       32.706     2172.536     6139.895     1069.682        1.436        0.469      138.819       41.780        0.091      349.224       29.494      861.031
08/07/2014  16:27:00       92.680     -153.045      -20.956       57.615       38.591       29.493     3319.531     1489.252      869.861        1.906        0.284      178.920       20.503        0.013      349.115       29.306      861.027
08/07/2014  16:28:00      134.059     -202.551      -17.570       78.477       92.342       39.677     6158.714     8526.981     1574.292        3.778        0.813      242.896       44.199        0.033      349.212       29.470      861.010
08/07/2014  16:29:00      120.616     -155.765      -36.746       51.848       48.481       27.568     2688.220     2350.422      760.005        2.298        0.290      197.005       26.493        0.018      349.032       29.160      861.018
08/07/2014  16:30:00       63.587     -177.688      -23.463       48.056       53.218       36.111     2309.386     2832.207     1303.970        2.130        0.322      188.723       29.398        0.024      349.097       29.272      861.020
08/07/2014  16:31:00       53.792     -170.401       -6.870       37.695       37.698       36.075     1420.924     1421.114     1301.434        1.806        0.207      178.690       25.766        0.021      348.977       29.065      861.019
08/07/2014  16:32:00       13.526      -83.103       11.301       35.527       75.281       42.907     1262.156     5667.272     1840.976        0.799        0.439       84.196       44.756        0.283      349.362       29.733      861.011
08/07/2014  16:33:00       16.947      -42.899        0.873       57.161       30.734       21.345     3267.329      944.582      455.622        0.340        0.233       46.126       10.095        0.048      349.178       29.415      861.003
08/07/2014  16:34:00       -6.956      -32.439       -6.711       31.501       26.918       24.292      992.307      724.587      590.122        0.173        0.115       33.177        5.974        0.032      349.683       30.291      860.991
08/07/2014  16:35:00       -6.295        7.339       10.380       52.023       21.646       27.885     2706.362      468.563      777.575        0.208        0.198        9.669       31.065       10.323      349.543       30.049      860.988
08/07/2014  16:36:00      -27.536      -41.977       -1.126       76.039       63.575       32.422     5781.923     4041.755     1051.155        0.670        0.544       50.202       30.031        0.358      349.327       29.673      860.986
08/07/2014  16:37:00      -55.402      -23.636       15.754       66.751       51.836       32.730     4455.714     2687.012     1071.246        0.604        0.411       60.233       35.696        0.351      349.445       29.879      860.985
08/07/2014  16:38:00       75.255      -57.331       35.100       96.013       70.830       43.286     9218.553     5016.832     1873.669        1.314        0.805       94.605       15.675        0.027      349.436       29.861      860.967
08/07/2014  16:39:00      102.167       63.346       44.113       63.589       63.394       54.366     4043.517     4018.845     2955.652        1.371        0.551      120.212       46.395        0.149      349.421       29.835      860.955
08/07/2014  16:40:00      144.352       79.098       29.713       79.922       56.843       49.996     6387.580     3231.121     2499.629        2.005        0.606      164.603       30.756        0.035      349.360       29.728      860.950
08/07/2014  16:41:00      165.494       96.463       31.033       76.897       59.941       44.055     5913.193     3592.892     1940.838        2.455        0.572      191.556       33.751        0.031      349.218       29.482      860.947
08/07/2014  16:42:00       86.768       48.059       54.181       71.021       62.306       43.802     5043.948     3882.069     1918.604        1.181        0.542       99.189       43.114        0.189      349.407       29.810      860.938
08/07/2014  16:43:00       36.128      -64.552       36.293       57.759       83.323       56.297     3336.105     6942.706     3169.311        1.012        0.672       73.975       36.897        0.249      349.431       29.852      860.934
08/07/2014  16:44:00       57.060      -32.339       35.034       68.597       66.014       44.122     4705.567     4357.900     1946.737        0.827        0.551       65.587       39.452        0.362      349.405       29.808      860.942
08/07/2014  16:45:00       68.094     -113.038       10.360       68.013       79.831       54.962     4625.733     6373.005     3020.854        1.577        0.701      131.964       59.236        0.201      349.483       29.943      860.931
08/07/2014  16:46:00       43.088      -84.001       -4.481       36.947       27.081       32.124     1365.093      733.401     1031.968        0.603        0.157       94.407       21.004        0.049      349.173       29.407      860.931
08/07/2014  16:47:00       68.524      -93.456       11.251       44.724       52.328       41.276     2000.221     2738.169     1703.700        1.000        0.322      115.886       40.257        0.121      349.421       29.837      860.925
08/07/2014  16:48:00       47.823      -71.118       14.388       66.701       97.228       54.978     4449.075     9453.276     3022.629        1.224        0.846       85.702       65.280        0.580      349.408       29.813      860.925
08/07/2014  16:49:00       66.143     -105.149      -25.898       40.118       77.160       23.675     1609.431     5953.627      560.492        1.211        0.406      124.222       21.336        0.030      349.120       29.315      860.931
08/07/2014  16:50:00       45.704     -165.798      -27.958       43.156       31.731       25.114     1862.424     1006.850      630.729        1.693        0.175      171.982       13.767        0.006      349.020       29.139      860.943
08/07/2014  16:51:00      -69.863     -141.338      -17.062       18.571       25.805       17.934      344.888      665.913      321.642        1.324        0.067      157.662        7.535        0.002      348.894       28.921      860.932
08/07/2014  16:52:00      -12.051      -97.215       -3.331       34.315       48.384       23.505     1177.518     2341.022      552.473        0.684        0.204       97.959       13.483        0.019      349.298       29.623      860.910
08/07/2014  16:53:00       13.011      -59.859       14.174       49.694       37.628       32.545     2469.491     1415.892     1059.153        0.445        0.247       61.257       19.924        0.106      349.461       29.906      860.898
08/07/2014  16:54:00      -41.866      -59.219        5.505       53.372       34.104       36.376     2848.588     1163.074     1323.246        0.531        0.267       72.523       24.413        0.113      349.647       30.230      860.900
08/07/2014  16:55:00       32.929      -54.475        1.814       56.806       88.841       46.187     3226.930     7892.727     2133.207        0.865        0.663       63.654       55.982        0.773      349.132       29.335      860.901
08/07/2014  16:56:00       35.312       37.204       34.799       46.056       63.071       46.262     2121.139     3977.968     2140.183        0.604        0.412       51.295       33.861        0.436      349.185       29.427      860.881
08/07/2014  16:57:00       42.174     -113.916       49.037       81.895      110.408       87.895     6706.725    12189.852     7725.503        2.189        1.331      121.473       91.877        0.572      349.344       29.701      860.883
08/07/2014  16:58:00       70.300      -34.107       19.263       68.176       98.383       70.485     4648.008     9679.289     4968.157        1.288        0.965       78.137       78.004        0.997      349.199       29.450      860.878
08/07/2014  16:59:00       51.640     -149.360      -26.735       48.056       49.844       40.218     2309.392     2484.415     1617.459        1.605        0.321      158.035       23.488        0.022      349.196       29.446      860.877
08/07/2014  17:00:00     -106.937      -97.857      -13.978       78.287       76.673       39.435     6128.889     5878.786     1555.092        1.738        0.678      144.954       40.588        0.078      349.292       29.610      860.861
08/07/2014  17:01:00     -125.670      -55.328       11.596       63.445       54.042       35.014     4025.248     2920.530     1225.954        1.358        0.409      137.310       30.896        0.051      349.405       29.809      860.844
08/07/2014  17:02:00     -101.424      -97.143        6.729       74.191       56.517       35.775     5504.300     3194.192     1279.841        1.487        0.499      140.441       42.801        0.093      349.411       29.819      860.843
08/07/2014  17:03:00     -131.007     -100.565       -8.915       52.833       55.583       34.617     2791.317     3089.496     1198.307        1.722        0.354      165.155       28.070        0.029      349.210       29.471      860.832
08/07/2014  17:04:00     -139.531      -90.064      -15.385       35.841       41.239       20.956     1284.555     1700.690      439.162        1.562        0.171      166.074       12.080        0.005      349.135       29.340      860.830
08/07/2014  17:05:00     -155.007      -61.522      -20.257       41.856       49.534       23.014     1751.910     2453.572      529.662        1.648        0.237      166.770       19.991        0.014      349.313       29.649      860.831
08/07/2014  17:06:00     -185.567      -73.885      -31.269       61.896       66.546       33.711     3831.159     4428.371     1136.414        2.513        0.470      199.735       30.285        0.023      349.183       29.421      860.835
08/07/2014  17:07:00       22.415       26.436       19.810      120.677       98.817       58.390    14562.977     9764.776     3409.362        1.466        1.387       34.660       45.723        1.740      349.285       29.600      860.810
08/07/2014  17:08:00       45.017       28.183        8.179       49.043       49.148       26.611     2405.251     2415.514      708.153        0.421        0.276       53.111       24.585        0.214      349.251       29.541      860.830
08/07/2014  17:09:00        3.876       92.006       -6.194       54.985       68.447       25.124     3023.314     4684.996      631.205        0.843        0.417       92.087       31.994        0.121      349.356       29.722      860.837
08/07/2014  17:10:00        2.123      208.911      -22.671       70.756       50.920       38.800     5006.455     2592.811     1505.469        2.663        0.455      208.922       28.353        0.018      349.211       29.471      860.830
08/07/2014  17:11:00        8.675      183.615      -23.394       49.208       67.747       39.075     2421.424     4589.628     1526.889        2.144        0.427      183.820       39.957        0.047      349.187       29.429      860.829
08/07/2014  17:12:00       24.198       70.035        7.113       69.283       57.309       40.074     4800.076     3284.272     1605.944        0.761        0.485       74.097       34.133        0.212      349.303       29.631      860.815
08/07/2014  17:13:00       32.697       73.619       -0.384       43.624       55.890       35.321     1903.019     3123.696     1247.551        0.638        0.314       80.553       34.284        0.181      349.152       29.370      860.811
08/07/2014  17:14:00      -21.439      122.566      -11.775       57.801       89.519       25.992     3340.912     8013.690      675.588        1.382        0.602      124.427       20.036        0.026      349.181       29.419      860.806
08/07/2014  17:15:00       63.464      178.276      -22.058       50.519       88.745       56.072     2552.186     7875.709     3144.056        2.493        0.679      189.236       51.858        0.075      349.140       29.348      860.804
08/07/2014  17:16:00       87.517      183.998      -14.271       81.741      101.827       53.853     6681.614    10368.703     2900.157        3.083        0.998      203.751       42.402        0.043      349.100       29.279      860.798
08/07/2014  17:17:00      201.808      145.179       27.005       79.680       55.558       54.436     6348.840     3086.685     2963.285        3.746        0.620      248.603       41.527        0.028      349.042       29.174      860.799
08/07/2014  17:18:00      124.041      103.876        3.545       74.471       66.211       45.037     5545.902     4383.948     2028.289        1.907        0.598      161.791       20.262        0.016      349.048       29.188      860.802
08/07/2014  17:19:00      155.150      107.940       13.483       86.291       44.489       47.512     7446.215     1979.294     2257.376        2.379        0.584      189.004       25.764        0.019      349.038       29.168      860.798
08/07/2014  17:20:00       81.088      120.380        9.882       58.251       79.579       56.849     3393.147     6332.856     3231.754        1.706        0.648      145.143       49.684        0.117      349.051       29.194      860.793
08/07/2014  17:21:00      150.103      108.396       11.388       53.248       60.794       54.688     2835.393     3695.965     2990.725        2.196        0.476      185.150       42.261        0.052      348.975       29.060      860.785
08/07/2014  17:22:00       70.112       82.891       -0.030       65.017       39.061       27.663     4227.228     1525.790      765.246        0.915        0.326      108.566       19.552        0.032      349.013       29.129      860.787
08/07/2014  17:23:00       45.828       70.434       -6.323       31.981       39.083       28.287     1022.789     1527.454      800.130        0.523        0.168       84.031       18.815        0.050      349.089       29.261      860.787
08/07/2014  17:24:00       34.330      104.520      -15.107       49.066       61.901       21.185     2407.456     3831.676      448.802        0.951        0.334      110.013       30.004        0.074      349.049       29.193      860.780
08/07/2014  17:25:00      -22.476      159.373      -28.952       35.472       31.237       17.776     1258.289      975.731      315.980        1.465        0.128      160.950       15.571        0.009      348.979       29.071      860.777
08/07/2014  17:26:00      -38.820      127.564      -19.876       26.425       57.075       19.708      698.300     3257.545      388.420        1.126        0.217      133.340       18.489        0.019      348.953       29.021      860.766
08/07/2014  17:27:00      -14.574      117.980      -20.220       17.696       35.617       12.471      313.157     1268.594      155.514        0.814        0.087      118.877       14.532        0.015      348.998       29.104      860.764
08/07/2014  17:28:00       15.588      100.304      -17.219       18.971       30.558       18.985      359.907      933.785      360.420        0.613        0.083      101.508       19.330        0.036      349.036       29.170      860.751
08/07/2014  17:29:00      -39.825       63.406       -5.188       42.408       39.554       27.108     1798.416     1564.504      734.867        0.486        0.205       74.876       27.972        0.140      349.062       29.213      860.740
08/07/2014  17:30:00      -13.828       21.601        3.234       22.512       21.225       15.330      506.806      450.502      235.015        0.093        0.060       25.648       10.139        0.156      349.152       29.371      860.748
08/07/2014  17:31:00       26.610       37.343       24.243       25.214       30.724       25.445      635.724      943.983      647.462        0.246        0.111       45.854       22.036        0.231      349.050       29.193      860.752
08/07/2014  17:32:00       55.419       55.164       43.694       32.701       37.609       40.871     1069.369     1414.448     1670.413        0.609        0.208       78.194       30.759        0.155      348.753       28.679      860.754
08/07/2014  17:33:00       27.852       29.969       30.962       32.828       24.060       20.255     1077.670      578.876      410.270        0.235        0.103       40.913       17.725        0.188      348.931       28.988      860.761
08/07/2014  17:34:00       44.383       14.107       44.024       54.846       53.144       35.532     3008.031     2824.269     1262.491        0.560        0.355       46.571       32.457        0.486      348.865       28.873      860.770
08/07/2014  17:35:00       59.826       47.042       44.535       54.299       50.172       45.663     2948.404     2517.194     2085.118        0.766        0.378       76.106       43.981        0.334      348.903       28.939      860.779
08/07/2014  17:36:00       54.903        7.841       16.650       31.833       34.017       24.278     1013.371     1157.132      589.425        0.306        0.138       55.460       20.317        0.134      348.749       28.671      860.792
08/07/2014  17:37:00       64.032       19.293       34.007       45.850       33.063       26.128     2102.188     1093.134      682.684        0.475        0.194       66.875       21.252        0.101      348.815       28.786      860.789
08/07/2014  17:38:00       67.480       63.195       61.857       71.958       47.777       43.774     5177.981     2282.678     1916.195        1.087        0.469       92.450       31.030        0.113      348.749       28.673      860.788
08/07/2014  17:39:00       46.692       46.388       48.515       44.217       37.811       27.738     1955.115     1429.638      769.398        0.542        0.208       65.818       19.883        0.091      348.868       28.878      860.804
08/07/2014  17:40:00       88.408       40.364       28.186       57.188       55.410       35.461     3270.432     3070.280     1257.507        0.892        0.380       97.187       25.974        0.071      349.081       29.247      860.797
08/07/2014  17:41:00       45.891        9.302       19.398       43.435       28.698       30.118     1886.584      823.589      907.083        0.309        0.181       46.824       21.113        0.203      348.981       29.076      860.801
08/07/2014  17:42:00        8.793       37.273        0.863       19.567       25.537       17.108      382.860      652.132      292.693        0.140        0.066       38.296       15.348        0.161      349.049       29.194      860.802
08/07/2014  17:43:00      -22.214       26.004       -7.936       13.385        9.050        7.650      179.165       81.906       58.529        0.078        0.016       34.200        6.727        0.039      349.028       29.156      860.798
08/07/2014  17:44:00      -10.454       26.283        1.460       24.672       15.122       16.012      608.684      228.663      256.375        0.095        0.055       28.286       15.032        0.282      349.085       29.255      860.812
08/07/2014  17:45:00       20.082        5.679       -2.339       18.155       21.444       18.120      329.594      459.850      328.347        0.078        0.056       20.869       13.571        0.423      348.895       28.925      860.809
08/07/2014  17:46:00       12.603      -27.688       18.011       28.138       35.490       22.057      791.737     1259.561      486.525        0.189        0.127       30.422       17.354        0.325      348.818       28.793      860.808
08/07/2014  17:47:00      -32.548      -84.595        2.691       29.668       29.817       29.715      880.218      889.036      882.998        0.544        0.133       90.641       19.040        0.044      349.127       29.327      860.801
08/07/2014  17:48:00       11.083      -51.967        1.939       25.195       23.309       19.033      634.805      543.310      362.253        0.218        0.077       53.136       14.504        0.075      349.073       29.234      860.779
08/07/2014  17:49:00      -13.249      -29.996       -8.339       34.898       27.574       19.120     1217.893      760.341      365.581        0.174        0.117       32.791       15.938        0.236      348.944       29.011      860.759
08/07/2014  17:50:00      -60.671      -28.014       -6.513       37.162       34.534       27.912     1381.007     1192.622      779.085        0.393        0.168       66.826       17.177        0.066      349.016       29.134      860.746
08/07/2014  17:51:00      -44.508      -82.962       -3.093       30.724       40.398       22.254      943.993     1632.015      495.237        0.597        0.154       94.147       18.616        0.039      349.076       29.242      860.719
08/07/2014  17:52:00      -68.804      -31.330       12.954       57.346       30.532       23.616     3288.587      932.228      557.698        0.533        0.239       75.601       26.477        0.123      349.101       29.283      860.702
08/07/2014  17:53:00      -81.722      -50.063        4.342       48.378       35.273       20.786     2340.410     1244.191      432.077        0.661        0.201       95.837       21.257        0.049      349.036       29.170      860.700
08/07/2014  17:54:00      -48.251      -42.452        5.389       34.782       32.511       15.797     1209.784     1056.968      249.548        0.334        0.126       64.268       14.671        0.052      348.878       28.895      860.687
08/07/2014  17:55:00      -69.859      -42.255        7.806       48.511       25.643       23.632     2353.270      657.571      558.481        0.515        0.178       81.644       25.910        0.101      348.939       29.002      860.690
08/07/2014  17:56:00      -39.615      -32.113        5.390       48.441       22.658       16.095     2346.565      513.366      259.053        0.287        0.156       50.996       16.002        0.098      348.943       29.009      860.685
08/07/2014  17:57:00      -24.372      -50.101       -3.217       31.048       21.825       17.004      963.987      476.317      289.122        0.242        0.086       55.715        9.768        0.031      349.033       29.165      860.668
08/07/2014  17:58:00      -13.921      -36.937        8.917       31.336       26.495       14.896      981.928      701.975      221.876        0.177        0.095       39.474        9.291        0.055      349.011       29.126      860.670
08/07/2014  17:59:00      -44.638      -75.106        1.460       32.248       25.826       18.472     1039.927      666.979      341.226        0.484        0.102       87.370       17.797        0.041      348.987       29.086      860.675
08/07/2014  18:00:00      -53.618      -61.709       -8.138       17.013       21.984       16.285      289.452      483.296      265.189        0.389        0.052       81.749       12.732        0.024      349.014       29.131      860.654
08/07/2014  18:01:00        4.804       -7.938        4.887       25.176       19.280       19.689      633.853      371.712      387.673        0.075        0.070        9.279       14.901        2.579      348.674       28.543      860.653
08/07/2014  18:02:00       11.923      -55.240        5.280       38.396       38.804       28.950     1474.268     1505.715      838.102        0.352        0.191       56.512       24.234        0.184      348.659       28.516      860.639
08/07/2014  18:03:00       45.109      -53.461      -15.336       38.411       42.676       22.508     1475.407     1821.233      506.628        0.446        0.190       69.950       20.026        0.082      348.816       28.788      860.626
08/07/2014  18:04:00        8.757       21.004       47.579       35.405       54.773       38.609     1253.509     3000.053     1490.628        0.426        0.287       22.756       43.090        3.586      348.709       28.604      860.609
08/07/2014  18:05:00      -12.782       -2.186       21.300       17.507       20.020       21.521      306.491      400.796      463.156        0.090        0.059       12.968       15.987        1.520      348.861       28.865      860.616
08/07/2014  18:06:00      -14.783      -23.398       10.399       43.807       30.970       23.652     1919.052      959.149      559.408        0.216        0.172       27.676       13.916        0.253      348.972       29.059      860.606
08/07/2014  18:07:00       -9.951     -111.973       -6.646       46.136       43.128       28.038     2128.514     1860.015      786.109        0.873        0.239      112.414       25.763        0.053      348.949       29.018      860.595
08/07/2014  18:08:00       24.593     -104.043       -0.276       46.900       31.600       28.769     2199.643      998.575      827.654        0.773        0.201      106.910       16.915        0.025      348.868       28.879      860.592
08/07/2014  18:09:00      -16.599      -93.097      -10.688       45.986       56.553       30.325     2114.708     3198.219      919.608        0.764        0.312       94.566       33.212        0.123      348.899       28.934      860.573
08/07/2014  18:10:00       -2.059       -2.386       25.826       20.017       20.974       11.276      400.693      439.927      127.137        0.082        0.048        3.152       10.530       11.161      349.014       29.132      860.560
08/07/2014  18:11:00      -35.067      -63.278        1.363       39.073       76.712       21.400     1526.686     5884.681      457.946        0.655        0.393       72.346       30.429        0.177      348.903       28.939      860.552
08/07/2014  18:12:00        3.433      -80.653       -4.622       30.100       38.429       26.916      906.013     1476.817      724.493        0.482        0.155       80.726       17.953        0.049      348.941       29.004      860.538
08/07/2014  18:13:00       -8.874      -94.067        5.249       46.772       37.130       28.396     2187.653     1378.616      806.325        0.666        0.219       94.485        8.654        0.008      348.917       28.962      860.517
08/07/2014  18:14:00      -42.622     -120.233       -0.904       27.552       37.401       27.804      759.099     1398.857      773.087        0.960        0.147      127.564       18.546        0.021      348.906       28.941      860.508
08/07/2014  18:15:00        5.067       -8.433       13.759       35.848       41.165       22.673     1285.056     1694.587      514.082        0.189        0.175        9.838       27.630        7.888      348.868       28.878      860.479
08/07/2014  18:16:00       -5.744      -34.160        2.693       25.405       28.520       21.840      645.418      813.383      476.988        0.157        0.097       34.639       12.009        0.120      348.868       28.878      860.458
08/07/2014  18:17:00        1.945      -50.006       -1.378       22.987       41.941       17.072      528.407     1759.014      291.467        0.254        0.129       50.044       14.805        0.088      348.914       28.957      860.449
08/07/2014  18:18:00      -11.129      -46.313        4.010       33.014       24.503       20.620     1089.904      600.403      425.203        0.220        0.106       47.631       13.357        0.079      348.955       29.027      860.425
08/07/2014  18:19:00      -41.440      -34.008        3.538       47.541       30.186       13.598     2260.165      911.191      184.914        0.312        0.168       53.608        9.109        0.029      349.001       29.109      860.394
08/07/2014  18:20:00      -90.159      -70.970       -7.559       30.844       26.112       13.643      951.360      681.832      186.128        0.752        0.091      114.741       16.029        0.020      348.988       29.083      860.376
08/07/2014  18:21:00      -83.123      -61.885       -1.913       16.020       22.602       14.682      256.650      510.839      215.560        0.586        0.049      103.630       10.616        0.010      348.974       29.058      860.379
08/07/2014  18:22:00      -73.014      -33.355       -7.317       13.485       12.978       10.623      181.844      168.416      112.848        0.348        0.023       80.272        6.705        0.007      349.015       29.133      860.371
08/07/2014  18:23:00     -100.155      -52.155      -15.415       15.886       26.287       18.288      252.371      691.012      334.469        0.713        0.064      112.921       12.589        0.012      349.009       29.125      860.358
08/07/2014  18:24:00      -35.980      -29.186        5.848       38.725       25.116       21.397     1499.598      630.803      457.818        0.238        0.129       46.329       22.630        0.239      349.021       29.145      860.353
08/07/2014  18:25:00      -86.356      -37.490       18.107       70.735       53.040       22.477     5003.376     2813.192      505.201        0.875        0.416       94.143       23.964        0.065      348.889       28.915      860.353
08/07/2014  18:26:00     -107.381      -71.219        3.308       43.733       43.307       29.216     1912.613     1875.523      853.595        1.063        0.232      128.852       25.946        0.041      348.934       28.992      860.358
08/07/2014  18:27:00      -35.606       -3.673        1.424       40.955       10.058       15.053     1677.332      101.165      226.579        0.164        0.100       35.795       21.597        0.364      349.005       29.119      860.371
08/07/2014  18:28:00      -42.869       11.341       -5.453       30.250       28.851       17.603      915.083      832.407      309.853        0.203        0.103       44.344        6.843        0.024      349.025       29.152      860.385
08/07/2014  18:29:00      -62.115      -73.821        3.082       79.245       59.476       34.599     6279.769     3537.337     1197.123        1.016        0.551       96.476       41.190        0.182      348.834       28.818      860.382
08/07/2014  18:30:00     -110.365      -88.047       -3.575       57.254       39.237       24.203     3278.024     1539.518      585.783        1.267        0.270      141.183       28.516        0.041      348.970       29.054      860.380
08/07/2014  18:31:00      -92.441      -62.631       -2.047       26.717       28.811       16.336      713.805      830.074      266.872        0.714        0.091      111.660       12.038        0.012      348.980       29.073      860.387
08/07/2014  18:32:00      -27.890      -40.354       10.831       49.569       44.739       30.520     2457.082     2001.589      931.467        0.396        0.270       49.054       34.149        0.485      348.962       29.042      860.394
08/07/2014  18:33:00      -74.823      -54.988        7.056       50.173       30.331       24.932     2517.284      919.972      621.586        0.636        0.203       92.856       17.467        0.035      348.949       29.017      860.388
08/07/2014  18:34:00      -57.817       -6.284        7.702       39.079       25.547       19.062     1527.157      652.654      363.358        0.299        0.127       58.158       23.226        0.159      348.933       28.991      860.375
08/07/2014  18:35:00      -77.086      -27.514       -0.672       44.309       43.190       22.290     1963.274     1865.393      496.848        0.551        0.216       81.849       15.125        0.034      348.860       28.865      860.379
08/07/2014  18:36:00     -107.151      -50.531        7.736       65.855       38.931       27.931     4336.848     1515.597      780.148        1.036        0.332      118.468       23.900        0.041      348.891       28.919      860.378
08/07/2014  18:37:00      -82.037      -43.907        9.592       55.681       30.404       21.495     3100.354      924.403      462.038        0.662        0.224       93.048       22.846        0.060      348.924       28.975      860.371
08/07/2014  18:38:00      -41.042      -40.814       10.348       44.086       30.634       18.580     1943.576      938.417      345.230        0.334        0.161       57.881       14.971        0.067      348.971       29.054      860.375
08/07/2014  18:39:00     -115.639      -59.052       -1.383       45.860       41.327       26.818     2103.169     1707.895      719.219        1.069        0.227      129.844       27.322        0.044      348.927       28.982      860.381
08/07/2014  18:40:00      -72.680      -44.935        6.243       65.367       44.476       25.763     4272.851     1978.133      663.729        0.713        0.346       85.449       28.660        0.112      348.945       29.010      860.398
08/07/2014  18:41:00     -118.570      -50.575       -3.307       29.794       27.251       19.292      887.709      742.631      372.179        0.931        0.100      128.906       16.124        0.016      348.936       28.997      860.411
08/07/2014  18:42:00     -123.681      -47.437       -0.131       43.269       41.925       27.942     1872.189     1757.726      780.729        1.098        0.221      132.466       27.955        0.045      348.917       28.964      860.425
08/07/2014  18:43:00     -124.146      -12.779        2.052       50.340       39.984       29.670     2534.119     1598.735      880.329        1.030        0.251      124.802       26.410        0.045      348.922       28.974      860.439
08/07/2014  18:44:00     -137.180      -27.070        2.671       56.915       43.945       26.848     3239.315     1931.194      720.816        1.272        0.295      139.826       31.777        0.052      348.894       28.925      860.445
08/07/2014  18:45:00      -88.763      -22.113        6.672       53.299       37.720       25.065     2840.769     1422.827      628.229        0.665        0.245       91.476       23.767        0.068      348.865       28.873      860.438
08/07/2014  18:46:00      -92.077       -7.978        6.671       40.106       32.102       21.716     1608.492     1030.544      471.597        0.585        0.156       92.422       24.900        0.073      348.891       28.918      860.418
08/07/2014  18:47:00      -71.680      -12.292        5.187       31.001       23.844       16.641      961.040      568.524      276.917        0.356        0.090       72.726       14.909        0.042      348.873       28.889      860.409
08/07/2014  18:48:00      -63.065      -28.486        8.871       36.395       39.212       16.708     1324.613     1537.586      279.167        0.400        0.157       69.200       19.135        0.076      348.749       28.672      860.394
08/07/2014  18:49:00      -83.747      -11.408        7.348       49.762       37.084       26.128     2476.274     1375.234      682.675        0.587        0.227       84.520       25.422        0.090      348.759       28.689      860.380
08/07/2014  18:50:00      -76.889      -28.301        4.782       64.005       34.493       23.838     4096.597     1189.788      568.270        0.629        0.293       81.932       24.538        0.090      348.693       28.574      860.375
08/07/2014  18:51:00      -88.559      -28.037        5.773       40.487       35.439       20.624     1639.201     1255.926      425.369        0.599        0.166       92.891       25.097        0.073      348.777       28.721      860.382
08/07/2014  18:52:00      -55.390       -9.189        6.607       46.277       40.869       23.229     2141.566     1670.310      539.566        0.377        0.218       56.147       22.370        0.159      348.628       28.464      860.387
08/07/2014  18:53:00      -75.505      -39.769        7.142       39.757       39.027       24.122     1580.617     1523.079      581.857        0.551        0.184       85.338       20.177        0.056      348.797       28.756      860.403
08/07/2014  18:54:00      -77.073      -18.993        2.115       42.082       39.570       29.269     1770.898     1565.784      856.702        0.525        0.210       79.379       27.324        0.118      348.772       28.711      860.428
08/07/2014  18:55:00      -67.257      -30.636        5.675       49.611       24.398       21.351     2461.227      595.242      455.874        0.450        0.176       73.906       22.151        0.090      348.815       28.787      860.452
08/07/2014  18:56:00     -106.453      -77.447       -5.589       28.481       26.644       20.216      811.163      709.908      408.706        0.965        0.096      131.644        9.908        0.006      348.846       28.839      860.461
08/07/2014  18:57:00      -64.061      -69.262        3.367       38.501       38.595       28.127     1482.311     1489.552      791.106        0.634        0.188       94.345       21.282        0.051      348.839       28.827      860.468
08/07/2014  18:58:00     -106.581      -59.007       -2.502       50.985       33.771       28.306     2599.424     1140.453      801.241        0.969        0.227      121.825       28.859        0.056      348.849       28.845      860.480
08/07/2014  18:59:00     -111.949     -101.682       -2.657       52.719       39.600       34.408     2779.252     1568.148     1183.935        1.420        0.277      151.234       29.004        0.037      348.827       28.806      860.503
08/07/2014  19:00:00      -84.029      -36.776       -3.384       67.555       42.418       24.536     4563.613     1799.292      601.997        0.769        0.348       91.725       21.654        0.056      348.846       28.838      860.516
08/07/2014  19:01:00      -82.883      -66.507        3.080       53.980       47.396       34.079     2913.828     2246.359     1161.401        0.881        0.316      106.267       28.248        0.071      348.777       28.720      860.526
08/07/2014  19:02:00     -137.821      -79.453      -11.521       38.415       34.894       23.476     1475.712     1217.574      551.133        1.434        0.162      159.083       17.389        0.012      348.799       28.759      860.551
08/07/2014  19:03:00      -88.926      -69.805        5.185       55.661       43.408       30.287     3098.110     1884.237      917.312        0.935        0.295      113.051       27.187        0.058      348.709       28.602      860.560
08/07/2014  19:04:00     -141.820      -48.156        3.961       69.423       59.101       35.511     4819.572     3492.909     1261.036        1.601        0.479      149.773       37.926        0.064      348.779       28.722      860.555
08/07/2014  19:05:00     -169.862      -52.147       -3.066       55.679       49.590       31.206     3100.189     2459.217      973.803        1.906        0.327      177.686       24.562        0.019      348.778       28.720      860.559
08/07/2014  19:06:00     -174.735      -69.804        1.385       57.033       56.800       39.049     3252.760     3226.290     1524.860        2.170        0.400      188.162       36.706        0.038      348.751       28.672      860.567
08/07/2014  19:07:00     -118.615      -53.328        9.367       56.224       37.579       23.569     3161.159     1412.165      555.486        1.106        0.256      130.052       27.013        0.043      348.715       28.614      860.569
08/07/2014  19:08:00     -165.554      -50.115       -6.224       79.373       45.423       32.793     6300.132     2063.223     1075.381        1.970        0.472      172.973       31.212        0.033      348.730       28.638      860.568
08/07/2014  19:09:00     -161.262     -104.598       -9.516       53.324       62.991       32.744     2843.446     3967.838     1072.168        2.246        0.394      192.214       28.385        0.022      348.763       28.694      860.561
08/07/2014  19:10:00     -141.907      -67.339       -4.621       62.078       60.442       33.328     3853.657     3653.185     1110.756        1.665        0.431      157.073       30.842        0.039      348.683       28.558      860.571
08/07/2014  19:11:00     -163.447      -48.953       -4.092       59.899       40.609       29.165     3587.867     1649.121      850.600        1.761        0.304      170.621       31.853        0.035      348.680       28.551      860.573
08/07/2014  19:12:00     -128.706      -60.505        0.443       42.468       43.134       24.030     1803.573     1860.579      577.442        1.223        0.212      142.218       19.898        0.020      348.641       28.482      860.569
08/07/2014  19:13:00     -170.434      -33.955       -1.126       60.362       56.368       31.316     3643.539     3177.326      980.711        1.900        0.390      173.784       30.940        0.032      348.600       28.413      860.574
08/07/2014  19:14:00     -212.635      -85.212       -1.256       51.656       44.579       30.135     2668.336     1987.272      908.108        2.902        0.278      229.073       24.774        0.012      348.580       28.375      860.579
08/07/2014  19:15:00     -140.808      -68.629        2.501      113.389       59.978       41.986    12857.171     3597.370     1762.790        2.138        0.911      156.642       55.832        0.127      348.573       28.364      860.578
08/07/2014  19:16:00     -208.171      -54.196       -7.486       82.448       74.006       49.541     6797.601     5476.881     2454.350        3.053        0.736      215.110       43.357        0.041      348.533       28.295      860.580
08/07/2014  19:17:00     -294.976     -155.324      -13.603      122.381      106.644       62.848    14977.136    11373.001     3949.932        7.080        1.515      333.371       56.903        0.029      348.510       28.253      860.574
08/07/2014  19:18:00     -281.792      -51.239      -20.529      165.623      124.368       67.269    27431.079    15467.363     4525.147        6.493        2.371      286.413       64.973        0.051      348.478       28.200      860.579
08/07/2014  19:19:00     -321.745      -87.211       -5.407      192.010      143.305       71.454    36867.748    20536.447     5105.701        8.682        3.125      333.355       80.930        0.059      348.434       28.126      860.578
08/07/2014  19:20:00     -280.900      -77.958       -6.030      160.512      138.068       77.298    25764.101    19062.744     5974.912        6.790        2.540      291.517       80.970        0.077      348.420       28.101      860.565
08/07/2014  19:21:00     -251.462      -53.474        3.306      176.692      156.858       71.352    31220.178    24604.436     5091.061        6.350        3.046      257.085       73.625        0.082      348.376       28.026      860.569
08/07/2014  19:22:00     -237.194      -29.463       -1.263      154.026      116.604       63.232    23723.934    13596.588     3998.332        4.922        2.066      239.016       70.721        0.088      348.401       28.068      860.579
08/07/2014  19:23:00     -171.911      -72.514        0.094       83.476      108.373       52.642     6968.167    11744.637     2771.189        2.814        1.074      186.579       45.139        0.059      348.419       28.100      860.595
08/07/2014  19:24:00     -150.782      -73.145       -2.766      106.129       82.876       48.816    11263.461     6868.373     2382.994        2.430        1.026      167.587       57.652        0.118      348.408       28.079      860.595
08/07/2014  19:25:00     -249.296      -19.102      -10.362      122.296       83.911       45.694    14956.326     7041.094     2087.983        4.335        1.204      250.026       49.499        0.039      348.392       28.049      860.604
08/07/2014  19:26:00     -269.804      -82.903      -10.040      128.976       89.576       60.799    16634.793     8023.897     3696.468        5.406        1.418      282.254       65.305        0.054      348.355       27.986      860.607
08/07/2014  19:27:00     -245.209      -53.849        3.046      121.189      104.795       56.027    14686.783    10981.949     3139.075        4.592        1.440      251.053       55.549        0.049      348.337       27.955      860.600
08/07/2014  19:28:00     -362.521      -57.951      -16.923      178.307      127.254       84.511    31793.435    16193.690     7142.084        9.509        2.756      367.124       98.414        0.072      348.287       27.868      860.588
08/07/2014  19:29:00     -334.873     -169.157      -10.948      141.201      170.794       81.032    19937.705    29170.678     6566.175        9.826        2.784      375.172       82.631        0.049      348.284       27.864      860.596
08/07/2014  19:30:00     -267.412      -67.641       -0.959      167.312      112.304       68.827    27993.145    12612.135     4737.149        6.070        2.267      275.834       68.969        0.063      348.256       27.814      860.593
08/07/2014  19:31:00     -166.240     -101.489       16.763      129.138      136.569       77.204    16676.544    18650.997     5960.423        3.974        2.064      194.771       78.155        0.161      348.256       27.815      860.603
08/07/2014  19:32:00     -248.738      -81.203       -0.236      150.782      130.271       67.444    22735.173    16970.584     4548.753        5.635        2.213      261.657       68.854        0.069      348.227       27.766      860.594
08/07/2014  19:33:00     -435.356     -131.000      -20.568      194.012      159.531       66.599    37640.774    25450.119     4435.368       13.731        3.376      454.638       80.179        0.031      348.195       27.711      860.595
08/07/2014  19:34:00     -232.960     -125.111       18.543      155.876      121.898       75.669    24297.339    14859.235     5725.851        5.757        2.244      264.430       84.953        0.103      348.204       27.728      860.603
08/07/2014  19:35:00     -358.192     -160.685       -6.178      165.688      125.939       72.937    27452.355    15860.650     5319.771       10.139        2.432      392.583       85.812        0.048      348.199       27.717      860.603
08/07/2014  19:36:00     -258.848      -97.769        2.840      148.493       98.782       52.687    22050.033     9757.930     2775.907        5.557        1.729      276.696       56.486        0.042      348.197       27.715      860.616
08/07/2014  19:37:00     -240.134     -189.440        4.600      168.870      129.248       83.864    28517.096    16705.010     7033.210        7.290        2.613      305.863       85.398        0.078      348.154       27.641      860.606
08/07/2014  19:38:00     -268.392     -149.610       -5.388      192.358      110.978       64.721    37001.550    12316.206     4188.767        7.397        2.675      307.274       70.809        0.053      348.147       27.629      860.619
08/07/2014  19:39:00     -308.491     -213.167      -10.340      192.476      135.961       89.226    37046.934    18485.272     7961.242       10.209        3.175      374.976      105.261        0.079      348.113       27.569      860.635
08/07/2014  19:40:00     -337.050     -198.641      -10.527      159.771      199.622       83.196    25526.778    39849.063     6921.621       11.272        3.615      391.230       91.419        0.055      348.095       27.536      860.627
08/07/2014  19:41:00     -398.681        7.484      -17.260      172.153      124.270       69.797    29636.591    15443.135     4871.644       10.462        2.498      398.751       77.458        0.038      348.072       27.497      860.646
08/07/2014  19:42:00     -262.601      -75.333      -12.311      131.583      101.826       62.344    17314.022    10368.450     3886.832        5.317        1.578      273.193       65.184        0.057      348.078       27.508      860.664
08/07/2014  19:43:00     -273.824      -87.525        1.400      144.651       81.516       54.702    20923.958     6644.903     2992.359        5.660        1.528      287.472       63.549        0.049      348.058       27.473      860.676
08/07/2014  19:44:00     -269.130     -216.463       -2.708      206.423      187.700       98.469    42610.456    35231.235     9696.201       10.340        4.377      345.380      114.371        0.110      348.035       27.435      860.680
08/07/2014  19:45:00     -198.062     -112.840        3.816      143.067      106.583       67.785    20468.053    11359.911     4594.842        4.419        1.821      227.951       77.183        0.115      348.029       27.424      860.706
08/07/2014  19:46:00     -171.853     -105.537       20.438      161.064      110.640       69.439    25941.671    12241.188     4821.802        4.204        2.150      201.672       88.992        0.195      348.017       27.403      860.726
08/07/2014  19:47:00     -216.475     -191.140       12.430      174.965      134.449       83.577    30612.699    18076.401     6985.058        6.960        2.784      288.783      100.331        0.121      348.010       27.391      860.711
08/07/2014  19:48:00     -173.193     -105.902       -5.512      117.004      132.921       62.440    13689.862    17667.926     3898.719        3.824        1.763      203.005       66.956        0.109      348.016       27.401      860.722
08/07/2014  19:49:00     -160.699      -68.980        6.583      121.630       93.734       54.930    14793.958     8786.131     3017.252        2.861        1.330      174.878       41.702        0.057      348.000       27.376      860.742
08/07/2014  19:50:00     -298.043      -72.419       16.768      185.825      148.396       80.191    34531.064    22021.308     6430.632        7.866        3.149      306.715       89.783        0.086      347.973       27.329      860.731
08/07/2014  19:51:00     -367.609     -190.447       -9.713      152.951      133.028       84.348    23393.906    17696.392     7114.599       10.984        2.410      414.013       74.474        0.032      347.974       27.330      860.720
08/07/2014  19:52:00     -316.016     -135.466      -11.706      158.304      129.875       76.885    25060.057    16867.474     5911.262        8.309        2.392      343.828       83.688        0.059      347.984       27.348      860.730
08/07/2014  19:53:00     -291.829      -84.736      -13.511      187.733      125.529       87.389    35243.508    15757.602     7636.903        7.557        2.932      303.882      110.185        0.131      347.965       27.314      860.732
08/07/2014  19:54:00     -309.139     -135.002       -8.912      171.654      125.847       81.153    29465.241    15837.513     6585.746        8.287        2.594      337.332       87.395        0.067      347.962       27.308      860.744
08/07/2014  19:55:00     -226.021     -139.163       -8.890      118.139      130.557       65.649    13956.849    17045.139     4309.791        5.291        1.766      265.428       64.809        0.060      347.977       27.336      860.731
08/07/2014  19:56:00     -153.057       -7.295       23.091      200.261      145.728       92.018    40104.281    21236.555     8467.236        4.690        3.490      153.231      108.869        0.505      347.953       27.295      860.721
08/07/2014  19:57:00     -343.070     -124.606      -12.941      148.427      127.732       70.568    22030.525    16315.475     4979.818        8.835        2.166      364.998       75.348        0.043      347.944       27.277      860.750
08/07/2014  19:58:00     -369.081     -111.304        0.327      182.348      185.650       88.101    33250.879    34465.950     7761.872       11.203        3.774      385.498       97.328        0.064      347.923       27.240      860.751
08/07/2014  19:59:00     -404.469     -205.257      -16.970      282.449      190.463      102.521    79777.215    36276.101    10510.510       16.626        6.328      453.570      141.032        0.097      347.916       27.229      860.746
08/07/2014  20:00:00     -294.156     -125.389      -19.504      176.553      166.272       80.708    31171.074    27646.491     6513.824        8.397        3.267      319.766       79.734        0.062      347.936       27.263      860.769
08/07/2014  20:01:00     -402.794      -83.516       -9.515      191.687      143.623       82.801    36743.864    20627.694     6856.031       11.676        3.211      411.362       85.299        0.043      347.915       27.226      860.801
08/07/2014  20:02:00     -318.824     -189.393        0.055      209.974      154.827       89.153    44089.245    23971.474     7948.278       10.675        3.800      370.835      101.513        0.075      347.900       27.199      860.798
08/07/2014  20:03:00     -338.471     -119.856      -17.778      174.232      150.197       71.096    30356.691    22559.258     5054.644        9.360        2.899      359.066       85.058        0.056      347.898       27.197      860.814
08/07/2014  20:04:00     -403.474      -34.774      -22.094      143.784       97.606       65.810    20673.797     9526.928     4331.020        9.950        1.727      404.969       66.614        0.027      347.890       27.181      860.838
08/07/2014  20:05:00     -256.405      -32.675      -11.585      118.125       65.987       54.850    13953.436     4354.286     3008.550        4.413        1.066      258.479       58.004        0.050      347.865       27.140      860.859
08/07/2014  20:06:00     -207.235     -132.455        6.058      144.050       82.650       59.603    20750.393     6831.089     3552.530        4.582        1.557      245.948       64.907        0.070      347.878       27.164      860.850
08/07/2014  20:07:00     -171.455     -102.190       12.053      133.926      114.825       60.574    17936.054    13184.819     3669.172        3.738        1.740      199.599       70.656        0.125      347.880       27.165      860.852
08/07/2014  20:08:00     -161.633     -161.673       30.019      156.436      141.715       84.664    24472.130    20083.181     7167.929        5.243        2.586      228.612       92.854        0.165      347.858       27.129      860.853
08/07/2014  20:09:00     -330.647     -120.417      -22.106      170.586      120.838       67.794    29099.747    14601.766     4595.988        8.630        2.415      351.892       71.605        0.041      347.858       27.128      860.865
08/07/2014  20:10:00     -283.351     -127.288       -1.808      164.127      144.644       74.365    26937.728    20921.907     5530.154        7.493        2.669      310.628       73.882        0.057      347.846       27.108      860.867
08/07/2014  20:11:00     -277.191     -237.696       -2.434      170.901      168.370       99.402    29207.282    28348.434     9880.665       10.037        3.372      365.150       99.201        0.074      347.845       27.105      860.862
08/07/2014  20:12:00     -285.589     -142.384       -3.280      169.028      121.558       72.530    28570.419    14776.313     5260.548        7.522        2.430      319.115       76.191        0.057      347.855       27.122      860.877
08/07/2014  20:13:00     -309.485     -107.071       -8.214      139.994      127.046       60.311    19598.191    16140.639     3637.418        7.334        1.969      327.484       49.401        0.023      347.848       27.111      860.897
08/07/2014  20:14:00     -198.132     -129.309        0.216      157.190      136.586       76.879    24708.604    18655.708     5910.439        5.262        2.464      236.595       85.238        0.130      347.846       27.108      860.904
08/07/2014  20:15:00     -264.780      -72.068        1.704      165.827      144.193       73.043    27498.557    20791.756     5335.212        6.445        2.681      274.412       81.828        0.089      347.847       27.109      860.913
08/07/2014  20:16:00     -263.641     -136.433       -6.826      121.635      118.197       60.458    14795.177    13970.452     3655.199        6.029        1.621      296.850       51.139        0.030      347.827       27.073      860.931
08/07/2014  20:17:00     -269.886     -214.262      -16.178      128.892      137.648       73.161    16613.020    18946.954     5352.530        7.995        2.046      344.596       68.269        0.039      347.830       27.078      860.951
08/07/2014  20:18:00     -139.304      -87.760       12.813      156.673      107.856       61.957    24546.413    11632.880     3838.650        3.364        2.001      164.643       77.185        0.220      347.782       26.998      860.948
08/07/2014  20:19:00     -277.920     -149.085        8.534      153.487      127.928       78.004    23558.387    16365.459     6084.684        7.276        2.300      315.382       85.764        0.074      347.803       27.032      860.967
08/07/2014  20:20:00     -272.533     -145.768      -12.322      157.288      107.758       63.257    24739.553    11611.693     4001.511        6.801        2.018      309.068       59.093        0.037      347.813       27.050      860.980
08/07/2014  20:21:00     -215.934     -104.803        3.572      176.839      119.751       70.006    31271.909    14340.332     4900.815        5.406        2.526      240.023       79.292        0.109      347.804       27.036      860.974
08/07/2014  20:22:00     -179.840      -60.314       15.283      124.379      104.840       56.118    15470.107    10991.510     3149.279        3.291        1.481      189.685       55.367        0.085      347.771       26.980      860.992
08/07/2014  20:23:00     -269.988      -77.447      -16.155      135.866      104.708       54.621    18459.461    10963.710     2983.448        5.577        1.620      280.877       50.535        0.032      347.744       26.933      861.008
08/07/2014  20:24:00     -392.030      -78.299      -20.315      115.247      139.275       61.941    13281.979    19397.448     3836.636        9.837        1.826      399.772       47.444        0.014      347.752       26.946      861.021
08/07/2014  20:25:00     -338.560     -121.111      -16.608      172.445      134.950       74.172    29737.168    18211.406     5501.434        9.150        2.673      359.570       82.246        0.052      347.730       26.908      861.022
08/07/2014  20:26:00     -384.507      -55.601      -16.611      206.959      107.872       74.945    42831.888    11636.466     5616.740       10.564        3.004      388.506       91.769        0.056      347.711       26.876      861.041
08/07/2014  20:27:00     -219.866     -111.847       -7.209      152.901       64.418       54.481    23378.564     4149.658     2968.141        4.569        1.525      246.679       65.042        0.070      347.692       26.843      861.061
08/07/2014  20:28:00     -290.633     -145.897       -6.423      172.978      116.665       65.185    29921.387    13610.631     4249.044        7.678        2.389      325.198       85.545        0.069      347.692       26.840      861.065
08/07/2014  20:29:00     -229.822      -54.942       -0.020      123.424      105.760       66.215    15233.467    11185.183     4384.365        4.331        1.540      236.298       70.112        0.088      347.672       26.806      861.065
08/07/2014  20:30:00     -359.283     -160.035      -23.410      128.559      122.399       58.865    16527.435    14981.447     3465.041        9.510        1.749      393.313       57.414        0.021      347.678       26.818      861.085
08/07/2014  20:31:00     -333.542     -188.769      -15.055      149.280      116.048       59.964    22284.663    13467.139     3595.706        9.322        1.967      383.254       70.439        0.034      347.676       26.814      861.083
08/07/2014  20:32:00     -234.992      -86.197       -5.323      116.491       95.313       55.361    13570.227     9084.552     3064.877        4.419        1.286      250.302       50.522        0.041      347.655       26.778      861.098
08/07/2014  20:33:00     -216.947     -171.563       -5.351      200.651      159.477       87.735    40260.654    25432.789     7697.467        7.494        3.670      276.586      105.239        0.145      347.639       26.751      861.095
08/07/2014  20:34:00     -284.891     -182.429      -10.019      144.083       92.859       62.713    20759.888     8622.808     3932.888        7.392        1.666      338.295       81.267        0.058      347.659       26.785      861.121
08/07/2014  20:35:00     -285.132     -159.769        4.636      133.021      106.469       73.566    17694.609    11335.737     5411.971        7.064        1.722      326.843       77.802        0.057      347.622       26.723      861.134
08/07/2014  20:36:00     -296.397      -52.773        8.791      182.282      106.133       64.921    33226.659    11264.226     4214.775        6.970        2.435      301.059       59.540        0.039      347.627       26.729      861.138
08/07/2014  20:37:00     -276.346     -117.125       -2.138      195.784      110.178       73.770    38331.313    12139.111     5442.025        7.299        2.796      300.142      101.820        0.115      347.616       26.712      861.166
08/07/2014  20:38:00     -276.655     -101.885       -2.259      182.339      126.080       63.568    33247.631    15896.169     4040.941        7.004        2.659      294.820       70.279        0.057      347.599       26.682      861.177
08/07/2014  20:39:00     -245.211     -144.573        9.811      180.457      145.139       96.416    32564.781    21065.316     9296.094        7.201        3.146      284.658      112.847        0.157      347.596       26.677      861.171
08/07/2014  20:40:00     -304.468     -122.477      -15.579      113.271      138.071       69.960    12830.241    19063.662     4894.449        7.236        1.839      328.179       69.637        0.045      347.595       26.674      861.188
08/07/2014  20:41:00     -277.114     -140.684      -15.656      119.892      136.535       72.477    14374.093    18641.782     5252.872        6.754        1.913      310.780       73.705        0.056      347.588       26.662      861.196
08/07/2014  20:42:00     -256.592     -142.064        3.623      132.528      116.685       64.408    17563.701    13615.419     4148.386        6.067        1.766      293.294       71.815        0.060      347.551       26.599      861.207
08/07/2014  20:43:00     -181.334      -87.419       13.894      173.045      104.838       73.322    29944.698    10991.003     5376.107        4.351        2.316      201.306       83.278        0.171      347.530       26.562      861.209
08/07/2014  20:44:00     -203.671      -80.285       -1.016      170.005       78.257       68.594    28901.864     6124.187     4705.089        4.382        1.987      218.924       91.563        0.175      347.544       26.589      861.233
08/07/2014  20:45:00     -170.335     -107.692       23.896      180.841      110.044       81.336    32703.590    12109.667     6615.617        4.630        2.571      201.523      109.011        0.293      347.535       26.573      861.234
08/07/2014  20:46:00     -273.645     -171.900       -9.066      136.717      120.335       68.389    18691.652    14480.451     4677.102        7.117        1.892      323.158       82.463        0.065      347.520       26.544      861.221
08/07/2014  20:47:00     -204.926     -102.603       -7.620      126.514       87.979       52.757    16005.681     7740.354     2783.281        3.955        1.326      229.177       64.511        0.079      347.504       26.519      861.242
08/07/2014  20:48:00     -196.195      -99.526        4.467       93.388       78.525       49.690     8721.261     6166.130     2469.111        3.288        0.868      219.995       44.414        0.041      347.464       26.447      861.240
08/07/2014  20:49:00     -240.653      -24.662      -17.412      128.506       86.896       49.800    16513.852     7550.941     2480.088        4.268        1.327      241.913       38.291        0.025      347.479       26.475      861.253
08/07/2014  20:50:00     -239.651     -103.808        0.858       95.963       87.659       49.333     9208.992     7684.044     2433.709        4.376        0.966      261.168       49.920        0.037      347.467       26.453      861.261
08/07/2014  20:51:00     -215.563      -88.465       -6.748       92.613       72.181       47.078     8577.212     5210.055     2216.299        3.517        0.800      233.010       45.996        0.039      347.446       26.416      861.278
08/07/2014  20:52:00     -223.743     -118.809       -8.459      106.203       64.017       52.813    11279.156     4098.223     2789.230        4.120        0.908      253.331       52.091        0.042      347.451       26.426      861.289
08/07/2014  20:53:00     -152.009      -77.493       12.055      103.624      121.588       56.702    10738.014    14783.594     3215.146        2.899        1.437      170.622       55.677        0.106      347.404       26.346      861.301
08/07/2014  20:54:00     -223.347     -123.834        4.423      123.088      101.396       60.142    15150.666    10281.220     3617.030        4.714        1.452      255.380       66.715        0.068      347.402       26.341      861.303
08/07/2014  20:55:00     -267.775     -148.267       -3.020      133.124       87.383       62.246    17721.965     7635.706     3874.519        6.146        1.462      306.083       59.358        0.038      347.400       26.338      861.305
08/07/2014  20:56:00     -159.868     -141.544        2.616      127.806      119.485       60.818    16334.393    14276.652     3698.811        3.995        1.715      213.524       76.198        0.127      347.384       26.312      861.307
08/07/2014  20:57:00     -236.225     -133.068      -14.416       93.958       55.515       46.286     8828.078     3081.931     2142.438        4.388        0.703      271.126       46.848        0.030      347.380       26.304      861.312
08/07/2014  20:58:00     -165.049     -118.237        0.735      122.157       94.534       54.239    14922.404     8936.723     2941.898        3.401        1.340      203.030       51.713        0.065      347.357       26.265      861.309
08/07/2014  20:59:00     -180.983     -112.750        0.954      106.488      100.279       58.642    11339.666    10055.955     3438.929        3.515        1.242      213.231       55.105        0.067      347.347       26.247      861.314
08/07/2014  21:00:00     -163.581      -83.330       -9.027      100.841       66.999       51.566    10168.854     4488.916     2659.014        2.555        0.866      183.582       49.271        0.072      347.363       26.275      861.319
08/07/2014  21:01:00     -204.857      -68.379      -15.498       92.540       67.743       40.753     8563.658     4589.051     1660.824        3.084        0.741      215.967       40.852        0.036      347.347       26.247      861.326
08/07/2014  21:02:00     -165.622     -115.053      -11.275      102.530       77.336       57.362    10512.396     5980.932     3290.399        3.029        0.989      201.663       59.513        0.087      347.321       26.203      861.323
08/07/2014  21:03:00     -205.308      -90.177       -4.872       96.856       99.012       50.379     9381.031     9803.468     2538.065        3.601        1.086      224.239       45.675        0.041      347.278       26.130      861.336
08/07/2014  21:04:00     -253.046      -88.433        2.046      105.910      125.936       51.818    11216.973    15859.858     2685.060        5.080        1.488      268.053       54.245        0.041      347.285       26.139      861.340
08/07/2014  21:05:00     -311.535      -73.745      -18.672      196.689       95.422       63.302    38686.707     9105.382     4007.119        7.731        2.590      320.145       76.595        0.057      347.269       26.111      861.341
08/07/2014  21:06:00     -245.492      -92.079      -12.940      121.000       95.346       54.767    14641.071     9090.798     2999.477        4.782        1.337      262.192       51.808        0.039      347.257       26.091      861.355
08/07/2014  21:07:00     -235.888      -36.717      -12.453      131.902      101.234       55.156    17398.261    10248.415     3042.177        4.391        1.534      238.729       54.814        0.053      347.241       26.066      861.362
08/07/2014  21:08:00     -308.838     -170.837      -13.320      133.270      135.807       63.702    17760.853    18443.605     4057.967        8.250        2.013      352.940       60.365        0.029      347.263       26.101      861.360
08/07/2014  21:09:00      -75.010      -24.713        8.382       62.876       53.340       35.889     3953.348     2845.112     1288.049        0.720        0.404       78.977       29.796        0.142      347.224       26.038      861.390
08/07/2014  21:10:00     -200.719     -148.969       -5.876      130.814      102.950       51.277    17112.225    10598.794     2629.335        4.642        1.517      249.960       57.490        0.053      347.226       26.039      861.402
08/07/2014  21:11:00     -251.685     -112.668      -11.158      114.777       79.928       50.029    13173.796     6388.488     2502.864        4.911        1.103      275.752       51.571        0.035      347.208       26.007      861.417
08/07/2014  21:12:00     -270.530     -104.371        0.125      124.004      125.088       54.490    15376.930    15647.020     2969.118        5.903        1.700      289.965       55.300        0.036      347.224       26.033      861.428
08/07/2014  21:13:00     -185.187      -62.271        4.491      113.517       79.206       55.297    12886.003     6273.534     3057.764        3.020        1.111      195.376       58.378        0.089      347.211       26.014      861.457
08/07/2014  21:14:00     -204.010      -65.667       -1.580       99.096      104.972       61.787     9820.005    11019.134     3817.633        3.529        1.233      214.318       61.488        0.082      347.198       25.989      861.476
08/07/2014  21:15:00     -139.576      -65.906        7.645      100.106       90.232       59.228    10021.249     8141.756     3507.941        2.277        1.084      154.354       53.243        0.119      347.183       25.967      861.485
08/07/2014  21:16:00      -87.611      -38.416       18.804      134.158       73.570       57.721    17998.423     5412.547     3331.680        1.812        1.337       95.663       71.736        0.562      347.124       25.865      861.503
08/07/2014  21:17:00     -292.388     -102.817       -5.973      118.141       96.906       55.473    13957.322     9390.869     3077.215        6.126        1.321      309.939       59.910        0.037      347.175       25.951      861.536
08/07/2014  21:18:00     -228.959      -66.124       -7.141      143.672      116.639       65.915    20641.554    13604.748     4344.773        4.771        1.930      238.316       69.490        0.085      347.135       25.881      861.532
08/07/2014  21:19:00     -250.496      -78.489       -9.452      130.488      122.079       68.833    17027.000    14903.225     4737.913        5.283        1.833      262.505       65.704        0.063      347.122       25.859      861.572
08/07/2014  21:20:00     -320.334     -124.123       -8.893      164.480      134.683       68.078    27053.543    18139.404     4634.641        8.395        2.491      343.541       68.997        0.040      347.157       25.920      861.585
08/07/2014  21:21:00     -322.254     -123.204      -10.106      139.317      110.086       54.224    19409.207    12118.927     2940.263        7.679        1.723      345.002       50.089        0.021      347.161       25.927      861.604
08/07/2014  21:22:00     -164.925      -88.024        1.512      100.964       98.315       58.774    10193.780     9665.922     3454.325        2.913        1.166      186.945       53.032        0.080      347.136       25.885      861.624
08/07/2014  21:23:00     -158.115      -89.604        4.586       87.472       69.203       40.721     7651.366     4789.121     1658.160        2.357        0.705      181.739       41.433        0.052      347.094       25.813      861.652
08/07/2014  21:24:00     -206.603      -49.106       -3.156      115.948       83.339       60.638    13443.912     6945.470     3676.965        3.458        1.203      212.359       66.051        0.097      347.117       25.852      861.659
08/07/2014  21:25:00     -148.070      -42.249        5.660      113.941       71.732       49.812    12982.501     5145.508     2481.255        2.217        1.030      153.979       49.858        0.105      347.093       25.811      861.671
08/07/2014  21:26:00     -238.113      -85.880      -16.687       76.031       76.655       39.777     5780.637     5876.005     1582.221        3.879        0.662      253.127       39.593        0.024      347.099       25.818      861.688
08/07/2014  21:27:00     -167.221      -85.010       -0.719       94.746       86.776       52.960     8976.742     7530.069     2804.805        2.725        0.966      187.589       46.898        0.063      347.079       25.787      861.699
08/07/2014  21:28:00     -129.543      -33.020        1.220       66.739       83.958       42.208     4454.044     7048.976     1781.556        1.558        0.664      133.686       30.270        0.051      347.035       25.711      861.707
08/07/2014  21:29:00     -247.058      -65.486       -0.317      135.094       77.885       45.167    18250.305     6066.018     2040.078        4.584        1.318      255.589       53.904        0.044      347.061       25.754      861.721
08/07/2014  21:30:00     -221.460      -75.918       -4.127      164.825      104.725       61.050    27167.335    10967.422     3727.054        4.833        2.093      234.111       65.969        0.079      347.029       25.697      861.725
08/07/2014  21:31:00     -299.060      -79.609       -5.061      134.259      136.407       70.139    18025.442    18606.841     4919.537        6.867        2.078      309.475       71.224        0.053      347.061       25.754      861.734
08/07/2014  21:32:00     -210.483      -89.903       -4.831      109.603      100.521       51.880    12012.811    10104.383     2691.562        3.860        1.240      228.879       49.519        0.047      347.037       25.712      861.737
08/07/2014  21:33:00     -190.617      -74.580       -4.337      104.362      112.440       49.875    10891.445    12642.706     2487.547        3.396        1.301      204.687       54.185        0.070      346.996       25.643      861.765
08/07/2014  21:34:00     -229.807     -104.870       -6.203      117.930       97.912       52.417    13907.404     9586.803     2747.588        4.504        1.312      252.604       54.607        0.047      347.002       25.653      861.769
08/07/2014  21:35:00     -223.170      -48.028      -12.593      114.043       73.323       47.960    13005.814     5376.324     2300.175        3.647        1.034      228.279       51.841        0.052      346.986       25.625      861.774
08/07/2014  21:36:00     -153.629      -41.960        5.802       92.415       85.284       44.653     8540.506     7273.423     1993.914        2.160        0.890      159.256       42.658        0.072      346.932       25.534      861.778
08/07/2014  21:37:00     -247.846      -58.955      -11.413      117.957       82.610       55.267    13913.874     6824.335     3054.409        4.441        1.190      254.761       53.859        0.045      346.951       25.566      861.790
08/07/2014  21:38:00     -210.681      -60.449      -10.024      116.723       81.600       38.230    13624.345     6658.561     1461.548        3.494        1.087      219.182       42.362        0.037      346.955       25.572      861.778
08/07/2014  21:39:00     -196.146      -50.631       -8.263      126.395       82.777       50.661    15975.730     6852.050     2566.514        3.324        1.270      202.575       66.797        0.109      346.924       25.519      861.779
08/07/2014  21:40:00     -248.117      -55.444        7.642      143.040       92.940       54.727    20460.553     8637.935     2995.009        4.839        1.605      254.236       63.861        0.063      346.939       25.544      861.778
08/07/2014  21:41:00     -338.128     -120.197       -7.064      143.697      110.207       64.457    20648.686    12145.590     4154.651        8.288        1.847      358.857       60.428        0.028      346.957       25.575      861.768
08/07/2014  21:42:00     -294.248      -29.842      -17.836      159.315       80.474       50.970    25381.386     6476.038     2597.909        6.112        1.723      295.757       64.702        0.048      346.939       25.544      861.777
08/07/2014  21:43:00     -167.233      -43.538        0.301       71.401       80.885       41.323     5098.146     6542.351     1707.624        2.160        0.667      172.807       39.223        0.052      346.910       25.495      861.789
08/07/2014  21:44:00     -130.641      -58.480        2.657      115.211      118.430       59.086    13273.662    14025.617     3491.118        2.564        1.540      143.133       53.486        0.140      346.908       25.492      861.779
08/07/2014  21:45:00     -194.910       -0.485       -3.690       89.335       76.900       52.773     7980.801     5913.541     2785.004        2.734        0.834      194.911       44.983        0.053      346.919       25.510      861.786
08/07/2014  21:46:00     -129.046      -72.967        9.652       79.794       85.334       56.495     6367.008     7281.947     3191.669        1.945        0.842      148.247       51.940        0.123      346.921       25.515      861.773
08/07/2014  21:47:00     -205.081      -90.125        4.546      134.205       86.688       50.983    18010.997     7514.822     2599.266        3.916        1.406      224.010       52.325        0.055      346.875       25.433      861.787
08/07/2014  21:48:00     -220.028      -66.352       -7.781      120.438       77.942       48.593    14505.373     6075.023     2361.258        3.790        1.147      229.815       51.786        0.051      346.893       25.466      861.795
08/07/2014  21:49:00     -192.576      -19.048       -6.883       98.456       75.761       51.685     9693.499     5739.661     2671.300        2.780        0.905      193.516       55.981        0.084      346.821       25.341      861.796
08/07/2014  21:50:00     -219.447      -20.757       -6.515      114.167       51.369       45.517    13034.196     2638.767     2071.840        3.318        0.887      220.427       53.664        0.059      346.847       25.387      861.806
08/07/2014  21:51:00     -258.168      -47.371       -0.671      150.171       92.849       62.304    22551.263     8620.916     3881.737        5.197        1.753      262.478       66.084        0.063      346.862       25.411      861.827
08/07/2014  21:52:00     -317.732       -9.514       -5.457      109.115      106.387       54.440    11906.082    11318.181     2963.666        6.363        1.309      317.874       55.536        0.031      346.891       25.461      861.825
08/07/2014  21:53:00     -259.024      -38.546        3.995      165.709      115.746       67.130    27459.603    13397.207     4506.431        5.697        2.268      261.876       86.954        0.110      346.875       25.433      861.830
08/07/2014  21:54:00     -171.518      -50.431       -1.118       92.943       90.663       49.423     8638.440     8219.748     2442.615        2.563        0.965      178.778       43.299        0.059      346.836       25.369      861.848
08/07/2014  21:55:00     -197.187      -37.823       12.016      107.471      105.458       58.049    11549.988    11121.290     3369.738        3.324        1.302      200.782       54.678        0.074      346.818       25.336      861.853
08/07/2014  21:56:00     -111.739      -21.433        3.161      128.120       74.661       46.382    16414.640     5574.335     2151.322        1.854        1.207      113.776       49.616        0.190      346.792       25.293      861.854
08/07/2014  21:57:00     -239.468     -125.715       -5.279      149.778       87.845       47.523    22433.329     7716.812     2258.410        5.279        1.620      270.461       53.147        0.039      346.839       25.372      861.864
08/07/2014  21:58:00     -163.689      -39.352       -1.404      105.101       85.927       46.377    11046.235     7383.501     2150.822        2.446        1.029      168.352       40.399        0.058      346.820       25.341      861.869
08/07/2014  21:59:00     -148.791      -19.894       -5.046       89.995       87.169       47.054     8099.012     7598.488     2214.070        2.023        0.896      150.115       39.503        0.069      346.838       25.372      861.871
08/07/2014  22:00:00     -156.275      -33.614      -10.638      114.491       57.804       40.198    13108.243     3341.259     1615.856        2.186        0.903      159.850       42.632        0.071      346.820       25.341      861.859
08/07/2014  22:01:00     -242.197     -101.279      -13.943      142.070      103.686       61.818    20183.904    10750.837     3821.483        5.193        1.738      262.521       57.976        0.049      346.857       25.404      861.854
08/07/2014  22:02:00     -218.268      -22.013      -11.010      109.762       76.040       51.940    12047.735     5782.057     2697.784        3.438        1.026      219.376       55.770        0.065      346.824       25.347      861.843
08/07/2014  22:03:00     -257.565      -85.589      -10.791      123.925       94.806       62.188    15357.293     8988.181     3867.334        5.099        1.411      271.414       59.991        0.049      346.813       25.327      861.851
08/07/2014  22:04:00     -190.586     -110.027        5.422      122.120      109.499       65.414    14913.295    11990.127     4279.056        3.981        1.559      220.066       68.674        0.097      346.764       25.241      861.865
08/07/2014  22:05:00     -192.204      -55.392        6.405      120.812      100.516       51.952    14595.647    10103.482     2699.035        3.372        1.370      200.027       57.552        0.083      346.720       25.168      861.884
08/07/2014  22:06:00     -225.053     -107.729       -8.462      139.040      137.408       60.542    19332.151    18880.859     3665.294        5.209        2.094      249.508       56.155        0.051      346.784       25.278      861.893
08/07/2014  22:07:00     -209.233      -62.306       -2.087      120.105       69.304       52.934    14425.280     4803.046     2802.038        3.484        1.102      218.313       58.624        0.072      346.785       25.280      861.905
08/07/2014  22:08:00     -180.986      -15.481      -11.702      121.279       80.171       50.522    14708.540     6427.338     2552.491        2.841        1.184      181.647       58.841        0.105      346.751       25.221      861.912
08/07/2014  22:09:00     -215.885      -67.868       -3.507      100.928       66.581       40.398    10186.376     4433.081     1631.959        3.373        0.813      226.301       36.667        0.026      346.743       25.207      861.910
08/07/2014  22:10:00     -289.934      -73.236      -13.690      118.057       78.807       46.501    13937.553     6210.580     2162.343        5.596        1.116      299.040       50.347        0.028      346.774       25.261      861.928
08/07/2014  22:11:00     -206.078        7.343        6.894      109.673       79.765       59.620    12028.128     6362.389     3554.511        3.225        1.097      206.209       55.944        0.074      346.707       25.144      861.939
08/07/2014  22:12:00     -287.549      -64.483        3.416      119.500       81.320       58.986    14280.302     6612.955     3479.298        5.561        1.219      294.690       58.507        0.039      346.768       25.249      861.936
08/07/2014  22:13:00     -258.771     -101.137      -21.075       79.812       75.200       43.363     6369.924     5655.062     1880.348        4.577        0.695      277.833       30.882        0.012      346.767       25.248      861.937
08/07/2014  22:14:00     -262.918      -31.649      -10.601      127.455      101.247       54.974    16244.726    10250.941     3022.114        4.987        1.476      264.816       54.648        0.043      346.782       25.274      861.936
08/07/2014  22:15:00     -242.207     -139.472       -9.279      140.265      107.803       54.040    19674.231    11621.569     2920.345        5.620        1.711      279.493       61.527        0.048      346.767       25.250      861.932
08/07/2014  22:16:00     -152.051      -70.269        5.914       99.550       85.252       51.278     9910.269     7267.915     2629.407        2.395        0.990      167.503       56.833        0.115      346.715       25.159      861.940
08/07/2014  22:17:00     -190.509     -109.567      -12.221       84.916       63.962       47.177     7210.761     4091.094     2225.698        3.098        0.676      219.769       45.177        0.042      346.726       25.178      861.942
08/07/2014  22:18:00      -55.958      -55.934       17.531       83.381       60.231       50.504     6952.444     3627.732     2550.692        0.985        0.657       79.119       54.027        0.466      346.682       25.106      861.941
08/07/2014  22:19:00     -159.518      -78.442       -0.232       83.556       92.267       47.359     6981.544     8513.205     2242.843        2.466        0.887      177.762       43.697        0.060      346.695       25.125      861.938
08/07/2014  22:20:00     -222.495     -119.645      -17.794      119.844       92.767       59.243    14362.575     8605.752     3509.683        4.530        1.324      252.624       64.620        0.065      346.763       25.242      861.941
08/07/2014  22:21:00     -108.668      -20.292        6.782       97.978       61.187       33.467     9599.750     3743.824     1120.067        1.336        0.723      110.547       34.427        0.097      346.707       25.147      861.936
08/07/2014  22:22:00      -88.791      -60.402        2.416       94.874       49.471       33.952     9001.104     2447.340     1152.721        1.207        0.630      107.389       34.581        0.104      346.711       25.155      861.914
08/07/2014  22:23:00     -157.080      -90.304       -6.805      106.549      115.135       48.234    11352.670    13256.119     2326.497        2.990        1.347      181.188       62.295        0.118      346.752       25.224      861.895
08/07/2014  22:24:00     -129.157      -66.919       -4.508       91.264       86.186       39.659     8329.164     7428.108     1572.855        1.925        0.867      145.463       42.417        0.085      346.694       25.124      861.906
08/07/2014  22:25:00     -191.184      -90.670      -13.953      120.756       87.634       54.335    14582.118     7679.747     2952.258        3.509        1.261      211.594       62.372        0.087      346.707       25.145      861.912
08/07/2014  22:26:00     -174.326     -111.140       -2.962      100.000       74.865       45.938     9999.985     5604.772     2110.281        3.023        0.886      206.741       50.599        0.060      346.671       25.084      861.908
08/07/2014  22:27:00     -229.507      -84.128       -3.490      102.900       94.092       48.189    10588.327     8853.361     2322.174        4.076        1.088      244.440       55.426        0.051      346.707       25.144      861.909
08/07/2014  22:28:00     -192.402      -29.359       -6.456      109.286       83.047       42.658    11943.430     6896.860     1819.675        2.929        1.033      194.629       41.130        0.045      346.667       25.076      861.921
08/07/2014  22:29:00     -219.221      -70.936      -16.267       60.859       70.138       35.105     3703.780     4919.399     1232.378        3.160        0.493      230.412       30.192        0.017      346.696       25.125      861.928
08/07/2014  22:30:00     -117.975      -24.446        5.590      104.663       63.461       45.479    10954.269     4027.271     2068.297        1.579        0.852      120.482       52.983        0.193      346.615       24.989      861.929
08/07/2014  22:31:00      -68.560       -4.524        7.217       86.152       55.027       34.801     7422.217     3027.959     1211.130        0.821        0.583       68.709       36.986        0.290      346.586       24.939      861.934
08/07/2014  22:32:00     -137.167      -26.653        0.581       72.915       72.700       42.035     5316.643     5285.274     1766.929        1.594        0.618      139.732       37.924        0.074      346.568       24.908      861.955
08/07/2014  22:33:00     -206.913      -73.157       -1.835       93.822       90.774       45.013     8802.617     8239.884     2026.186        3.361        0.953      219.465       44.684        0.041      346.629       25.011      861.957
08/07/2014  22:34:00     -169.858      -35.037       -1.255       72.242       61.087       38.314     5218.881     3731.581     1468.000        2.025        0.521      173.433       35.095        0.041      346.589       24.942      861.956
08/07/2014  22:35:00     -248.520      -62.782       -3.976       93.683       68.062       43.399     8776.420     4632.370     1883.476        4.050        0.765      256.328       46.921        0.034      346.599       24.960      861.963
08/07/2014  22:36:00     -309.643       -1.245      -14.716       93.364       90.441       54.874     8716.927     8179.586     3011.190        5.800        0.995      309.645       45.463        0.022      346.645       25.037      861.970
08/07/2014  22:37:00     -204.518      -78.479       -1.594       83.616       96.721       50.082     6991.673     9354.950     2508.187        3.342        0.943      219.058       45.463        0.043      346.593       24.949      861.978
08/07/2014  22:38:00     -338.738      -58.672      -16.645      109.389      116.226       57.451    11966.029    13508.465     3300.621        7.361        1.439      343.782       62.998        0.034      346.683       25.101      861.981
08/07/2014  22:39:00     -300.788      -11.324       -7.006      106.127       78.193       55.524    11262.878     6114.145     3082.964        5.555        1.023      301.001       53.886        0.032      346.631       25.014      861.994
08/07/2014  22:40:00     -259.019      -32.582      -12.150      100.320       82.155       60.591    10064.177     6749.428     3671.235        4.439        1.024      261.060       59.099        0.051      346.619       24.994      862.008
08/07/2014  22:41:00     -151.151      -56.727      -12.867      104.337       72.950       48.772    10886.248     5321.753     2378.662        2.240        0.929      161.446       54.413        0.114      346.597       24.956      862.017
08/07/2014  22:42:00     -267.395      -50.929       -6.498      100.896       78.166       58.069    10180.082     6109.901     3372.018        4.690        0.983      272.202       58.297        0.046      346.622       24.999      862.022
08/07/2014  22:43:00     -162.663      -23.975       -0.633      144.963       51.849       45.043    21014.215     2688.273     2028.894        2.638        1.287      164.420       60.033        0.133      346.568       24.906      862.014
08/07/2014  22:44:00     -264.725      -29.798      -10.707      130.770       75.306       47.683    17100.798     5671.037     2273.714        4.806        1.252      266.397       47.234        0.031      346.600       24.962      862.004
08/07/2014  22:45:00     -192.494      -35.520       -5.228      112.706       76.463       45.769    12702.696     5846.642     2094.778        2.949        1.032      195.744       49.129        0.063      346.584       24.932      861.998
08/07/2014  22:46:00     -228.200      -47.140        5.293      137.431       70.380       52.965    18887.403     4953.400     2805.321        4.048        1.332      233.018       66.514        0.081      346.590       24.944      861.996
08/07/2014  22:47:00     -134.778      -44.478       12.367      103.037       78.462       54.467    10616.668     6156.294     2966.607        2.001        0.987      141.927       54.872        0.149      346.603       24.968      861.991
08/07/2014  22:48:00     -118.594      -26.448       16.057       93.957       65.358       45.300     8827.947     4271.691     2052.086        1.508        0.758      121.507       42.778        0.124      346.572       24.915      861.990
08/07/2014  22:49:00     -123.125      -52.930       10.333      138.844      125.695       60.222    19277.547    15799.245     3626.655        2.838        1.935      134.020       69.831        0.271      346.562       24.896      861.985
08/07/2014  22:50:00     -197.888      -84.337       -5.364      128.382       89.808       53.843    16481.882     8065.534     2899.057        3.687        1.372      215.110       57.210        0.071      346.618       24.992      861.987
08/07/2014  22:51:00     -105.316      -65.974       18.001      133.431      108.694       76.127    17803.841    11814.480     5795.337        2.558        1.771      124.274       64.049        0.266      346.629       25.011      861.984
08/07/2014  22:52:00      -53.139       41.003       18.796       82.046       61.755       50.939     6731.500     3813.739     2594.811        0.900        0.657       67.120       26.399        0.155      346.619       24.997      861.992
08/07/2014  22:53:00     -218.862      -20.116       -5.876      162.801       62.705       45.234    26504.111     3931.881     2046.131        4.040        1.624      219.785       52.712        0.058      346.645       25.040      862.001
08/07/2014  22:54:00     -214.018      -89.896      -11.097       86.417       65.425       43.274     7467.839     4280.449     1872.654        3.381        0.681      232.131       29.078        0.016      346.678       25.095      861.998
08/07/2014  22:55:00     -151.252      -99.120       -5.212      120.788       76.970       52.660    14589.679     5924.343     2773.059        2.800        1.164      180.837       56.983        0.099      346.626       25.006      861.992
08/07/2014  22:56:00     -315.435      -47.958      -12.778      114.609       88.907       59.289    13135.312     7904.517     3515.155        6.325        1.228      319.060       57.277        0.032      346.640       25.029      861.984
08/07/2014  22:57:00     -236.998      -71.195      -10.197       88.726       80.596       52.741     7872.224     6495.742     2781.590        3.924        0.857      247.460       41.888        0.029      346.641       25.030      861.975
08/07/2014  22:58:00     -202.198      -92.903       -3.295       80.372       87.676       51.414     6459.603     7687.042     2643.436        3.315        0.840      222.520       42.293        0.036      346.610       24.978      861.955
08/07/2014  22:59:00     -238.006     -191.585       -5.303      113.542       90.821       68.242    12891.833     8248.524     4656.941        5.958        1.290      305.535       63.230        0.043      346.605       24.968      861.942
08/07/2014  23:00:00     -272.915      -26.935       -5.082      107.578      106.932       54.347    11573.001    11434.434     2953.565        5.059        1.298      274.241       44.017        0.026      346.614       24.985      861.953
08/07/2014  23:01:00     -205.937      -14.374       -4.625      104.199       76.668       46.697    10857.519     5877.915     2180.637        3.077        0.946      206.438       44.695        0.047      346.608       24.974      861.962
08/07/2014  23:02:00     -255.694      -65.555      -19.841      142.947       86.608       45.945    20433.823     7500.999     2110.946        5.005        1.502      263.963       57.001        0.047      346.623       25.001      861.950
08/07/2014  23:03:00     -175.690      -45.027       -4.813       78.428       73.066       44.311     6150.941     5338.596     1963.457        2.318        0.673      181.368       40.214        0.049      346.619       24.995      861.951
08/07/2014  23:04:00     -143.022      -82.720        5.117       84.828       68.242       41.759     7195.803     4656.905     1743.793        2.046        0.680      165.221       48.074        0.085      346.578       24.924      861.953
08/07/2014  23:05:00     -190.884      -37.633        1.679      102.045       69.729       48.536    10413.155     4862.175     2355.734        2.774        0.882      194.559       56.711        0.085      346.538       24.856      861.964
08/07/2014  23:06:00     -208.983      -58.322       -0.587       80.305       79.787       47.265     6448.862     6366.029     2234.024        3.106        0.752      216.969       37.343        0.030      346.522       24.826      861.963
08/07/2014  23:07:00     -218.045      -30.400        3.764      114.027       65.629       56.390    13002.261     4307.203     3179.865        3.448        1.024      220.154       54.111        0.060      346.556       24.887      861.972
08/07/2014  23:08:00     -186.091      -47.722       -4.983      101.230       74.263       43.281    10247.573     5515.055     1873.255        2.728        0.882      192.113       45.298        0.056      346.549       24.874      861.979
08/07/2014  23:09:00     -125.401        7.420        0.432       56.539       43.847       34.390     3196.634     1922.550     1182.668        1.104        0.315      125.621       33.138        0.070      346.529       24.842      861.979
08/07/2014  23:10:00     -139.520      -33.570       -6.992       45.465       43.965       31.418     2067.100     1932.918      987.065        1.281        0.249      143.502       24.512        0.029      346.525       24.834      861.967
08/07/2014  23:11:00     -226.269      -41.665      -10.595       72.153       51.998       40.509     5206.075     2703.787     1641.007        3.130        0.478      230.073       39.057        0.029      346.517       24.820      861.971
08/07/2014  23:12:00     -194.583      -31.801       -7.324       59.157       59.116       38.441     3499.563     3494.717     1477.682        2.370        0.424      197.165       38.130        0.037      346.461       24.722      861.980
08/07/2014  23:13:00     -200.709      -32.938        4.720       81.076       59.522       42.623     6573.373     3542.845     1816.698        2.666        0.597      203.394       37.874        0.035      346.473       24.742      861.982
08/07/2014  23:14:00     -205.632      -19.680        2.577       99.486       57.826       46.838     9897.399     3343.863     2193.842        2.905        0.772      206.572       49.809        0.058      346.429       24.668      861.988
08/07/2014  23:15:00     -229.679      -81.418      -18.355      107.154      103.665       52.666    11481.884    10746.474     2773.741        4.236        1.250      243.683       51.981        0.046      346.516       24.817      861.988
08/07/2014  23:16:00     -171.635      -64.290        4.054      151.054       78.989       57.196    22817.383     6239.281     3271.387        3.296        1.616      183.281       75.428        0.169      346.512       24.812      861.995
08/07/2014  23:17:00      -92.049      -38.432        9.042       65.561       63.447       36.792     4298.183     4025.480     1353.622        0.985        0.484       99.750       36.283        0.132      346.475       24.749      861.993
08/07/2014  23:18:00     -189.017      -38.061       -7.734       83.997       68.136       43.723     7055.501     4642.547     1911.673        2.542        0.680      192.810       37.979        0.039      346.505       24.797      862.005
08/07/2014  23:19:00     -187.911      -28.511       -3.434       59.781       50.661       36.050     3573.743     2566.523     1299.613        2.179        0.372      190.062       29.745        0.024      346.483       24.762      862.020
08/07/2014  23:20:00     -195.124      -49.675      -10.943       91.535       62.046       41.383     8378.640     3849.746     1712.565        2.730        0.697      201.348       38.755        0.037      346.493       24.776      862.026
08/07/2014  23:21:00     -229.326      -20.276      -10.695      101.570       71.206       54.171    10316.546     5070.301     2934.472        3.571        0.916      230.220       48.812        0.045      346.455       24.711      862.034
08/07/2014  23:22:00     -146.966      -56.624        7.855       84.605       85.623       41.094     7158.088     7331.346     1688.750        2.052        0.809      157.496       42.572        0.073      346.421       24.654      862.046
08/07/2014  23:23:00     -151.694      -94.626       -5.469       97.832       72.739       49.844     9571.145     5290.894     2484.402        2.467        0.867      178.788       51.065        0.082      346.491       24.774      862.049
08/07/2014  23:24:00     -150.837      -72.743        1.917       71.660       59.106       38.576     5135.172     3493.512     1488.122        1.908        0.506      167.462       37.773        0.051      346.461       24.726      862.050
08/07/2014  23:25:00     -195.958     -120.774       -7.903       67.778       79.174       41.160     4593.924     6268.597     1694.110        3.280        0.628      230.187       35.662        0.024      346.522       24.828      862.030
08/07/2014  23:26:00     -193.428      -10.981      -18.825      115.536       69.306       42.749    13348.476     4803.346     1827.455        2.893        0.999      193.740       41.625        0.046      346.480       24.757      862.016
08/07/2014  23:27:00     -238.234      -52.031      -10.382      102.624       65.571       45.860    10531.730     4299.580     2103.140        3.825        0.847      243.850       52.470        0.046      346.400       24.617      862.021
08/07/2014  23:28:00     -226.849      -30.218      -17.035       86.070       60.279       43.708     7407.964     3633.615     1910.395        3.281        0.648      228.853       47.079        0.042      346.428       24.664      862.030
08/07/2014  23:29:00     -171.538      -35.444       -5.361       88.070       70.705       39.074     7756.387     4999.160     1526.806        2.249        0.714      175.162       40.816        0.054      346.418       24.651      862.031
08/07/2014  23:30:00     -213.406      -41.607       -3.256       63.798       79.209       38.385     4070.187     6274.095     1473.446        2.955        0.591      217.424       32.126        0.022      346.402       24.619      862.024
08/07/2014  23:31:00     -207.130      -46.536       -8.446      126.838       70.415       40.446    16087.800     4958.289     1635.876        3.391        1.134      212.293       59.922        0.080      346.339       24.513      862.018
08/07/2014  23:32:00     -242.825      -48.409      -12.656       93.441       65.145       53.386     8731.288     4243.816     2850.036        3.864        0.791      247.603       50.400        0.041      346.394       24.605      862.008
08/07/2014  23:33:00     -255.420      -62.615       -9.187      110.287       62.015       43.643    12163.332     3845.841     1904.744        4.358        0.896      262.983       49.341        0.035      346.431       24.671      862.005
08/07/2014  23:34:00     -241.668      -55.341       -6.935      100.452       80.101       47.092    10090.537     6416.243     2217.647        4.012        0.936      247.924       50.745        0.042      346.382       24.585      862.000
08/07/2014  23:35:00     -185.357      -41.109        2.281      126.019       76.953       45.879    15880.859     5921.799     2104.846        2.998        1.195      189.861       57.879        0.093      346.329       24.496      862.005
08/07/2014  23:36:00     -330.677      -82.836       -9.893       70.452       73.907       36.618     4963.425     5462.275     1340.891        6.403        0.588      340.895       28.038        0.007      346.392       24.603      862.019
08/07/2014  23:37:00     -278.502      -69.663      -12.854      102.806       94.712       58.383    10569.082     8970.334     3408.596        5.276        1.147      287.082       48.707        0.029      346.395       24.608      862.032
08/07/2014  23:38:00     -263.567      -45.366      -25.702       95.117       85.924       44.042     9047.200     7382.871     1939.659        4.527        0.918      267.442       41.712        0.024      346.407       24.630      862.039
08/07/2014  23:39:00     -231.116      -49.228       -6.121       92.440       80.112       41.352     8545.064     6417.926     1709.952        3.627        0.834      236.300       41.446        0.031      346.378       24.579      862.043
08/07/2014  23:40:00     -188.199      -56.985       -2.919       98.011       77.992       44.224     9606.239     6082.824     1955.795        2.816        0.882      196.637       51.164        0.068      346.451       24.706      862.047
08/07/2014  23:41:00     -284.798      -50.792       -8.804       93.147       62.225       41.439     8676.450     3871.970     1717.161        4.901        0.713      289.292       48.807        0.028      346.463       24.726      862.047
08/07/2014  23:42:00     -340.088      -88.282       -6.000      117.299       96.949       57.977    13758.952     9399.024     3361.385        7.500        1.326      351.360       60.346        0.029      346.490       24.771      862.035
08/07/2014  23:43:00     -294.331      -58.966      -27.724      110.806       87.842       55.161    12278.010     7716.177     3042.737        5.695        1.152      300.180       61.757        0.042      346.450       24.703      862.037
08/07/2014  23:44:00     -184.705      -78.251       -0.890       72.001       59.816       42.858     5184.083     3577.952     1836.798        2.542        0.530      200.597       37.670        0.035      346.390       24.600      862.020
08/07/2014  23:45:00     -209.485      -28.482       -2.760       92.680       65.566       43.009     8589.518     4298.936     1849.732        2.972        0.737      211.412       49.401        0.055      346.402       24.620      862.023
08/07/2014  23:46:00     -262.684      -35.601        2.111      130.692       64.345       54.692    17080.482     4140.321     2991.179        4.724        1.211      265.085       67.855        0.066      346.434       24.677      862.020
08/07/2014  23:47:00     -222.645      -59.150       -6.622       75.415       68.475       40.523     5687.426     4688.800     1642.109        3.256        0.601      230.369       38.354        0.028      346.384       24.589      862.026
08/07/2014  23:48:00     -219.833      -34.666       -1.796       75.171       63.121       39.368     5650.708     3984.225     1549.843        3.036        0.559      222.549       35.983        0.026      346.355       24.540      862.028
08/07/2014  23:49:00     -203.617      -74.222        3.245       84.691       72.155       43.407     7172.548     5206.379     1884.163        3.062        0.713      216.723       38.492        0.032      346.353       24.536      862.025
08/07/2014  23:50:00     -182.106      -12.045       -5.336       98.047       63.843       42.432     9613.138     4075.988     1800.481        2.441        0.774      182.504       49.875        0.075      346.305       24.455      862.040
08/07/2014  23:51:00     -247.671      -70.538       -9.468      107.515       63.019       45.586    11559.495     3971.425     2078.108        4.200        0.880      257.520       54.169        0.044      346.399       24.614      862.051
08/07/2014  23:52:00     -200.232      -22.513       -3.083       90.829       85.927       48.298     8249.915     7383.407     2332.683        2.928        0.898      201.493       50.147        0.062      346.355       24.540      862.050
08/07/2014  23:53:00     -205.483      -44.843       -1.560       93.279       73.391       44.357     8700.982     5386.292     1967.522        3.014        0.803      210.319       47.446        0.051      346.339       24.513      862.056
08/07/2014  23:54:00     -285.016      -39.902        0.117       85.126       66.904       42.787     7246.369     4476.193     1830.752        4.819        0.678      287.796       48.638        0.029      346.383       24.586      862.064
08/07/2014  23:55:00     -234.743      -42.181      -12.753       63.419       73.696       47.856     4021.958     5431.038     2290.150        3.439        0.587      238.502       36.499        0.023      346.364       24.554      862.067
08/07/2014  23:56:00     -142.005      -23.142        4.421      103.970       80.811       43.183    10809.683     6530.339     1864.734        1.996        0.960      143.879       52.580        0.134      346.267       24.389      862.075
08/07/2014  23:57:00     -166.665      -77.701        7.093      116.123       78.972       45.882    13484.497     6236.588     2105.150        2.784        1.091      183.888       55.505        0.091      346.352       24.534      862.073
08/07/2014  23:58:00     -200.156      -82.549        1.628      116.398       58.833       45.680    13548.561     3461.301     2086.624        3.298        0.955      216.510       56.201        0.067      346.363       24.553      862.075
08/07/2014  23:59:00     -169.532      -33.399       -9.202       44.108       52.401       31.937     1945.478     2745.821     1019.981        1.783        0.286      172.791       27.393        0.025      346.341       24.518      862.085
